[[{"header":{"parameterUnit":"m.s-1","parameterCategory":1,"la1":30.6,"la2":28.766,"lo1":-90.7593,"lo2":-88.6598,"dy":0.0162,"dx":0.0183,"nx":116,"ny":114,"refTime":"2023-05-19T12:00:00:Z","depth":0,"parameterNumber":2,"parameterNumberName":"U-component_of_WINDS"},"data":[0.0,0.0,0.0,0.0,0.0,0.0,0.0,0.0,0.0,0.0,0.0,0.0,0.0,0.0,0.0,0.0,0.0,0.0,0.0,0.0,0.0,0.0,0.0,0.0,0.0,0.0,0.0,0.0,0.0,0.0,0.0,0.0,0.0,0.0,0.0,0.0,0.0,0.0,0.0,0.0,0.0,0.0,0.0,0.0,0.0,0.0,0.0,0.0,0.0,0.0,0.0,0.0,0.0,0.0,0.0,0.0,0.0,0.0,0.0,0.0,0.0,0.0,0.0,0.0,0.0,0.0,0.0,0.0,0.0,0.0,0.0,0.0,0.0,0.0,0.0,0.0,0.0,0.0,0.0,0.0,0.0,0.0,0.0,0.0,0.0,0.0,0.0,0.0,0.0,0.0,0.0,0.0,0.0,0.0,0.0,0.0,0.0,0.0,0.0,0.0,0.0,0.0,0.0,0.0,0.0,0.0,0.0,0.0,0.0,0.0,0.0,0.0,0.0,0.0,0.0,0.0,0.0,0.0,0.0,0.0,0.0,0.0,0.0,0.0,0.0,0.0,0.0,0.0,0.0,0.0,0.0,0.0,0.0,0.0,0.0,0.0,0.0,0.0,0.0,0.0,0.0,0.0,0.0,0.0,0.0,0.0,0.0,0.0,0.0,0.0,0.0,0.0,0.0,0.0,0.0,0.0,0.0,0.0,0.0,0.0,0.0,0.0,0.0,0.0,0.0,0.0,0.0,0.0,0.0,0.0,0.0,0.0,0.0,0.0,0.0,0.0,0.0,0.0,0.0,0.0,0.0,0.0,0.0,0.0,0.0,0.0,0.0,0.0,0.0,0.0,0.0,0.0,0.0,0.0,0.0,0.0,0.0,0.0,0.0,0.0,0.0,0.0,0.0,0.0,0.0,0.0,0.0,0.0,0.0,0.0,0.0,0.0,0.0,0.0,0.0,0.0,0.0,0.0,0.0,0.0,0.0,0.0,0.0,0.0,0.0,0.0,0.0,0.0,0.0,0.0,0.0,0.0,0.0,0.0,0.0,0.0,0.0,0.0,0.0,0.0,0.0,0.0,0.0,0.0,0.0,0.0,0.0,0.0,0.0,0.0,0.0,0.0,0.0,0.0,0.0,0.0,0.0,0.0,0.0,0.0,0.0,0.0,0.0,0.0,0.0,0.0,0.0,0.0,0.0,0.0,0.0,0.0,0.0,0.0,0.0,0.0,0.0,0.0,0.0,0.0,0.0,0.0,0.0,0.0,0.0,0.0,0.0,0.0,0.0,0.0,0.0,0.0,0.0,0.0,0.0,0.0,0.0,0.0,0.0,0.0,0.0,0.0,0.0,0.0,0.0,0.0,0.0,0.0,0.0,0.0,0.0,0.0,0.0,0.0,0.0,0.0,0.0,0.0,0.0,0.0,0.0,0.0,0.0,0.0,0.0,0.0,0.0,0.0,0.0,0.0,0.0,0.0,0.0,0.0,0.0,0.0,0.0,0.0,0.0,0.0,0.0,0.0,0.0,0.0,0.0,0.0,0.0,0.0,0.0,0.0,0.0,0.0,0.0,0.0,0.0,0.0,0.0,0.0,0.0,0.0,0.0,0.0,0.0,0.0,0.0,0.0,0.0,0.0,0.0,0.0,0.0,0.0,0.0,0.0,0.0,0.0,0.0,0.0,0.0,0.0,0.0,0.0,0.0,0.0,0.0,0.0,0.0,0.0,0.0,0.0,0.0,0.0,0.0,0.0,0.0,0.0,0.0,0.0,0.0,0.0,0.0,0.0,0.0,0.0,0.0,0.0,0.0,0.0,0.0,0.0,0.0,0.0,0.0,0.0,0.0,0.0,0.0,0.0,0.0,0.0,0.0,0.0,0.0,0.0,0.0,0.0,0.0,0.0,0.0,0.0,0.0,0.0,0.0,0.0,0.0,0.0,0.0,0.0,0.0,0.0,0.0,0.0,0.0,0.0,0.0,0.0,0.0,0.0,0.0,0.0,0.0,0.0,0.0,0.0,0.0,0.0,0.0,0.0,0.0,0.0,0.0,0.0,0.0,0.0,0.0,0.0,0.0,0.0,0.0,0.0,0.0,0.0,0.0,0.0,0.0,0.0,0.0,0.0,0.0,0.0,0.0,0.0,0.0,0.0,0.0,0.0,0.0,0.0,0.0,0.0,0.0,0.0,0.0,0.0,0.0,0.0,0.0,0.0,0.0,0.0,0.0,0.0,0.0,0.0,0.0,0.0,0.0,0.0,0.0,0.0,0.0,0.0,0.0,0.0,0.0,0.0,0.0,0.0,0.0,0.0,0.0,0.0,0.0,0.0,0.0,0.0,0.0,0.0,0.0,0.0,0.0,0.0,0.0,0.0,0.0,0.0,0.0,0.0,0.0,0.0,0.0,0.0,0.0,0.0,0.0,0.0,0.0,0.0,0.0,0.0,0.0,0.0,0.0,0.0,0.0,0.0,0.0,0.0,0.0,0.0,0.0,0.0,0.0,0.0,0.0,0.0,0.0,0.0,0.0,0.0,0.0,0.0,0.0,0.0,0.0,0.0,0.0,0.0,0.0,0.0,0.0,0.0,0.0,0.0,0.0,0.0,0.0,0.0,0.0,0.0,0.0,0.0,0.0,0.0,0.0,0.0,0.0,0.0,0.0,0.0,0.0,0.0,0.0,0.0,0.0,0.0,0.0,0.0,0.0,0.0,0.0,0.0,0.0,0.0,0.0,0.0,0.0,0.0,0.0,0.0,0.0,0.0,0.0,0.0,0.0,0.0,0.0,0.0,0.0,0.0,0.0,0.0,0.0,0.0,0.0,0.0,0.0,0.0,0.0,0.0,0.0,0.0,0.0,0.0,0.0,0.0,0.0,0.0,0.0,0.0,0.0,0.0,0.0,0.0,0.0,0.0,0.0,0.0,0.0,0.0,0.0,0.0,0.0,0.0,0.0,0.0,0.0,0.0,0.0,0.0,0.0,0.0,0.0,0.0,0.0,0.0,0.0,0.0,0.0,0.0,0.0,0.0,0.0,0.0,0.0,0.0,0.0,0.0,0.0,0.0,0.0,0.0,0.0,0.0,0.0,0.0,0.0,0.0,0.0,0.0,0.0,0.0,0.0,0.0,0.0,0.0,0.0,0.0,0.0,0.0,0.0,0.0,0.0,0.0,0.0,0.0,0.0,0.0,0.0,0.0,0.0,0.0,0.0,0.0,0.0,0.0,0.0,0.0,0.0,0.0,0.0,0.0,0.0,0.0,0.0,0.0,0.0,0.0,0.0,0.0,0.0,0.0,0.0,0.0,0.0,0.0,0.0,0.0,0.0,0.0,0.0,0.0,0.0,0.0,0.0,0.0,0.0,0.0,0.0,0.0,0.0,0.0,0.0,0.0,0.0,0.0,0.0,0.0,0.0,0.0,0.0,0.0,0.0,0.0,0.0,0.0,0.0,0.0,0.0,0.0,0.0,0.0,0.0,0.0,0.0,0.0,0.0,0.0,0.0,0.0,0.0,0.0,0.0,0.0,0.0,0.0,0.0,0.0,0.0,0.0,0.0,0.0,0.0,0.0,0.0,0.0,0.0,0.0,0.0,0.0,0.0,0.0,0.0,0.0,0.0,0.0,0.0,0.0,0.0,0.0,0.0,0.0,0.0,0.0,0.0,0.0,0.0,0.0,0.0,0.0,0.0,0.0,0.0,0.0,0.0,0.0,0.0,0.0,0.0,0.0,0.0,0.0,0.0,0.0,0.0,0.0,0.0,0.0,0.0,0.0,0.0,0.0,0.0,0.0,0.0,0.0,0.0,0.0,0.0,0.0,0.0,0.0,0.0,0.0,0.0,0.0,0.0,0.0,0.0,0.0,0.0,0.0,0.0,0.0,0.0,0.0,0.0,0.0,0.0,0.0,0.0,0.0,0.0,0.0,0.0,0.0,0.0,0.0,0.0,0.0,0.0,0.0,0.0,0.0,0.0,0.0,0.0,0.0,0.0,0.0,0.0,0.0,0.0,0.0,0.0,0.0,0.0,0.0,0.0,0.0,0.0,0.0,0.0,0.0,0.0,0.0,0.0,0.0,0.0,0.0,0.0,0.0,0.0,0.0,0.0,0.0,0.0,0.0,0.0,0.0,0.0,0.0,0.0,0.0,0.0,0.0,0.0,0.0,0.0,0.0,0.0,0.0,0.0,0.0,0.0,0.0,0.0,0.0,0.0,0.0,0.0,0.0,0.0,0.0,0.0,0.0,0.0,0.0,0.0,0.0,0.0,0.0,0.0,0.0,0.0,0.0,0.0,0.0,0.0,0.0,0.0,0.0,0.0,0.0,0.0,0.0,0.0,0.0,0.0,0.0,0.0,0.0,0.0,0.0,0.0,0.0,0.0,0.0,0.0,0.0,0.0,0.0,0.0,0.0,0.0,0.0,0.0,0.0,0.0,0.0,0.0,0.0,0.0,0.0,0.0,0.0,0.0,0.0,0.0,0.0,0.0,0.0,0.0,0.0,0.0,0.0,0.0,0.0,0.0,0.0,0.0,0.0,0.0,0.0,0.0,0.0,0.0,0.0,0.0,0.0,0.0,0.0,0.0,0.0,0.0,0.0,0.0,0.0,0.0,0.0,0.0,0.0,0.0,0.0,0.0,0.0,0.0,0.0,0.0,0.0,0.0,0.0,0.0,0.0,0.0,0.0,0.0,0.0,0.0,0.0,0.0,0.0,0.0,0.0,0.0,0.0,0.0,0.0,0.0,0.0,0.0,0.0,0.0,0.0,0.0,0.0,0.0,0.0,0.0,0.0,0.0,0.0,0.0,0.0,0.0,0.0,0.0,0.0,0.0,0.0,0.0,0.0,0.0,0.0,0.0,0.0,0.0,0.0,0.0,0.0,0.0,0.0,0.0,0.0,0.0,0.0,0.0,0.0,0.0,0.0,0.0,0.0,0.0,0.0,0.0,0.0,0.0,0.0,0.0,0.0,0.0,0.0,0.0,0.0,0.0,0.0,0.0,0.0,0.0,0.0,0.0,0.0,0.0,0.0,0.0,0.0,0.0,0.0,0.0,0.0,0.0,0.0,0.0,0.0,0.0,0.0,0.0,0.0,0.0,0.0,0.0,0.0,0.0,0.0,0.0,0.0,0.0,0.0,0.0,0.0,0.0,0.0,0.0,0.0,0.0,0.0,0.0,0.0,0.0,0.0,0.0,0.0,0.0,0.0,0.0,0.0,0.0,0.0,0.0,0.0,0.0,0.0,0.0,0.0,0.0,0.0,0.0,0.0,0.0,0.0,0.0,0.0,0.0,0.0,0.0,0.0,0.0,0.0,0.0,0.0,0.0,0.0,0.0,0.0,0.0,0.0,0.0,0.0,0.0,0.0,0.0,0.0,0.0,0.0,0.0,0.0,0.0,0.0,0.0,0.0,0.0,0.0,0.0,0.0,0.0,0.0,0.0,0.0,0.0,0.0,0.0,0.0,0.0,0.0,0.0,0.0,0.0,0.0,0.0,0.0,0.0,0.0,0.0,0.0,0.0,0.0,0.0,0.0,0.0,0.0,0.0,0.0,0.0,0.0,0.0,0.0,0.0,0.0,0.0,0.0,0.0,0.0,0.0,0.0,0.0,0.0,0.0,0.0,0.0,0.0,0.0,0.0,0.0,0.0,0.0,0.0,0.0,0.0,0.0,0.0,0.0,0.0,0.0,0.0,0.0,0.0,0.0,0.0,0.0,0.0,0.0,0.0,0.0,0.0,0.0,0.0,0.0,0.0,0.0,0.0,0.0,0.0,0.0,0.0,0.0,0.0,0.0,0.0,0.0,0.0,0.0,0.0,0.0,0.0,0.0,0.0,0.0,0.0,0.0,0.0,0.0,0.0,0.0,0.0,0.0,0.0,0.0,0.0,0.0,0.0,0.0,0.0,0.0,0.0,0.0,0.0,0.0,0.0,0.0,0.0,0.0,0.0,0.0,0.0,0.0,0.0,0.0,0.0,0.0,0.0,0.0,0.0,0.0,0.0,0.0,0.0,0.0,0.0,0.0,0.0,0.0,0.0,0.0,0.0,0.0,0.0,0.0,0.0,0.0,0.0,0.0,0.0,0.0,0.0,0.0,0.0,0.0,0.0,0.0,0.0,2.5837,2.5287,0.0,0.0,0.0,0.0,0.0,0.0,0.0,0.0,0.0,0.0,0.0,0.0,0.0,0.0,0.0,0.0,0.0,0.0,0.0,0.0,0.0,0.0,0.0,0.0,0.0,0.0,0.0,0.0,0.0,0.0,0.0,0.0,0.0,0.0,0.0,0.0,0.0,0.0,0.0,0.0,0.0,0.0,0.0,0.0,0.0,0.0,0.0,0.0,0.0,0.0,0.0,0.0,0.0,0.0,0.0,0.0,0.0,0.0,0.0,0.0,0.0,0.0,0.0,0.0,0.0,0.0,0.0,0.0,0.0,0.0,0.0,0.0,0.0,0.0,0.0,0.0,0.0,0.0,0.0,0.0,0.0,0.0,0.0,0.0,0.0,0.0,0.0,0.0,0.0,0.0,0.0,0.0,0.0,0.0,0.0,0.0,0.0,0.0,0.0,0.0,0.0,0.0,0.0,0.0,0.0,0.0,0.0,0.0,0.0,0.0,0.0,0.0,0.0,0.0,2.5713,2.5345,0.0,0.0,0.0,0.0,0.0,0.0,0.0,0.0,0.0,0.0,0.0,0.0,0.0,0.0,0.0,0.0,0.0,0.0,0.0,0.0,0.0,0.0,0.0,0.0,0.0,0.0,0.0,0.0,0.0,0.0,0.0,0.0,0.0,0.0,0.0,0.0,0.0,0.0,0.0,0.0,0.0,0.0,0.0,0.0,0.0,0.0,0.0,0.0,0.0,0.0,0.0,0.0,0.0,0.0,0.0,0.0,0.0,0.0,0.0,0.0,0.0,0.0,0.0,0.0,0.0,0.0,0.0,0.0,0.0,0.0,0.0,0.0,0.0,0.0,0.0,0.0,0.0,0.0,0.0,0.0,0.0,0.0,0.0,0.0,0.0,0.0,0.0,0.0,0.0,0.0,0.0,0.0,0.0,0.0,0.0,0.0,0.0,0.0,0.0,0.0,0.0,0.0,0.0,0.0,0.0,0.0,0.0,0.0,2.6145,2.6006,2.5458,2.6528,2.6667,2.6039,2.5564,2.5534,2.5689,2.4897,0.0,0.0,0.0,0.0,0.0,0.0,0.0,0.0,0.0,0.0,0.0,0.0,0.0,0.0,0.0,0.0,0.0,0.0,0.0,0.0,0.0,0.0,0.0,0.0,0.0,0.0,0.0,0.0,0.0,0.0,0.0,0.0,0.0,0.0,0.0,0.0,0.0,0.0,3.2496,3.397,3.4649,3.4494,3.3925,0.0,0.0,0.0,0.0,0.0,0.0,0.0,0.0,0.0,0.0,0.0,0.0,0.0,0.0,0.0,0.0,0.0,0.0,0.0,0.0,0.0,0.0,0.0,0.0,0.0,0.0,0.0,0.0,0.0,0.0,0.0,0.0,0.0,0.0,0.0,0.0,0.0,0.0,0.0,0.0,0.0,0.0,0.0,2.8912,2.9568,0.0,0.0,0.0,0.0,0.0,0.0,0.0,0.0,0.0,0.0,0.0,0.0,0.0,2.6808,2.5819,2.6253,2.6325,2.5962,2.6484,2.6591,2.6318,2.6491,2.6481,2.6265,2.6179,0.0,2.5669,2.6052,0.0,0.0,0.0,0.0,0.0,0.0,0.0,0.0,0.0,0.0,0.0,0.0,0.0,0.0,0.0,0.0,0.0,0.0,0.0,0.0,0.0,0.0,0.0,0.0,0.0,0.0,0.0,0.0,0.0,0.0,0.0,0.0,0.0,0.0,0.0,0.0,3.2297,3.284,3.3295,3.3999,3.4568,3.4965,3.4645,3.4485,3.4448,3.4053,0.0,0.0,0.0,0.0,0.0,0.0,0.0,0.0,0.0,0.0,0.0,0.0,0.0,0.0,0.0,0.0,0.0,0.0,0.0,0.0,0.0,0.0,0.0,0.0,0.0,0.0,0.0,0.0,0.0,0.0,0.0,0.0,0.0,0.0,0.0,0.0,0.0,0.0,0.0,2.848,2.908,2.982,2.9173,2.8494,0.0,0.0,0.0,0.0,0.0,0.0,0.0,0.0,0.0,2.7052,2.6993,2.6826,2.6495,2.6692,2.6637,2.6278,2.6876,2.6899,2.6394,2.715,2.7238,2.6883,2.724,2.7026,2.6412,2.6036,2.563,2.5077,0.0,0.0,0.0,0.0,2.3665,2.3645,0.0,0.0,0.0,0.0,0.0,0.0,0.0,0.0,0.0,0.0,0.0,0.0,0.0,0.0,0.0,3.2591,0.0,0.0,0.0,0.0,0.0,0.0,0.0,0.0,0.0,0.0,0.0,3.2667,3.2822,3.3224,3.3807,3.4017,3.4421,3.5023,3.5418,3.5604,3.557,3.4973,3.3821,0.0,0.0,0.0,0.0,0.0,0.0,0.0,0.0,0.0,0.0,0.0,0.0,0.0,0.0,0.0,0.0,0.0,0.0,0.0,0.0,0.0,0.0,0.0,0.0,0.0,0.0,0.0,0.0,0.0,0.0,0.0,0.0,0.0,0.0,0.0,0.0,0.0,0.0,2.9185,2.9614,3.0353,2.9833,2.9137,0.0,0.0,0.0,0.0,0.0,0.0,2.6904,2.6233,2.6228,2.7013,2.701,2.6922,2.687,2.6884,2.6712,2.6472,2.696,2.6852,2.6261,2.7085,2.717,2.6757,2.7001,2.6903,2.6521,2.6034,2.5816,2.5649,2.4747,2.3892,2.3326,2.3906,2.3934,2.382,0.0,0.0,0.0,0.0,0.0,0.0,0.0,0.0,0.0,0.0,0.0,0.0,0.0,0.0,3.2469,3.2752,3.261,3.2115,0.0,0.0,0.0,0.0,0.0,0.0,0.0,0.0,0.0,3.26,3.3364,3.3752,3.3825,3.4567,3.4971,3.5073,3.6545,3.7168,3.7052,3.5137,3.4458,3.4413,0.0,0.0,0.0,0.0,0.0,0.0,0.0,0.0,0.0,0.0,0.0,0.0,0.0,0.0,0.0,0.0,0.0,0.0,0.0,0.0,0.0,0.0,0.0,0.0,0.0,0.0,0.0,0.0,0.0,0.0,0.0,0.0,0.0,0.0,0.0,0.0,0.0,0.0,0.0,3.1775,3.1742,0.0,0.0,0.0,0.0,2.7428,2.6994,2.6992,2.7517,2.7024,2.701,2.7625,2.7555,2.7181,2.651,2.651,2.6472,2.6286,2.6315,2.6261,2.6096,2.5572,2.5251,2.5103,2.454,2.461,2.5202,2.6493,2.5966,2.4311,2.424,2.3572,2.2683,2.3169,2.3688,2.4184,0.0,0.0,0.0,0.0,0.0,0.0,0.0,0.0,0.0,0.0,0.0,0.0,0.0,3.2915,3.3691,3.4289,3.4279,3.3655,3.2248,0.0,0.0,0.0,0.0,0.0,0.0,0.0,3.2585,3.3364,3.3668,3.3807,3.3807,3.4091,3.4475,3.4971,3.5515,3.6127,3.6729,3.6032,3.4924,3.3564,3.2513,3.1557,0.0,0.0,0.0,0.0,0.0,0.0,0.0,0.0,0.0,0.0,0.0,0.0,0.0,0.0,0.0,0.0,0.0,0.0,0.0,0.0,0.0,0.0,0.0,0.0,0.0,0.0,0.0,0.0,0.0,0.0,0.0,0.0,0.0,0.0,0.0,0.0,0.0,3.0449,3.0483,0.0,2.9433,2.8559,2.7783,2.7191,2.6919,2.6914,2.722,2.655,2.6474,2.7086,2.6982,2.6759,2.651,2.6418,2.6326,2.6179,2.6179,2.6111,2.5934,2.5367,2.5033,2.4952,2.4385,2.423,2.447,2.4972,2.4986,2.4704,2.4309,2.3618,2.2989,2.359,2.3703,2.3477,0.0,0.0,0.0,0.0,0.0,0.0,0.0,0.0,0.0,0.0,0.0,3.092,3.2157,3.3051,3.3777,3.4327,3.4385,3.3761,3.2286,0.0,0.0,0.0,0.0,0.0,0.0,3.232,3.2981,3.3807,3.3807,3.3807,3.3807,3.3807,3.4054,3.4494,3.4633,3.5119,3.5872,3.5989,3.5157,3.3673,3.2969,3.2264,3.1489,0.0,0.0,0.0,0.0,0.0,0.0,0.0,0.0,0.0,0.0,0.0,0.0,0.0,0.0,0.0,0.0,0.0,0.0,0.0,0.0,0.0,0.0,0.0,0.0,0.0,0.0,0.0,0.0,0.0,0.0,0.0,0.0,0.0,0.0,2.8984,2.9639,2.9716,2.9989,2.9786,2.8842,2.8395,2.7922,2.7294,2.7149,2.7031,2.6922,2.6358,2.6249,2.6698,2.6539,2.6318,2.605,2.5959,2.5753,2.5434,2.5434,2.5381,2.5247,2.4629,2.4348,2.4306,2.3737,2.3421,2.3322,2.3322,2.3523,2.3756,2.3764,2.3301,2.2762,2.3406,2.3328,2.2851,0.0,0.0,0.0,0.0,0.0,0.0,0.0,0.0,0.0,0.0,2.9119,3.0108,3.1346,3.2225,3.2741,3.2785,3.2804,3.2333,3.1265,3.0222,0.0,0.0,0.0,0.0,3.2577,3.2621,3.3007,3.3807,3.3807,3.3807,3.3807,3.3807,3.377,3.3707,3.4087,3.4382,3.4588,3.499,3.515,3.5026,3.3131,3.2349,3.2207,0.0,0.0,0.0,0.0,0.0,0.0,0.0,0.0,0.0,0.0,0.0,0.0,0.0,0.0,0.0,0.0,0.0,0.0,0.0,0.0,0.0,0.0,0.0,0.0,0.0,0.0,0.0,0.0,0.0,0.0,0.0,0.0,0.0,2.8656,2.896,2.9228,2.987,3.0453,3.0344,2.9014,2.8858,2.8543,2.7735,2.7685,2.7414,2.6832,2.6592,2.651,2.651,2.6351,2.5905,2.5204,2.5176,2.4812,2.4118,2.4118,2.4118,2.4089,2.3393,2.3097,2.3055,2.2451,2.2044,2.1793,2.1793,2.1616,2.1526,2.2637,2.2512,2.1876,2.2456,2.2528,2.2272,0.0,0.0,0.0,0.0,0.0,0.0,0.0,0.0,0.0,0.0,2.9288,3.0788,3.1431,3.221,3.2707,3.2741,3.2741,3.2283,3.1265,0.0,0.0,0.0,0.0,0.0,3.2596,3.3164,3.3568,3.3807,3.3807,3.3807,3.3807,3.3752,3.3697,3.3633,3.3694,3.3713,3.375,3.3829,3.422,3.4673,3.4112,3.3262,3.2281,0.0,0.0,0.0,0.0,0.0,0.0,0.0,0.0,0.0,0.0,0.0,0.0,0.0,0.0,0.0,0.0,0.0,0.0,0.0,0.0,0.0,0.0,0.0,0.0,0.0,0.0,0.0,0.0,0.0,0.0,0.0,2.5923,2.6061,2.6739,2.7794,2.8465,2.8392,2.9039,2.9093,2.8271,2.8076,2.7795,2.7218,2.6982,2.6826,2.6779,2.65,2.6418,2.651,2.583,2.5426,2.519,2.4699,2.4287,2.4118,2.4118,2.4118,2.4089,2.3195,2.2804,2.2762,2.1973,2.1568,2.152,2.152,2.1471,2.1437,2.1745,2.1704,2.1533,2.1697,2.1251,2.0541,0.0,0.0,0.0,0.0,0.0,0.0,0.0,0.0,0.0,0.0,2.9115,3.0593,3.092,3.1675,3.2019,3.1675,3.2,3.1718,3.0596,0.0,0.0,0.0,0.0,3.2761,3.3109,3.3568,3.3807,3.3807,3.3807,3.3807,3.3807,3.377,3.3671,3.3597,3.3397,3.3351,3.3371,3.3253,3.3507,3.4075,3.4353,3.3977,3.3202,3.2861,3.2491,3.2088,3.1647,3.154,3.1545,3.0649,0.0,0.0,0.0,0.0,0.0,0.0,0.0,0.0,0.0,0.0,0.0,0.0,0.0,0.0,0.0,0.0,0.0,0.0,0.0,0.0,0.0,0.0,0.0,0.0,2.5817,2.5741,2.6134,2.7119,2.7921,2.8216,2.8607,2.8654,2.8207,2.7879,2.7545,2.7218,2.6945,2.6841,2.6974,2.6817,2.6803,2.6841,2.592,2.5269,2.4997,2.412,2.3533,2.3329,2.3329,2.328,2.3119,2.2582,2.2269,2.2095,2.1397,2.1145,2.1215,2.1008,2.0952,2.1131,0.0,0.0,0.0,0.0,2.0219,1.9568,0.0,0.0,0.0,0.0,0.0,0.0,0.0,0.0,0.0,0.0,0.0,2.9858,3.0171,3.0835,3.0987,3.0261,3.0911,3.0925,0.0,0.0,0.0,3.2962,3.2865,3.3125,3.3842,3.3834,3.3807,3.3807,3.3807,3.3807,3.3807,3.3788,3.3707,3.3579,3.3248,3.3146,3.325,3.2927,3.2968,3.335,3.3972,3.4275,3.4197,3.3707,3.3408,3.3305,3.3357,3.302,3.2547,3.2453,0.0,0.0,0.0,0.0,0.0,0.0,0.0,0.0,0.0,0.0,0.0,0.0,0.0,0.0,0.0,0.0,0.0,0.0,0.0,0.0,0.0,0.0,0.0,0.0,2.5674,2.5911,2.6534,2.6952,2.7564,2.8639,2.8748,2.8701,2.8511,2.8125,2.7765,2.7565,2.7357,2.7269,2.7233,2.7335,0.0,0.0,0.0,2.5257,2.4586,2.3601,2.2814,2.2263,2.2263,2.2123,2.1841,2.1793,2.1616,2.1348,2.082,2.0745,2.0957,2.0439,2.0435,2.0749,2.118,2.114,2.0788,2.0079,1.9481,1.8999,0.0,0.0,0.0,0.0,0.0,0.0,0.0,0.0,0.0,2.7071,2.8062,2.9082,3.008,3.0338,3.0376,3.0204,3.0338,3.059,0.0,0.0,3.2171,3.3187,3.3673,3.3957,3.4124,3.3895,3.3807,3.3807,3.3807,3.3807,3.3807,3.3697,3.3606,3.3588,3.3089,3.2744,3.2481,3.2102,3.2156,3.2525,3.2661,3.2723,3.2862,3.3879,3.356,3.2596,3.3178,3.3678,3.4001,3.3406,3.3095,3.2867,3.2283,3.148,0.0,0.0,0.0,0.0,0.0,0.0,0.0,0.0,0.0,0.0,0.0,0.0,0.0,0.0,0.0,0.0,0.0,0.0,0.0,2.56,2.5968,2.6598,2.7701,2.7713,2.7678,2.7913,2.8654,2.8951,2.84,2.8638,2.8543,2.7849,2.768,2.7595,2.7524,2.7306,2.6952,2.6535,2.5737,2.4834,2.3875,2.3458,2.302,2.2618,2.2618,0.0,2.2189,2.1698,2.1326,2.1082,2.0779,2.0693,2.0749,2.0631,2.0657,2.0699,2.0799,2.0522,2.0005,1.9852,1.9178,1.828,0.0,0.0,0.0,0.0,0.0,0.0,0.0,0.0,0.0,0.0,2.7716,2.8806,2.947,2.9937,3.0204,3.0204,3.0113,0.0,0.0,3.2034,3.271,3.4034,3.4258,3.4302,3.4197,3.4074,3.3744,3.3191,3.3587,3.3578,3.3195,3.3523,3.3534,3.3358,3.3205,3.2729,3.1987,3.1994,3.1913,3.1788,3.2156,3.2087,3.1918,3.3406,3.3708,3.3445,3.3818,3.4432,3.4987,3.4628,3.4482,3.4449,3.4074,3.3172,3.2078,0.0,0.0,0.0,0.0,0.0,0.0,0.0,0.0,0.0,0.0,0.0,0.0,0.0,0.0,2.6692,2.651,0.0,2.5816,2.6415,2.6372,2.6693,2.7819,2.8042,2.8222,2.8463,2.8904,2.9182,2.912,2.9074,2.8889,2.8336,2.7804,2.7458,2.7293,2.7278,2.7127,2.6844,2.5976,2.528,2.4766,2.4117,2.354,2.2979,2.336,2.3194,2.2558,2.1969,2.1568,2.1264,2.0545,2.0437,2.0699,2.0699,2.0699,2.0699,2.0699,2.0309,1.9773,1.946,1.8819,1.8061,0.0,0.0,0.0,0.0,0.0,0.0,0.0,0.0,0.0,0.0,2.7233,2.8297,2.8643,2.9301,2.9811,0.0,0.0,0.0,0.0,3.2294,3.2959,3.466,3.4639,3.4505,3.4344,3.4245,3.379,3.2914,3.35,3.3476,3.2857,3.3405,3.3515,3.3219,3.3296,3.2802,3.1809,3.2064,3.1805,3.1224,3.1839,3.1715,3.1331,3.2508,3.3512,3.4324,3.4606,3.4987,3.538,3.5543,3.5493,3.538,3.5543,3.479,3.3606,3.2463,3.1685,0.0,0.0,0.0,0.0,0.0,0.0,0.0,0.0,2.7083,2.6962,2.7655,2.7355,2.7083,2.7343,2.6461,2.609,2.713,2.6847,2.6811,2.7887,2.8259,2.8607,2.9143,2.9239,2.9425,2.9858,2.947,2.9027,2.8607,2.7938,2.7441,2.7113,2.7425,2.7534,2.7396,2.655,2.6,2.5817,2.5061,2.4402,2.3792,2.4311,2.4117,2.3154,2.2573,2.2094,2.167,2.067,2.0461,2.0848,2.0848,2.0799,2.0699,2.0699,2.0309,1.9734,1.9133,1.8493,1.7852,0.0,0.0,0.0,0.0,0.0,0.0,0.0,0.0,0.0,0.0,0.0,0.0,0.0,0.0,0.0,0.0,0.0,0.0,3.1484,3.2222,3.308,3.405,3.4584,3.4851,3.4812,3.4413,3.4147,3.4027,3.3883,3.3744,3.3652,3.3615,3.3588,3.3508,3.3072,3.2651,3.2215,3.1888,3.154,3.1207,3.1297,3.128,3.1207,3.1365,3.2327,3.3699,3.5016,3.5116,3.474,3.5363,3.515,3.4757,3.538,3.5493,3.4936,3.2751,3.2014,3.1483,2.9096,2.8538,2.8705,2.9271,2.8243,2.7729,0.0,2.9088,2.7691,2.8366,2.8435,2.8022,2.6748,2.6763,2.7022,2.7063,2.724,2.7783,2.8949,2.8507,2.8247,2.8775,2.9426,2.9814,2.9902,2.9621,2.908,2.8237,2.8419,2.8186,2.738,2.7965,2.8027,2.7411,2.7272,2.678,2.5817,2.6047,2.5925,2.5499,2.5574,2.5152,2.4237,2.3717,2.304,2.2235,2.1965,2.1663,2.1326,2.1326,2.1082,2.0699,2.0699,2.0309,1.9734,1.9133,1.8218,1.729,0.0,0.0,0.0,0.0,0.0,0.0,0.0,0.0,0.0,0.0,0.0,0.0,0.0,0.0,0.0,0.0,0.0,0.0,3.1408,3.1809,3.2592,3.3929,3.4247,3.4524,3.4889,3.4548,3.411,3.3504,3.3697,3.3559,3.3118,3.395,3.4009,3.3382,3.3734,3.3448,3.2709,3.268,3.2615,3.2474,3.2474,3.2474,3.2525,3.2968,3.3498,3.3997,3.3765,3.3768,0.0,0.0,3.409,3.3979,3.474,3.497,3.4662,3.3233,3.2744,3.2345,3.0795,2.9997,2.9638,2.9589,2.9751,2.9995,3.0348,2.9452,2.8784,2.9444,2.9042,2.8389,2.7712,2.761,2.7567,2.7436,2.7697,2.8078,2.8489,2.8614,2.8685,2.8796,2.9318,2.9504,2.9086,2.9319,2.9207,2.8527,2.8248,2.7891,2.7411,2.7673,2.7688,2.7411,2.7396,2.7195,2.6718,2.6919,2.6719,2.6123,2.652,2.6093,2.4836,2.4341,2.347,2.2267,2.2175,2.2002,2.1779,2.1506,2.1277,2.1082,2.0799,2.0309,1.9734,1.9133,1.8401,1.7669,0.0,0.0,0.0,0.0,0.0,0.0,0.0,0.0,0.0,0.0,0.0,0.0,0.0,0.0,0.0,0.0,0.0,0.0,0.0,3.156,3.2363,3.3586,3.4082,3.4533,3.4982,3.4734,3.4323,3.3724,3.4086,3.402,3.3647,3.4744,3.4807,3.4021,3.4717,3.4535,3.3641,3.3688,3.3646,3.3577,3.3434,3.34,3.3451,3.3984,3.4179,3.4079,3.3211,3.2979,0.0,0.0,3.2815,3.2607,3.3356,3.3589,3.3473,3.285,3.2571,3.2227,3.1278,3.0768,3.0383,2.9856,3.0533,3.1144,3.0267,2.979,2.9713,3.0174,2.9599,2.902,2.8834,2.8553,2.8304,2.8174,2.8496,2.87,2.8529,2.8825,2.9054,2.9087,2.9431,2.952,2.9155,2.9188,2.9027,2.8467,2.8078,2.7798,2.7612,2.7659,2.772,2.7876,2.7751,2.7673,2.7673,2.7673,2.7426,2.6949,2.7442,2.6903,2.545,2.4611,2.3673,2.2694,2.2589,2.2452,2.2267,2.1969,2.1746,2.1541,2.1215,2.0815,2.0361,1.976,1.8959,1.8035,0.0,0.0,0.0,0.0,0.0,0.0,0.0,0.0,0.0,0.0,0.0,0.0,0.0,0.0,0.0,0.0,0.0,0.0,0.0,3.1766,3.2691,3.273,3.4312,3.5171,3.5193,3.4982,3.5133,3.5628,3.5442,3.5642,3.6176,3.6102,3.6048,3.6024,3.5901,3.5643,3.5284,3.4783,3.4331,3.3957,3.3539,3.3378,3.3378,3.3439,3.3439,3.3523,3.4203,0.0,0.0,3.2354,3.1405,3.0323,3.1068,3.1283,3.1254,3.1096,3.0922,3.0592,2.9847,3.0073,3.0477,3.0452,3.017,3.0062,3.0717,3.0505,3.019,3.0206,3.0179,3.0085,2.9864,2.9624,2.9425,2.9243,2.9576,2.9858,2.9826,2.9243,2.9065,2.9805,3.0027,3.0332,3.0794,2.9562,2.8467,2.7796,2.8138,2.8295,2.8079,2.8264,2.859,2.9042,2.8637,2.8381,2.8381,2.8381,2.8365,2.835,2.8365,2.761,2.6107,2.4546,2.3797,2.3754,2.3595,2.329,2.2889,2.2844,2.2558,2.2081,2.2081,2.2067,2.1983,2.1412,1.9918,1.81,0.0,0.0,0.0,0.0,0.0,0.0,0.0,0.0,0.0,0.0,0.0,0.0,0.0,0.0,0.0,0.0,2.8983,0.0,0.0,3.0963,3.2153,3.2737,3.383,3.4923,3.605,3.5818,3.6065,3.6823,3.6441,3.6646,3.736,3.7665,3.7521,3.7077,3.7948,3.7857,3.7011,3.722,3.7236,3.699,3.6378,3.5921,3.5526,3.4499,3.4125,3.4035,0.0,0.0,3.0751,3.0266,2.9799,2.9518,3.0248,3.0466,3.0462,3.0292,3.0145,3.0082,3.0285,3.0757,3.1125,3.0609,3.0734,3.0908,3.0701,3.0647,3.0668,3.0674,3.0432,3.0149,2.9927,2.9687,2.9486,2.9305,3.0023,3.0409,2.9983,3.0474,3.092,3.097,3.123,3.156,3.1987,3.1502,3.0983,3.0587,3.027,3.003,2.9955,2.9566,2.9409,2.9572,2.9409,2.9273,2.9198,2.8556,2.8372,2.8732,2.7504,2.6474,2.5538,2.4377,2.3882,2.4024,2.3739,2.3551,2.348,2.3068,2.2799,2.2603,2.2221,2.2081,2.2053,2.1903,2.1133,2.0117,0.0,0.0,0.0,0.0,0.0,0.0,0.0,0.0,0.0,0.0,0.0,0.0,0.0,0.0,0.0,0.0,0.0,2.9692,0.0,0.0,3.1795,3.2359,3.3436,3.4531,3.5621,3.5772,3.6192,3.6944,3.6949,3.7264,3.79,3.8551,3.8524,3.7968,3.881,3.8925,3.8419,3.8365,3.8122,3.7723,3.699,3.6173,3.5296,3.4432,3.394,0.0,0.0,0.0,2.9984,2.9265,2.8629,2.8253,2.8749,2.9263,2.9713,2.9873,3.0022,3.0282,3.0925,3.1158,3.1066,3.0609,3.0858,3.1133,3.0957,3.1248,3.1597,3.1896,3.1489,3.1062,3.0937,3.0483,3.0073,2.993,3.0559,3.1099,3.1149,3.1621,3.2307,3.3167,3.328,3.3611,3.4343,3.4205,3.3495,3.2104,3.157,3.1242,3.1176,3.0315,2.9881,3.0054,2.9637,2.9378,2.9291,2.8666,2.849,2.8831,2.7086,2.6037,2.5486,2.4495,2.4094,2.4124,2.3797,2.3696,2.3696,2.329,2.3157,2.3113,2.277,2.2634,2.2634,2.2634,2.23,2.1737,0.0,0.0,0.0,0.0,0.0,0.0,0.0,0.0,0.0,0.0,0.0,0.0,0.0,0.0,0.0,0.0,0.0,0.0,0.0,0.0,0.0,3.1659,3.3226,3.4127,3.4223,3.499,3.5637,3.619,3.699,3.7524,3.7833,3.8631,3.888,3.861,3.8538,3.8867,3.9405,3.8233,3.721,3.6292,3.558,3.4358,3.3034,3.3295,0.0,0.0,0.0,0.0,2.9995,2.9299,2.8083,2.686,2.686,2.7878,2.9179,2.9729,3.0391,3.1024,3.1575,3.1175,3.0559,3.0526,3.0526,3.0667,3.1384,3.2106,3.2857,3.3549,3.3129,3.264,3.264,3.1929,3.1275,3.112,3.1332,3.1978,3.333,3.2715,3.3192,3.6021,3.5982,3.6209,3.7506,3.7242,3.571,3.2425,3.2087,3.1945,3.1712,3.0506,3.0097,3.0518,2.9426,2.8816,2.8816,2.8741,2.8676,2.8595,2.7114,2.6198,2.5866,2.5001,2.4395,2.4024,2.3882,2.3739,2.3595,2.3595,2.3595,2.3595,2.3595,2.3595,2.3595,2.3595,2.3334,2.2802,0.0,0.0,0.0,0.0,0.0,0.0,0.0,0.0,0.0,0.0,0.0,0.0,0.0,0.0,0.0,0.0,0.0,0.0,0.0,0.0,0.0,0.0,0.0,0.0,0.0,0.0,0.0,0.0,3.7239,3.7489,3.8115,3.7987,3.7872,3.7835,3.8285,3.8277,3.7893,3.8061,3.7809,3.7216,0.0,3.5741,3.5238,0.0,0.0,0.0,0.0,3.134,3.0084,2.9898,2.9573,2.9246,2.9246,2.9503,2.985,3.0006,3.0435,3.0862,3.1047,3.1208,3.1191,3.0626,3.0526,3.0534,3.0733,3.1378,3.1929,3.2139,3.2017,3.1895,3.1895,3.1561,3.1578,3.236,3.279,3.3475,3.4662,3.4549,3.4745,3.5836,3.5661,3.5712,3.6372,3.7199,3.6861,3.4834,3.365,3.299,3.2951,3.1623,3.0895,3.1015,3.0734,3.0513,3.0432,2.9502,2.8396,2.7122,2.671,2.6163,2.5571,2.4997,2.4679,2.4574,2.4036,2.3782,2.3739,2.3653,2.3595,2.3595,2.3595,2.3595,2.3595,2.3595,2.3508,2.3391,0.0,0.0,0.0,0.0,0.0,0.0,0.0,0.0,0.0,0.0,0.0,0.0,0.0,0.0,0.0,0.0,0.0,0.0,0.0,0.0,0.0,0.0,0.0,0.0,0.0,0.0,0.0,0.0,0.0,0.0,3.6603,3.7071,3.7151,3.7004,3.7364,3.7437,3.7298,3.7285,0.0,0.0,0.0,0.0,0.0,0.0,0.0,0.0,0.0,3.2239,3.1792,3.18,3.1053,3.0111,3.0111,3.0101,3.0141,3.0421,3.0692,3.0953,3.1299,3.13,3.1125,3.0701,3.0793,3.0991,3.0978,3.1523,3.2182,3.2491,3.2304,3.2183,3.2514,3.2665,3.2941,3.3674,3.4359,3.5148,3.6208,3.6259,3.6514,3.7404,3.7092,3.6996,3.7445,3.7512,3.7136,3.6197,3.5047,3.4083,3.344,3.2002,3.119,3.119,3.0886,3.0678,3.06,2.9594,2.8766,2.8136,2.742,2.678,2.6237,2.5664,2.5253,2.5036,2.4599,2.4379,2.4338,2.4214,2.409,2.3937,2.3937,2.3867,2.3782,2.3782,2.3782,2.3782,0.0,0.0,0.0,0.0,0.0,0.0,0.0,0.0,0.0,0.0,0.0,0.0,0.0,0.0,0.0,0.0,0.0,0.0,0.0,0.0,0.0,0.0,0.0,0.0,0.0,0.0,0.0,0.0,0.0,0.0,0.0,0.0,0.0,0.0,0.0,0.0,0.0,0.0,0.0,0.0,0.0,0.0,0.0,0.0,0.0,0.0,3.2627,3.3304,3.3928,3.405,3.2558,3.0725,3.0701,3.06,3.0544,3.0982,3.105,3.1128,3.1715,3.1332,3.0709,3.0701,3.1078,3.1475,3.1451,3.2034,3.276,3.3392,3.3106,3.2934,3.3483,3.4107,3.4675,3.4951,3.5791,3.6755,3.7828,3.7767,3.8112,3.9388,3.8974,3.8728,3.908,3.7991,3.7053,3.6683,3.5994,3.5013,3.3626,3.2138,3.1292,3.119,3.0581,3.026,3.026,2.9499,2.9414,2.9939,2.8501,2.758,2.7105,2.6421,2.5872,2.5481,2.5307,2.5137,2.5028,2.4965,2.4784,2.4517,2.4517,2.4354,2.4135,2.4094,2.4094,2.4051,0.0,0.0,0.0,0.0,0.0,0.0,0.0,0.0,0.0,0.0,2.6283,2.7751,0.0,0.0,0.0,0.0,0.0,0.0,0.0,0.0,0.0,0.0,0.0,0.0,0.0,3.3555,3.3234,3.3042,3.3144,0.0,0.0,0.0,0.0,0.0,0.0,0.0,0.0,0.0,0.0,0.0,0.0,0.0,0.0,0.0,0.0,0.0,3.2562,3.286,3.3593,3.4266,3.4214,3.3835,3.3809,3.3185,3.2298,3.1754,3.1314,3.1033,3.1145,3.1021,3.0834,3.0734,3.08,3.0824,3.07,3.1262,3.1841,3.194,3.2653,3.3136,3.2563,3.3812,3.5156,3.5924,3.6602,3.7552,3.9129,3.8829,3.8491,3.875,3.8556,3.8208,3.7547,3.7746,3.7364,3.591,3.569,3.5233,3.4353,3.2899,3.1816,3.1207,3.1072,3.1004,3.1004,3.0277,2.9668,2.9161,2.8264,2.7451,2.6775,2.6312,2.6033,2.5868,2.5519,2.5291,2.5182,2.5144,2.5105,2.5067,2.5067,2.5028,2.495,2.4623,2.4517,2.4436,0.0,0.0,0.0,0.0,0.0,0.0,0.0,2.419,2.4375,2.4856,2.5851,2.6841,2.7716,2.9063,0.0,0.0,0.0,0.0,0.0,0.0,0.0,0.0,0.0,0.0,0.0,3.2845,3.2864,3.2801,0.0,3.2364,3.2103,3.2251,3.2438,3.2629,3.2985,3.3405,3.3807,0.0,0.0,3.3642,3.359,3.364,0.0,0.0,0.0,0.0,0.0,3.2895,3.3754,3.4167,3.4429,3.4596,3.4606,3.365,3.2529,3.2128,3.1839,3.163,3.1438,3.1331,3.1202,3.0874,3.1041,3.1133,3.0609,3.1388,3.2254,3.2512,3.3313,3.4033,3.4243,3.5274,3.6156,3.6426,3.7516,3.8408,3.8614,3.934,3.9629,3.9215,3.9326,3.9188,3.8454,3.8205,3.7593,3.6474,3.5977,3.5345,3.4523,3.3085,3.2121,3.1765,3.1393,3.119,3.119,3.0852,3.0497,3.0125,2.9364,2.8822,2.845,2.7866,2.7356,2.6916,2.67,2.6323,2.5941,2.5905,2.5758,2.561,2.561,2.5519,2.5335,2.516,2.4821,2.4481,0.0,0.0,0.0,0.0,0.0,0.0,0.0,2.4337,2.4667,2.5329,2.5689,2.6247,2.7157,2.8502,2.9401,0.0,0.0,0.0,0.0,0.0,0.0,0.0,0.0,0.0,0.0,0.0,0.0,3.274,3.2568,0.0,0.0,0.0,0.0,0.0,3.2692,3.3103,3.356,3.3652,3.3715,0.0,0.0,3.3866,0.0,0.0,0.0,0.0,0.0,3.3375,3.4116,3.4116,3.4212,3.4333,3.4347,3.3586,3.2588,3.2248,3.2357,3.2444,3.1935,3.1792,3.1619,3.1162,3.1604,3.1933,3.1124,3.2152,3.3379,3.3718,3.444,3.5257,3.5946,3.6721,3.7092,3.6783,3.8105,3.896,3.8321,3.969,4.055,4.013,4.042,4.0456,3.9943,3.8868,3.7997,3.7395,3.656,3.5505,3.4346,3.3152,3.2374,3.2053,3.1495,3.119,3.119,3.119,3.1123,3.0954,3.0378,3.0023,2.9837,2.9245,2.8653,2.8026,2.7838,2.7398,2.6825,2.6639,2.6382,2.6154,2.6154,2.5977,2.5762,2.5652,2.5175,2.4518,0.0,0.0,0.0,0.0,0.0,0.0,0.0,2.4814,2.5329,2.5403,2.6046,2.6838,2.765,2.8203,2.8799,0.0,0.0,0.0,0.0,0.0,0.0,0.0,0.0,0.0,0.0,0.0,0.0,3.2528,3.2507,0.0,0.0,0.0,0.0,0.0,0.0,3.3331,3.2757,3.3486,0.0,0.0,0.0,0.0,0.0,0.0,0.0,0.0,0.0,3.4466,3.4539,3.4539,3.4068,3.3526,3.3502,3.3658,3.3556,3.2074,3.2493,3.3214,3.2445,3.2236,3.2106,3.1664,3.236,3.2988,3.2434,3.3722,3.5048,3.5042,3.5913,3.6484,3.5875,3.6743,3.7463,3.7185,3.7905,3.8819,3.973,4.0051,4.0471,4.1253,4.1367,4.1235,4.0831,3.9687,3.8789,3.8333,3.7439,3.5879,3.3618,3.3372,3.2696,3.1326,3.1241,3.119,3.119,3.119,3.0869,3.0209,3.0142,2.9753,2.9076,2.9008,2.8941,2.8839,2.8129,2.7755,2.7637,2.6945,2.6657,2.6624,2.6624,2.6624,2.6539,2.6175,2.557,2.4989,0.0,0.0,0.0,0.0,0.0,0.0,2.419,2.4891,2.5407,2.5403,2.6093,2.6713,2.7043,2.7664,2.8361,2.9153,0.0,0.0,0.0,0.0,0.0,0.0,0.0,0.0,0.0,0.0,3.1712,3.2981,3.2391,0.0,0.0,0.0,0.0,0.0,0.0,3.3165,3.3331,3.3652,0.0,0.0,0.0,0.0,0.0,0.0,0.0,0.0,0.0,0.0,3.4593,3.4593,3.408,3.3386,3.2873,3.3502,3.4098,3.2433,3.2324,3.2703,3.2603,3.2606,3.259,3.2633,3.2597,3.265,3.2862,3.38,3.47,3.4906,3.6057,3.6985,3.6874,3.7253,3.7434,3.6826,3.7787,3.8818,3.9319,4.017,4.1085,4.189,4.2244,4.2217,4.1711,4.0631,3.9307,3.7836,3.737,3.6526,3.5018,3.468,3.4072,3.3203,3.2763,3.2307,3.185,3.185,3.1478,3.0768,3.0768,3.0598,3.0311,3.0311,3.0074,2.9634,2.933,2.867,2.7772,2.7503,2.7097,2.6691,2.6691,2.6691,2.6691,2.6505,2.6,2.5363,0.0,0.0,0.0,0.0,0.0,2.419,2.419,2.5094,2.5758,2.5752,2.6457,2.694,2.694,2.7463,2.8117,2.8925,2.8994,0.0,0.0,0.0,0.0,0.0,0.0,0.0,0.0,0.0,3.1972,3.3577,3.2863,3.2757,0.0,0.0,3.2283,3.2592,0.0,0.0,0.0,0.0,0.0,0.0,0.0,0.0,0.0,0.0,0.0,0.0,0.0,0.0,0.0,0.0,0.0,3.3356,3.2566,3.3095,3.3749,3.2285,3.2383,3.2877,3.2688,3.2791,3.3066,3.3406,3.3176,3.3069,3.3934,3.4549,3.5098,3.5616,3.6556,3.7266,3.7291,3.7274,3.7095,3.6594,3.7667,3.8743,3.9265,4.0489,4.1625,4.2436,4.2829,4.2849,4.2312,4.1089,3.955,3.7685,3.7614,3.7363,3.6595,3.6171,3.5491,3.4448,3.3649,3.3039,3.2611,3.2536,3.2162,3.1512,3.1669,3.155,3.119,3.119,3.092,3.0412,3.0192,2.9364,2.8146,2.7891,2.7385,2.6691,2.6691,2.6691,2.6691,2.6691,2.6234,2.5642,0.0,0.0,0.0,0.0,0.0,0.0,2.419,2.5571,2.6583,2.6594,2.7295,2.7793,2.7793,2.7795,2.812,2.8925,2.8994,0.0,0.0,0.0,0.0,0.0,0.0,0.0,0.0,0.0,3.2655,3.4173,3.4191,3.4036,3.3788,3.3788,3.335,3.261,0.0,0.0,0.0,0.0,0.0,0.0,0.0,0.0,0.0,0.0,0.0,0.0,0.0,0.0,0.0,0.0,0.0,0.0,0.0,3.2419,3.2238,3.1374,3.2754,3.4248,3.2643,3.2795,3.3485,3.3892,3.4285,3.4862,3.6006,3.6521,3.696,3.7719,3.7792,3.747,3.6736,3.6505,3.6504,3.6759,3.7476,3.8576,4.0166,4.1089,4.196,4.2977,4.3087,4.2902,4.2441,4.0901,3.9406,3.8189,3.8332,3.8314,3.7893,3.779,3.6684,3.4293,3.3343,3.3054,3.3389,3.3054,3.2676,3.2297,3.2715,3.2282,3.119,3.119,3.119,3.114,3.0429,2.9685,2.8943,2.8146,2.7385,2.6691,2.6691,2.6691,2.6691,2.6691,2.6234,2.571,0.0,0.0,0.0,0.0,0.0,0.0,0.0,2.5557,2.6593,2.6615,2.7779,2.8411,2.7848,2.8305,2.8721,2.898,2.8994,0.0,0.0,0.0,0.0,0.0,0.0,0.0,0.0,0.0,3.2074,3.3103,3.3652,3.3862,3.3807,3.3807,3.3652,3.3405,3.3405,3.3434,0.0,0.0,0.0,0.0,0.0,0.0,3.7494,0.0,0.0,0.0,0.0,0.0,0.0,0.0,0.0,0.0,0.0,0.0,0.0,3.2183,3.2436,3.3052,3.3099,3.3223,3.3563,3.4248,3.4081,3.4033,3.4939,3.5656,3.614,3.6309,3.7176,3.7646,3.6822,3.6728,3.6759,3.6841,3.733,3.8431,4.0643,4.0827,4.1272,4.2621,4.2158,4.1449,4.0758,4.0226,3.952,3.8569,3.8578,3.8578,3.8465,3.8332,3.7661,3.6277,3.5899,3.5521,3.5126,3.4414,3.3748,3.3115,3.2409,3.1881,3.1524,3.1351,3.1252,3.1157,3.0581,2.9797,2.896,2.8216,2.7453,2.6691,2.6691,2.6691,2.6691,2.6691,2.6539,2.6387,0.0,0.0,0.0,0.0,0.0,0.0,0.0,2.5318,2.6167,2.6155,2.7547,2.8223,2.7437,2.8338,2.9127,2.9448,2.9436,0.0,0.0,0.0,0.0,0.0,0.0,0.0,0.0,3.1605,3.2232,3.3066,3.3844,3.3944,3.335,3.335,3.335,3.3331,3.3048,3.3217,0.0,0.0,0.0,0.0,0.0,0.0,3.6236,0.0,0.0,0.0,0.0,0.0,0.0,0.0,0.0,0.0,0.0,0.0,0.0,0.0,3.2866,3.2855,3.299,3.3187,3.3592,3.4407,3.4009,3.3773,3.5186,3.5657,3.586,3.6082,3.7133,3.7693,3.6656,3.6739,3.7017,3.7204,3.7702,3.8726,4.0621,4.0871,4.1189,4.2119,4.1354,4.0559,4.0044,3.97,3.9283,3.8787,3.8719,3.8707,3.8707,3.8609,3.8204,3.7341,3.672,3.6236,3.5913,3.496,3.4164,3.3512,3.2967,3.2371,3.1823,3.164,3.1449,3.1291,3.0963,3.0145,0.0,2.8628,2.7811,2.6808,2.6792,2.6792,2.6775,2.6742,2.6691,2.6691,0.0,0.0,0.0,0.0,0.0,0.0,0.0,2.4873,2.5403,2.5403,2.6791,2.752,2.6763,2.8054,2.9352,3.0199,0.0,0.0,0.0,0.0,0.0,0.0,0.0,0.0,0.0,3.2539,3.297,3.3716,3.4448,3.4054,3.261,3.2537,3.2546,3.2564,3.181,3.2338,0.0,0.0,0.0,0.0,0.0,0.0,0.0,0.0,0.0,0.0,0.0,0.0,0.0,0.0,0.0,0.0,0.0,0.0,0.0,0.0,0.0,0.0,0.0,3.2832,3.3592,3.4407,3.4045,3.4081,3.6381,3.6381,0.0,3.6761,3.7492,3.7612,3.6266,3.6577,3.7179,3.7581,3.8359,3.9259,4.0207,4.0996,4.1479,4.1423,4.063,4.0108,4.0108,3.9305,3.8822,3.8792,3.875,3.8707,3.8707,3.8707,3.8358,3.7606,3.6263,3.5677,3.5917,3.4927,3.4175,3.3684,3.4067,3.3443,3.2074,3.2074,3.1841,3.1538,3.1435,3.0563,2.9194,2.9091,2.8237,2.6975,2.6926,2.6893,2.6893,2.6775,2.6725,2.6725,0.0,0.0,0.0,0.0,0.0,0.0,0.0,0.0,0.0,0.0,2.6796,2.7738,2.7538,2.8393,2.9559,0.0,0.0,0.0,0.0,0.0,0.0,0.0,0.0,0.0,0.0,3.1967,3.2703,3.2865,3.3067,3.2966,3.2592,3.1973,3.2004,3.2588,3.2405,3.2875,0.0,0.0,0.0,0.0,0.0,0.0,0.0,0.0,0.0,0.0,3.2101,3.1847,0.0,0.0,0.0,0.0,0.0,0.0,0.0,0.0,3.3633,3.355,3.3273,0.0,3.3662,3.4479,3.4492,3.4643,0.0,3.6399,3.6598,3.6164,3.7196,3.7551,3.563,3.5964,3.6482,3.6168,3.7336,3.8603,3.9424,4.0104,4.0314,3.9684,3.9357,3.9217,3.9217,3.9021,3.8851,3.8822,3.8792,3.8732,3.8707,3.8707,3.8615,3.8414,3.693,3.6085,3.6041,3.5745,3.5242,3.4516,3.3749,3.3198,3.2844,3.2619,3.2283,3.1808,3.0785,2.9902,2.9125,2.8031,2.7363,2.7007,2.6975,2.6992,2.6975,2.6942,2.6942,2.6942,0.0,0.0,0.0,0.0,0.0,0.0,0.0,0.0,0.0,0.0,0.0,0.0,0.0,0.0,0.0,0.0,0.0,0.0,0.0,0.0,0.0,0.0,0.0,0.0,3.1845,3.2698,3.2967,3.2604,3.2967,3.258,3.1488,3.1046,3.1275,3.2085,3.2831,0.0,0.0,0.0,0.0,0.0,3.3795,0.0,0.0,0.0,0.0,0.0,3.1364,3.1056,0.0,3.1137,3.0987,3.0931,0.0,0.0,0.0,0.0,3.3349,3.3364,3.3723,3.3671,3.3619,3.3996,3.4365,3.4715,3.5168,3.5874,3.6218,3.5421,3.6313,3.6857,3.5431,3.6239,3.7091,3.6958,3.7897,3.8786,3.9154,3.9825,3.9991,3.9156,3.8989,3.9007,3.9007,3.895,3.8773,3.8375,3.8327,3.8122,3.7695,3.7647,3.7482,3.7103,3.6589,3.6256,3.619,3.5381,3.4778,3.4329,3.3731,3.335,3.3202,3.3032,3.2731,3.2297,3.1069,3.0171,2.947,2.8197,2.7478,2.7122,2.7072,2.7055,2.7055,2.7007,2.7007,2.7007,0.0,0.0,0.0,0.0,0.0,0.0,0.0,0.0,0.0,0.0,0.0,0.0,0.0,0.0,0.0,0.0,0.0,0.0,0.0,0.0,0.0,0.0,0.0,3.2152,3.3413,3.356,3.3213,3.2419,3.2965,3.2187,3.0199,3.007,3.0517,3.1463,3.2959,3.3697,0.0,0.0,0.0,0.0,3.3506,0.0,0.0,0.0,0.0,0.0,0.0,0.0,0.0,3.0607,3.0528,3.0254,3.1117,0.0,0.0,0.0,0.0,0.0,3.3855,3.3828,3.3585,3.3615,3.4129,3.4643,3.4769,3.5331,3.5584,3.483,3.5476,3.6057,3.556,3.6764,3.7941,3.8297,3.8788,3.9178,3.9277,3.9807,3.9918,3.9194,3.9101,3.9101,3.9101,3.9064,3.8674,3.785,3.7766,3.7359,3.6546,3.6454,3.6085,3.5404,3.5882,3.6148,3.6148,3.4706,3.3917,3.3807,3.3807,3.3652,3.3379,3.3379,3.3184,3.2805,3.1664,3.0744,2.9976,2.8786,2.793,2.7345,2.7184,2.7135,2.7103,2.7072,2.7057,2.7057,0.0,0.0,0.0,0.0,0.0,0.0,0.0,0.0,0.0,0.0,0.0,0.0,0.0,0.0,0.0,0.0,0.0,0.0,0.0,0.0,0.0,0.0,3.2845,3.2208,3.1792,3.2437,3.2401,3.1583,3.1035,3.0567,3.018,2.9504,2.9972,3.1435,3.2391,3.3158,3.3807,0.0,0.0,0.0,3.3678,0.0,0.0,0.0,0.0,0.0,0.0,0.0,0.0,2.9436,2.9278,2.9392,3.0466,0.0,0.0,0.0,0.0,0.0,3.3328,3.3616,3.4034,3.4473,3.4648,3.483,3.5457,3.5729,3.5628,3.506,3.5622,3.6113,3.5797,3.6508,3.7234,3.7518,3.8083,3.8852,4.0049,3.9677,3.925,3.912,3.9101,3.9101,3.9101,3.9101,3.873,3.7877,3.7794,3.7415,3.6565,3.6482,3.6427,3.6297,3.5762,3.544,3.544,3.5037,3.4486,3.3807,3.3807,3.3762,3.3734,3.3734,3.3522,3.3141,3.1679,3.0805,3.0297,2.8534,2.7747,2.7612,2.7359,2.7282,2.7282,2.7267,2.725,2.725,0.0,0.0,0.0,0.0,0.0,0.0,0.0,0.0,0.0,0.0,0.0,0.0,0.0,0.0,0.0,0.0,0.0,0.0,0.0,0.0,0.0,3.3103,3.2738,3.2401,3.2055,3.1983,3.1556,3.0766,3.0391,2.9973,2.9559,3.007,3.0681,3.1447,3.2647,3.3405,3.3735,3.3716,3.367,3.3647,0.0,0.0,0.0,0.0,0.0,0.0,0.0,0.0,0.0,0.0,2.9169,2.9491,3.0039,0.0,0.0,0.0,0.0,0.0,3.3164,3.3505,3.3762,3.4388,3.4586,3.4619,3.4516,3.4842,3.5006,3.444,3.476,3.5254,3.5721,3.6506,3.7438,3.8388,3.9232,3.9814,3.9911,3.9898,3.9759,3.9248,3.8765,3.8618,3.9064,3.8302,3.7652,3.7246,3.6801,3.6189,3.5303,3.5221,3.5195,3.5195,3.4818,3.4607,3.4607,3.451,3.4255,3.3842,3.3842,3.386,3.3807,3.3807,3.3707,3.3459,3.1765,3.0893,3.0628,2.8724,2.7926,2.7897,2.763,2.7526,2.7496,2.7345,2.7299,2.7299,0.0,0.0,0.0,0.0,0.0,0.0,0.0,0.0,0.0,0.0,0.0,0.0,0.0,0.0,0.0,0.0,0.0,0.0,0.0,0.0,3.3131,3.2766,3.2418,3.2159,3.2041,3.1433,3.0729,2.9918,2.9918,2.9596,2.9012,3.0446,3.1199,3.1429,3.2817,3.3528,3.3686,3.3613,3.3595,3.3585,0.0,0.0,0.0,0.0,0.0,0.0,0.0,0.0,0.0,0.0,0.0,0.0,0.0,0.0,0.0,3.1138,3.1286,3.1436,3.2762,3.3091,3.312,3.3449,0.0,3.4363,3.3733,3.4225,3.4694,3.4352,3.46,3.5133,3.602,3.6917,3.792,3.9086,4.0056,4.0419,3.9602,4.0008,4.0023,3.9182,3.8398,3.8114,3.8542,3.7437,3.6612,3.6426,3.585,3.5107,3.4253,3.4148,3.4124,3.4124,3.4074,3.4049,3.4049,3.4049,3.3998,3.3921,3.3921,3.3895,3.3842,3.3658,3.3584,3.3448,3.1652,3.0836,3.0701,2.8963,2.821,2.8183,2.7829,2.7672,2.7569,2.7376,2.7299,2.7299,0.0,0.0,0.0,0.0,0.0,0.0,0.0,0.0,0.0,0.0,0.0,0.0,0.0,0.0,0.0,0.0,0.0,0.0,0.0,0.0,3.2737,3.3477,3.21,3.0983,3.0401,3.0309,2.9899,2.909,2.909,2.9072,2.9012,2.9882,3.0649,3.1343,3.2187,3.2962,3.3615,3.3611,3.3564,3.3513,3.3499,0.0,0.0,0.0,0.0,0.0,0.0,0.0,0.0,0.0,0.0,0.0,0.0,0.0,3.0255,3.1138,3.1397,3.1416,3.1603,3.1963,3.2109,3.1411,3.2795,3.4293,3.4173,3.476,3.5399,3.56,3.6269,3.6904,3.7215,3.8016,3.858,3.8561,3.926,3.9703,3.9526,3.9558,3.9295,3.8464,3.8197,3.7823,3.7125,3.6838,3.6389,3.5627,3.5516,3.5107,3.4253,3.4197,3.4197,3.4197,3.4197,3.4197,3.4197,3.4197,3.4124,3.3998,3.3998,3.3998,3.3979,3.3197,3.2865,3.2773,3.1144,3.042,3.0257,2.9113,2.8601,2.8525,2.7915,2.7539,2.7313,2.733,2.7299,2.7299,0.0,0.0,0.0,0.0,0.0,0.0,0.0,0.0,0.0,0.0,0.0,0.0,0.0,0.0,0.0,0.0,0.0,0.0,0.0,0.0,3.2397,3.278,3.1727,3.0792,3.0094,2.9641,2.9242,2.8938,2.8975,2.9271,2.9755,3.0537,3.1302,3.2061,3.2806,3.2998,3.2827,3.327,3.3169,3.2723,3.3241,3.2933,0.0,0.0,0.0,0.0,0.0,0.0,0.0,0.0,2.9644,2.9872,3.0022,3.0083,3.0075,2.9909,3.0228,3.0663,3.0682,3.1577,3.2431,3.2074,3.3031,3.394,3.3556,3.3687,3.413,3.4918,3.5694,3.6494,3.7255,3.7656,3.8054,3.8542,3.888,3.9069,3.9025,3.8916,3.8568,3.7721,3.7061,3.6766,3.6929,3.5936,3.5341,3.5546,3.5008,3.455,3.4216,3.4197,3.4197,3.4197,3.4197,3.4197,3.4197,3.4197,3.4173,3.4124,3.4074,3.4049,3.3961,3.3167,3.2798,3.2705,3.1099,3.0392,3.0296,2.9398,2.898,2.8934,2.8496,2.8156,2.7897,2.7771,2.7672,2.76,0.0,0.0,0.0,0.0,0.0,0.0,0.0,0.0,0.0,0.0,0.0,0.0,0.0,0.0,0.0,0.0,0.0,0.0,0.0,3.1391,3.1959,3.2259,3.175,3.1091,3.0323,2.9594,2.9082,2.8858,2.8905,2.9217,2.9761,3.0792,3.1428,3.1719,3.269,3.2653,3.1919,3.2426,3.2469,3.2252,3.2795,3.2687,0.0,0.0,0.0,0.0,0.0,0.0,0.0,0.0,2.9751,2.9972,3.0022,3.0068,2.9999,2.9436,2.9732,3.0204,3.0204,3.1045,3.1966,3.2165,0.0,3.317,3.3256,3.3473,3.3869,3.4576,3.5371,3.6264,3.7239,3.743,3.7619,3.8207,3.8529,3.8605,3.8319,3.8199,3.7853,3.6982,3.6293,3.5979,3.628,3.5195,3.4697,3.5236,3.4657,3.4269,3.4316,3.4245,3.4221,3.4269,3.4221,3.4197,3.4197,3.4197,3.4197,3.4197,3.4148,3.4099,3.4037,3.2982,3.2482,3.2408,3.0775,3.0072,3.0013,2.9462,2.9156,2.903,2.879,2.8554,2.8272,2.8075,2.7943,2.7847,0.0,0.0,0.0,0.0,0.0,0.0,0.0,0.0,0.0,0.0,0.0,0.0,0.0,0.0,0.0,0.0,0.0,0.0,2.9762,3.0548,3.135,3.2151,3.2187,3.1789,3.1027,3.0268,2.9512,2.8793,2.8791,2.8785,2.884,3.043,3.0713,2.998,3.1592,3.181,3.0985,3.0985,3.1455,3.218,3.218,3.218,3.2089,0.0,0.0,0.0,0.0,0.0,0.0,0.0,2.9734,2.9888,2.9888,2.9988,3.0102,3.0102,3.0128,3.0204,3.0185,3.0204,3.0395,3.1197,3.1446,3.1928,3.3519,3.4499,3.5056,3.502,3.5684,3.6539,3.7337,3.7489,3.7451,3.7411,3.8092,3.8357,3.7504,3.739,3.7087,3.6272,3.6079,3.5696,3.4864,3.4687,3.4602,3.4602,3.4473,3.4473,3.4583,3.434,3.4269,3.4404,3.4269,3.4197,3.4197,3.4197,3.4197,3.4179,3.4179,3.4179,3.4123,3.2525,3.1782,3.1689,3.0113,2.9365,2.9302,2.9302,2.9071,2.87,2.87,2.8535,2.8298,2.8075,2.801,2.7982,0.0,0.0,0.0,0.0,0.0,0.0,0.0,0.0,0.0,0.0,0.0,0.0,0.0,0.0,0.0,0.0,0.0,0.0,2.9762,3.0005,3.0505,3.1314,3.0821,3.0402,3.0177,2.9403,2.8909,2.8793,2.8785,2.9089,2.9646,3.0093,3.0448,3.0757,3.1184,3.0921,3.017,3.0749,3.0803,3.055,3.1129,3.1347,3.1256,0.0,0.0,0.0,0.0,0.0,0.0,0.0,0.0,0.0,3.0022,3.0072,2.9988,2.9422,2.9713,3.007,2.9459,3.0147,3.0968,3.0643,3.1465,3.231,3.2165,3.3236,3.4575,3.5685,3.5628,3.5628,3.6444,3.6064,3.5875,3.6443,3.6765,3.6841,3.6576,3.6557,3.6234,3.5382,3.5249,3.5135,3.4888,3.479,3.4747,3.4747,3.4623,3.4561,3.4602,3.4517,3.4495,3.4539,3.4495,3.4473,3.4473,3.4473,3.4151,3.35,3.35,3.3455,3.3324,3.2265,3.1485,3.0913,2.9853,2.9386,2.9365,2.9365,2.9304,2.9181,2.9181,2.9138,2.9052,2.8845,2.859,2.8324,0.0,0.0,0.0,0.0,0.0,0.0,0.0,0.0,0.0,0.0,0.0,0.0,0.0,0.0,0.0,0.0,0.0,0.0,0.0,0.0,3.0005,3.0504,3.0358,3.0134,2.9821,2.9018,2.8648,2.8721,2.8717,2.896,2.9442,2.9715,2.9958,3.0122,3.0396,3.0079,2.9355,2.9844,2.9952,2.9826,3.0314,3.0695,3.0894,0.0,0.0,0.0,0.0,0.0,0.0,0.0,0.0,0.0,3.0437,3.0354,3.0003,2.9518,2.9756,3.0089,2.9527,3.0133,3.0968,3.1159,3.1962,3.273,3.2867,3.3424,3.4268,3.5586,3.5453,3.534,3.6122,3.5856,3.5647,3.616,3.6236,3.6122,3.5799,3.5761,3.5552,3.5021,3.4945,3.4927,3.4889,3.485,3.483,3.483,3.4728,3.4687,3.471,3.4306,3.4266,3.4666,3.3984,3.3926,3.4583,3.3944,3.347,3.3237,3.2876,3.2515,3.2073,3.1545,3.1061,3.0559,2.976,2.9407,2.9407,2.9407,2.9407,2.9407,2.9407,2.9407,2.9386,2.9156,2.8957,2.8676,0.0,0.0,0.0,0.0,0.0,0.0,0.0,0.0,0.0,0.0,0.0,0.0,0.0,0.0,0.0,0.0,0.0,0.0,0.0,0.0,2.9682,2.9682,3.0385,3.0451,2.9725,2.8974,2.8587,2.8587,2.8587,2.8587,2.8605,2.9355,2.93,2.8623,2.9355,2.9282,2.8587,2.8587,2.9029,2.9681,2.9681,3.0152,3.0785,2.9989,0.0,0.0,0.0,0.0,0.0,0.0,0.0,0.0,3.1051,3.0753,3.0094,3.0117,3.0161,3.0204,3.0123,3.0214,3.0682,3.221,3.2711,3.3242,3.4846,3.4585,3.4244,3.504,3.5193,3.5422,3.6153,3.6269,3.6269,3.6196,3.6196,3.5949,3.5207,3.5092,3.5075,3.502,3.5001,3.4983,3.4927,3.4889,3.4908,3.4908,3.4849,3.483,3.4908,3.3919,3.3744,3.4676,3.3029,3.2857,3.4381,3.2895,3.2443,3.3081,3.2283,3.1456,3.0594,3.0602,3.0578,3.0466,2.9723,2.9351,2.9295,2.937,2.9314,2.9202,2.9351,2.9351,2.9275,2.916,2.913,2.8934,0.0,0.0,0.0,0.0,0.0,0.0,0.0,0.0,0.0,0.0,0.0,0.0,0.0,0.0,0.0,0.0,0.0,0.0,0.0,0.0,2.8873,2.8873,2.9025,2.9036,2.8866,2.8677,2.8587,2.8587,2.8587,2.8587,2.8587,2.8793,2.8775,2.8605,2.8793,2.8775,2.8587,2.8587,2.8721,2.8866,2.8866,2.9337,2.9952,2.9156,2.9246,0.0,0.0,0.0,0.0,0.0,0.0,0.0,3.1219,3.0753,3.0117,3.0157,3.019,3.0204,3.0171,3.0663,3.1236,3.1656,3.2745,3.3987,3.498,3.504,3.4983,3.516,3.5198,3.5238,3.5358,3.5377,3.5377,3.5359,3.5359,3.5302,3.5111,3.5092,3.5092,3.5075,3.502,3.5001,3.4983,3.4927,3.4908,3.4908,3.4889,3.4889,3.4908,3.4093,3.3715,3.3923,3.2901,3.2505,3.2864,3.2524,3.2052,3.1487,3.1299,3.0753,2.9926,3.0402,3.0262,2.9649,2.9481,2.9016,2.844,2.9128,2.8626,2.7585,2.8886,2.8979,2.8457,2.9105,2.924,2.9071,0.0,0.0,0.0,0.0,0.0,0.0,0.0,0.0,0.0,0.0,0.0,0.0,0.0,0.0,0.0,0.0,0.0,0.0,0.0,0.0,0.0,2.8587,2.8587,2.8587,2.8587,2.8587,2.8587,2.8587,2.8587,2.8587,2.8587,2.8587,2.8587,2.8587,2.8587,2.8587,2.8587,2.8587,2.8587,2.8587,2.8587,2.8866,2.9174,2.8775,2.8866,2.9225,2.9177,0.0,0.0,0.0,0.0,0.0,0.0,0.0,3.0157,3.0221,3.0226,3.0199,3.0234,3.0838,3.1656,3.2497,3.3685,3.4764,3.5111,3.5209,3.5193,3.5196,3.5196,3.5179,3.5143,3.5162,3.5162,3.5162,3.5162,3.5162,3.5162,3.5162,3.5145,3.5147,3.5129,3.5075,3.5057,3.5001,3.4794,3.4395,3.4339,3.415,3.3733,3.2937,3.2691,3.307,3.1857,3.1591,3.2387,3.161,3.1159,3.1087,3.0637,3.0169,2.9701,2.9959,2.9841,2.945,2.945,2.9189,2.8779,2.8835,2.837,2.7606,2.8051,2.8161,2.8142,2.8626,2.8713,2.8609,0.0,0.0,0.0,0.0,0.0,0.0,0.0,0.0,0.0,0.0,0.0,0.0,0.0,0.0,0.0,0.0,0.0,0.0,0.0,0.0,0.0,2.8587,2.8587,2.8587,2.8587,2.8587,2.8587,2.8587,2.8587,2.8587,2.8587,2.8587,2.8587,2.8587,2.8587,2.8587,2.8587,2.8587,2.8587,2.8587,2.8587,2.8587,2.8587,2.8587,2.8587,2.8637,2.891,2.9233,2.9651,3.0582,0.0,0.0,0.0,0.0,3.0199,3.0279,3.0254,3.0234,3.0297,3.104,3.2163,3.3849,3.487,3.5405,3.5281,3.527,3.527,3.527,3.5223,3.5209,3.5223,3.5226,3.5209,3.5223,3.5226,3.5209,3.5209,3.5209,3.5193,3.5198,3.52,3.5183,3.5129,3.5057,3.4754,3.4052,3.3826,3.3392,3.2672,3.1724,3.1516,3.2179,3.0684,3.057,3.1951,3.0589,3.0248,3.0985,3.0181,2.979,2.9738,2.9608,2.9531,2.9531,2.9531,2.9382,2.9064,2.854,2.8054,2.7624,2.714,2.7251,2.7735,2.7865,2.7901,2.7881,0.0,0.0,0.0,0.0,0.0,0.0,0.0,0.0,0.0,0.0,0.0,0.0,0.0,0.0,0.0,0.0,0.0,0.0,2.7551,0.0,0.0,2.8587,2.8587,2.8587,2.8587,2.8587,2.8587,2.8587,2.8587,2.8587,2.8587,2.8587,2.8587,2.8587,2.8587,2.8587,2.8587,2.8587,2.8587,2.8587,2.8536,2.8562,2.8587,2.8536,2.8562,2.8637,2.891,2.9584,3.0397,3.0769,3.1013,0.0,0.0,0.0,3.0152,3.0253,3.029,3.0314,3.0442,3.1612,3.3225,3.4944,3.5477,3.5566,3.5543,3.5562,3.5562,3.5562,3.5369,3.5239,3.5336,3.5266,3.5239,3.535,3.5285,3.5209,3.5209,3.5209,3.5209,3.5193,3.5198,3.52,3.52,3.5129,3.5037,3.485,3.4185,3.3711,3.3543,3.2046,3.125,3.1364,3.04,3.0002,3.0229,3.0002,2.9945,3.0059,2.9964,2.9872,2.9874,2.9789,2.9719,2.9664,2.9664,2.8857,2.7544,2.8126,2.7114,2.5311,2.6647,2.6726,2.6187,2.6879,2.7103,2.7046,0.0,0.0,0.0,0.0,0.0,0.0,0.0,0.0,0.0,0.0,0.0,0.0,0.0,0.0,0.0,2.595,2.6677,2.729,2.7667,2.7858,2.8039,2.819,2.8282,2.8396,2.8536,2.8587,2.8587,2.8587,2.8587,2.8587,0.0,2.8587,2.8587,2.8587,2.8587,2.8587,2.8587,2.8562,2.8543,2.8536,2.8484,2.8458,2.8484,2.851,2.8518,2.8543,2.8718,2.9228,2.9855,2.9956,3.0281,3.0624,3.0639,0.0,0.0,0.0,3.0302,3.0452,3.1061,3.2144,3.341,3.4574,3.5311,3.5688,3.5621,3.5591,3.5591,3.5591,3.5516,3.5419,3.5405,3.5336,3.5311,3.5281,3.5239,3.5209,3.5209,3.5209,3.5209,3.5209,3.5212,3.5196,3.5196,3.5181,3.4746,3.3739,3.3289,3.2665,3.1732,3.094,3.0525,3.0525,3.0165,2.994,2.9888,2.9888,2.9888,2.9888,2.9888,2.9888,2.9888,2.9874,2.9806,2.9718,2.9266,2.8664,2.793,2.7347,2.6462,2.5502,2.5721,2.582,2.5899,2.6238,2.6353,2.6432,0.0,0.0,0.0,0.0,0.0,0.0,0.0,0.0,0.0,0.0,0.0,0.0,0.0,0.0,0.0,0.0,2.6233,2.7009,2.7726,2.7584,2.7608,2.7895,2.7989,2.8174,2.8492,2.8562,2.8587,2.8587,2.8587,0.0,2.8587,2.8587,2.8587,2.8587,2.8587,2.8587,2.8562,2.851,2.8466,2.8484,2.8406,2.838,2.8406,2.8432,2.8458,2.8484,2.8562,2.8892,2.9272,2.9293,2.9644,3.0087,3.0087,3.0128,0.0,0.0,0.0,3.0616,3.1564,3.252,3.3446,3.4209,3.5123,3.582,3.571,3.5702,3.5702,3.5702,3.5702,3.5659,3.55,3.5445,3.5391,3.53,3.5258,3.5226,3.5209,3.5209,3.5209,3.5209,3.5209,3.5209,3.5209,3.5196,3.4568,3.3026,3.2692,3.1898,3.0468,3.0152,3.0022,3.0022,3.0007,2.9972,2.994,2.9905,2.9888,2.9888,2.9888,2.9888,2.9888,2.9888,2.9874,2.9805,2.92,2.8806,2.8504,2.7066,2.6329,2.6046,2.5137,2.5129,2.5643,2.5869,2.5764,2.5772,0.0,0.0,0.0,0.0,0.0,0.0,0.0,0.0,0.0,0.0,0.0,0.0,2.3971,2.4403,2.4593,2.4483,2.5559,2.6554,2.7392,2.7392,2.7542,2.7886,2.7897,0.0,2.8492,2.8492,2.8536,2.8587,0.0,0.0,2.8587,2.8518,2.851,2.851,2.851,2.851,2.8492,2.8432,2.8424,2.8398,2.8327,2.8353,2.838,2.8327,2.8353,2.8406,2.8484,2.8821,2.9209,2.9272,2.9608,3.0022,3.0087,3.0098,3.0118,0.0,0.0,0.0,3.1663,3.2625,3.3602,3.446,3.5338,3.5981,3.5977,3.5977,3.5977,3.5977,3.5977,3.5928,3.5708,3.5577,3.5483,3.5483,3.5379,3.5277,3.5209,3.5209,3.5209,3.5209,3.5209,3.5209,3.5209,3.5209,3.483,3.3884,3.3064,3.221,3.129,3.0506,3.0087,3.0087,3.0038,3.0007,2.9988,2.994,2.9888,2.9888,2.9888,2.9888,2.9888,2.9888,2.9888,2.9888,2.9851,2.9396,2.8638,2.7782,2.6929,2.6115,2.53,2.4922,2.4964,2.5774,2.5521,2.4992,0.0,0.0,0.0,0.0,0.0,0.0,0.0,0.0,0.0,0.0,0.0,0.0,0.0,2.3727,2.3675,2.3767,2.4428,2.5246,2.6162,2.6522,2.6809,2.7115,2.7224,2.75,2.8045,2.8083,2.8237,0.0,0.0,2.8458,2.8458,2.8432,2.8432,2.8432,2.8432,2.8432,2.8432,2.8353,2.8327,2.8327,2.8246,2.8264,2.8264,2.83,2.8327,2.8353,2.844,2.8803,2.9209,2.9272,2.9608,3.0022,3.0087,3.0098,3.0118,3.0253,3.0424,3.0653,3.1034,3.2235,3.3473,3.3793,3.4944,3.5997,3.6001,3.6004,3.6004,3.6004,3.6004,3.5938,3.5749,3.566,3.5574,3.5397,3.532,3.5277,3.5261,3.5226,3.5209,3.5209,3.5209,3.5209,3.5209,3.5209,3.4866,3.4028,3.3118,3.2225,3.142,3.0552,3.0113,3.0113,3.0064,3.0049,3.0053,3.0007,2.9956,2.9956,2.9956,2.994,2.9888,2.9888,2.9888,2.9888,2.9888,2.9434,2.8638,2.782,2.7323,2.6963,2.611,2.574,2.5674,2.5466,2.5139,2.4919,0.0,0.0,0.0,0.0,0.0,0.0,0.0,0.0,0.0,0.0,0.0,0.0,0.0,0.0,2.4191,2.4339,2.4414,2.4828,2.5732,2.6098,2.64,2.6691,2.6808,2.7147,2.7789,2.7829,0.0,0.0,0.0,0.0,0.0,2.8273,2.8201,2.8201,2.8063,2.8146,2.8353,2.8174,2.8091,2.8091,2.8053,2.8025,2.8053,2.8191,2.8291,2.8273,2.8432,2.8707,2.906,2.9166,2.9494,2.9891,2.994,3.0019,3.0118,3.0222,3.0359,3.0482,3.0582,3.1942,3.3301,3.2998,3.4472,3.5848,3.5269,3.5581,3.591,3.5607,3.5759,3.5909,3.5704,3.566,3.5596,3.5374,3.532,3.5343,3.5293,3.5261,3.5226,3.5209,3.5209,3.5209,3.5209,3.5209,3.4866,3.4063,3.3417,3.2581,3.1503,3.0882,3.0428,3.0109,3.0109,3.0113,3.0102,3.0072,3.0038,3.0038,3.0038,3.0007,2.994,2.994,2.9924,2.9888,2.9888,2.9585,2.9036,2.8237,2.7896,2.782,2.6982,2.647,2.6186,2.5939,2.5423,2.5026,0.0,0.0,0.0,0.0,0.0,0.0,0.0,0.0,0.0,0.0,0.0,0.0,0.0,0.0,0.0,2.6154,2.5494,2.5376,2.6118,2.6203,2.6329,2.6657,2.6691,2.7036,2.776,0.0,0.0,0.0,0.0,0.0,0.0,0.0,2.7789,2.776,2.7369,2.7612,2.8246,2.7847,2.7701,2.7701,2.7701,2.7683,2.773,2.8053,2.8182,2.8209,2.8362,2.8569,2.8724,2.8957,2.927,2.9608,2.9699,2.9888,3.0109,3.0171,3.0286,3.0398,0.0,0.0,0.0,3.2244,3.4027,3.5539,3.3844,3.4781,3.5728,3.4822,3.5318,3.5827,3.5649,3.5607,3.5562,3.5422,3.5412,3.5383,3.5308,3.5312,3.5277,3.5209,3.5229,3.5248,3.5248,3.5267,3.4942,3.412,3.4044,3.3318,3.1656,3.1522,3.1068,3.0128,3.0109,3.0113,3.0102,3.0102,3.0102,3.0102,3.0102,3.0053,3.0007,3.0007,2.9956,2.9888,2.9888,2.9888,2.9832,2.9055,2.8733,2.8657,2.7839,2.702,2.6375,2.7172,2.6432,2.5256,0.0,0.0,0.0,0.0,0.0,0.0,0.0,0.0,0.0,0.0,0.0,0.0,0.0,2.4921,2.5194,2.4643,2.4924,2.519,2.5408,2.5905,2.6239,2.6329,2.6329,2.6555,2.7004,0.0,0.0,0.0,0.0,0.0,0.0,0.0,0.0,0.0,2.7244,2.7307,2.7491,2.74,2.7338,2.7369,2.7612,2.7535,2.74,2.7996,2.8053,2.7964,2.8862,2.8961,2.8718,2.9411,2.9588,2.957,2.9839,2.9988,3.0098,3.0109,3.0222,3.0337,3.0386,0.0,0.0,0.0,0.0,0.0,3.5171,3.5431,3.5716,3.5441,3.5597,3.5721,3.562,3.5607,3.5562,3.5422,3.5412,3.5383,3.532,3.5308,3.5277,3.5209,3.5763,3.6146,3.6146,3.668,3.6661,3.5878,3.5229,3.4407,3.3356,3.2114,3.1045,3.0209,3.0123,3.0109,3.0176,3.0128,3.0094,3.0094,3.0094,3.0049,3.0007,3.0007,2.9956,2.9888,2.9888,2.9888,2.9869,2.9661,2.9566,2.9491,2.8692,2.8218,2.7896,2.691,2.628,2.5863,0.0,0.0,0.0,0.0,0.0,0.0,0.0,0.0,0.0,0.0,0.0,0.0,0.0,0.0,2.541,2.4957,2.5238,2.5522,2.5574,2.5919,2.6132,2.622,2.622,2.6364,2.6691,0.0,0.0,0.0,0.0,0.0,0.0,0.0,0.0,0.0,2.6842,2.6875,2.6989,2.6989,2.7085,2.7213,2.7258,2.7244,2.7244,2.763,2.7748,2.7783,2.8521,2.864,2.8554,2.9101,2.9333,2.9436,2.9734,2.994,3.0053,3.0098,3.0161,3.0235,3.0248,3.1353,3.2464,3.2474,0.0,0.0,3.4232,3.4609,3.5008,3.4613,3.4817,3.5155,3.5437,3.547,3.5451,3.536,3.5364,3.535,3.5304,3.5304,3.5273,3.5209,3.5971,3.6506,3.6509,3.7234,3.7368,3.6566,3.6337,3.5725,3.456,3.2535,3.1197,3.0758,3.0348,3.0157,3.0204,3.0157,3.0138,3.0138,3.0138,3.0113,3.0034,3.0038,3.0007,2.994,2.9905,2.9888,2.9888,2.9888,2.9888,2.9851,2.9377,2.8998,2.8582,2.7612,2.6797,2.6115,0.0,0.0,0.0,2.4873,2.3829,2.291,2.2906,0.0,0.0,0.0,0.0,0.0,0.0,0.0,0.0,0.0,2.5997,2.5944,2.6168,2.6079,2.6026,2.6168,2.6168,2.6293,2.659,0.0,0.0,0.0,0.0,0.0,0.0,0.0,0.0,0.0,0.0,2.6364,2.6624,2.6624,2.6825,2.7085,2.6858,2.6923,2.7149,2.7244,2.74,2.7612,2.7877,2.8106,2.8255,2.838,2.8731,2.9169,2.9474,2.9734,2.9956,3.0022,3.0083,3.0094,3.0094,3.0816,3.16,3.1703,3.2935,0.0,3.2484,3.3268,3.4071,3.3323,3.3793,3.4526,3.5177,3.5315,3.5335,3.5431,3.5358,3.5304,3.5293,3.5304,3.527,3.5209,3.6045,3.6635,3.6623,3.7464,3.7617,3.67,3.712,3.6776,3.5286,3.2974,3.1637,3.1503,3.0739,3.03,3.0204,3.0204,3.0204,3.0204,3.0204,3.0171,3.0109,3.0098,3.0072,3.0007,2.9956,2.9905,2.9905,2.9905,2.9924,2.9888,2.9888,2.9453,2.8809,2.8717,2.7676,2.6261,2.3079,0.0,0.0,2.4188,2.3473,2.2898,2.2882,2.2278,0.0,0.0,0.0,0.0,2.4297,2.4858,2.5417,2.5921,2.5392,2.5294,2.5937,2.5934,2.5934,2.597,2.597,2.6007,2.6063,2.6063,0.0,0.0,0.0,0.0,0.0,0.0,0.0,0.0,0.0,2.6187,2.6154,2.6154,2.6279,2.659,2.6939,2.6989,2.6858,2.7382,2.7321,2.7089,2.8541,2.8557,2.7886,2.8386,2.8621,2.879,2.9169,2.9436,2.9626,2.9734,2.9888,3.0038,3.0102,3.0767,3.1609,3.2307,3.2785,0.0,3.4389,3.4364,3.4268,3.4745,3.4976,3.5134,3.5277,3.5315,3.5526,3.6236,3.5764,3.5293,3.5312,3.5293,3.5277,3.5209,3.6528,3.7481,3.7464,3.8877,3.9145,3.7578,3.6356,3.5553,3.5229,3.4101,3.2879,3.1541,3.1331,3.0911,3.0204,3.0204,3.0204,3.0204,3.0204,3.0171,3.0109,3.0094,3.0098,3.0087,3.0072,3.0053,3.0072,3.0007,2.9956,2.9888,2.9888,2.9794,2.9569,2.8774,2.7838,2.6879,2.2845,2.3202,2.3441,2.3441,2.3133,2.2765,2.2408,2.2052,2.2049,2.275,2.4066,2.4773,2.4361,2.4985,2.5576,2.5848,2.5501,2.5435,2.5864,2.5844,2.5844,2.5897,2.5897,2.5897,2.5897,2.5897,2.5934,0.0,0.0,0.0,0.0,0.0,0.0,0.0,0.0,2.6115,2.6225,2.6225,2.6367,2.6624,2.6573,2.6556,2.659,2.6741,2.6708,2.6657,2.7609,2.7849,2.776,2.8047,2.835,2.8646,2.8837,2.9107,2.9377,2.9416,2.9551,2.968,2.9874,3.0241,3.0836,3.1802,3.2416,0.0,0.0,3.4029,3.4029,3.401,3.4355,3.4642,3.4642,3.5331,3.6039,3.6479,3.6195,3.6045,3.6446,3.6157,3.5889,3.5859,3.7366,3.8207,3.775,3.9279,3.9756,3.8457,3.7177,3.6279,3.5878,3.5057,3.4025,3.2783,3.2325,3.1694,3.0854,3.0854,3.0624,3.0204,3.0204,3.0171,3.0157,3.0109,3.0094,3.0098,3.0102,3.0102,3.0102,3.0053,2.994,2.9805,2.9872,2.9839,2.9696,2.9193,2.839,2.7457,2.2528,2.2655,2.2668,2.2668,2.2668,2.2458,2.1864,2.19,2.2236,2.2899,2.4161,2.4963,2.4781,2.5216,2.557,2.5717,2.5422,2.5314,2.5567,2.5476,2.5476,2.5584,2.5605,2.5605,2.5605,2.5605,2.5605,0.0,0.0,0.0,0.0,0.0,0.0,2.5897,2.5897,2.6046,2.6279,2.6279,2.6419,2.6607,2.6082,2.6082,2.6453,2.6118,2.6154,2.6383,2.6454,2.6937,2.7595,2.7654,2.7992,2.8446,2.8522,2.879,2.9082,2.9104,2.9193,2.9338,2.9533,2.9644,2.9956,3.0997,3.1686,3.2248,0.0,0.0,0.0,3.3264,3.3742,3.4235,3.4235,3.5343,3.6317,3.6489,3.6509,3.6795,3.7596,3.7288,3.6905,3.6757,3.7842,3.8435,3.798,3.9221,3.9833,3.9298,3.8132,3.7254,3.6757,3.5763,3.4827,3.4025,3.3318,3.2573,3.1752,3.158,3.114,3.0452,3.028,3.0204,3.0204,3.0138,3.0123,3.0109,3.0113,3.0102,3.0053,3.0038,2.9888,2.9681,2.9822,2.9734,2.9551,2.9513,2.8835,2.7835,2.1725,2.1842,0.0,2.186,2.1877,2.188,2.1727,2.2274,2.2916,2.3522,2.4865,2.5484,2.4723,2.4381,2.4445,2.4973,2.41,2.3785,2.442,2.4467,2.4467,2.4467,2.4467,2.4467,2.4467,2.4467,2.4517,2.4552,0.0,0.0,0.0,0.0,0.0,2.5897,2.5897,2.5881,2.5775,2.5775,2.5791,2.5749,2.5675,2.6082,2.6708,2.6453,2.6314,2.633,2.6383,2.6691,2.7112,2.7422,2.7648,2.7858,2.821,2.8482,2.8676,2.8748,2.8975,2.923,2.9251,2.9316,2.9584,3.0466,3.0359,3.0634,3.2883,0.0,3.3165,3.4628,0.0,3.5064,3.5059,0.0,0.0,3.646,3.6525,3.6795,3.7668,3.832,3.8419,3.7655,3.7101,3.7349,3.8725,3.903,3.9431,4.01,3.798,3.691,3.7521,3.6069,3.4827,3.4025,3.3891,3.3433,3.2558,3.1866,3.1446,3.1331,3.0567,3.0204,3.0204,3.0185,3.0185,3.0185,3.0204,3.0098,2.9924,2.9853,2.9715,2.9533,2.9681,2.957,2.9314,2.9141,2.8533,2.7769,2.1609,2.164,0.0,2.1648,2.1982,2.2116,2.1704,2.2573,2.321,2.3047,2.4593,2.5324,2.4303,2.4408,2.4524,2.4446,2.401,2.3799,2.4048,2.4063,2.4063,2.4063,2.4063,2.4063,2.4063,2.4063,2.4105,2.4214,2.4436,0.0,0.0,0.0,0.0,2.5712,2.5712,2.594,2.6259,2.5837,2.5977,2.6412,2.5816,2.5937,2.635,2.6046,2.5937,2.5957,2.5977,2.6297,2.6691,2.6807,2.7175,2.7619,2.7765,2.812,2.843,2.8456,2.8601,2.8755,2.8883,2.8979,2.9185,2.9667,3.0035,3.0546,3.1616,3.2033,3.2411,3.3128,0.0,0.0,0.0,0.0,0.0,0.0,3.671,3.7375,3.836,3.836,3.8304,3.8438,3.861,3.8782,3.8973,3.9011,3.867,3.7909,3.8251,3.7985,3.6825,3.7034,3.6862,3.6165,3.5687,3.5037,3.4159,3.286,3.1962,3.1484,3.0498,3.0019,3.0019,3.0019,3.0019,3.0019,3.0019,2.9988,2.9888,2.9751,2.9551,2.9336,2.9395,2.9295,2.9123,2.903,2.8686,2.8179,2.1822,0.0,2.1888,2.1853,2.2411,2.28,2.2476,2.3225,2.3728,2.3403,2.4664,2.5293,2.4461,2.454,2.4502,2.4147,2.3852,2.3638,2.3537,2.3537,2.3537,2.3537,2.3537,2.3537,2.3537,2.3537,2.3595,2.3681,0.0,0.0,0.0,0.0,0.0,0.0,2.5262,2.5644,2.6205,2.5844,2.6144,2.6737,2.6195,2.6037,2.602,2.5686,2.5546,2.5513,2.5551,2.5811,2.6173,2.6297,2.674,2.722,2.7313,2.7601,2.7915,2.7943,2.8,2.8093,2.8376,2.8554,2.8682,2.8915,2.9576,3.0225,3.0488,3.1036,3.1605,3.1846,3.2371,0.0,0.0,0.0,3.4808,3.5244,0.0,3.7239,3.8023,3.8156,3.8461,3.9147,3.9737,3.9735,3.886,3.8993,3.8458,3.6816,3.8196,3.8291,3.6457,3.733,3.7811,3.7603,3.6803,3.6079,3.545,3.3722,3.2469,3.1651,3.0627,3.003,2.9822,2.9822,2.9822,2.9822,2.9822,2.9787,2.9716,2.9589,2.9375,2.9141,2.9123,2.9034,2.8943,2.8915,2.8767,2.8515,2.2361,2.2476,2.2556,2.2459,2.3128,2.3831,2.4411,2.447,2.4709,2.5422,2.5567,2.5616,2.5546,2.4695,2.4105,2.412,2.3216,2.2646,2.2646,2.2646,2.2646,2.2646,2.2646,2.2646,2.2646,2.2646,2.2646,2.2646,2.3054,0.0,0.0,0.0,0.0,0.0,2.443,2.4679,2.5084,2.5733,2.6034,2.6097,2.672,2.6562,2.5964,2.558,2.5246,2.5045,2.524,2.5355,2.5513,2.6016,2.6315,2.6505,2.6807,2.692,2.6952,2.7017,2.7095,2.7234,2.7695,2.7886,2.801,2.8335,2.8651,2.9075,2.9947,3.0346,3.0807,3.1712,3.1918,3.1939,3.1946,3.2044,3.2364,3.317,3.4733,0.0,0.0,3.793,3.9548,3.9854,3.9675,3.9169,3.8324,3.8982,3.9132,3.8286,3.7516,3.7065,3.699,3.6472,3.6538,3.7275,3.6519,3.6102,3.6064,3.422,3.2895,3.2068,3.1185,3.0359,2.9608,2.9608,2.9608,2.9608,2.9608,2.9513,2.9314,2.9314,2.9185,2.9017,2.8929,2.8881,2.881,2.8718,2.8644,2.8587,2.1997,2.2739,2.3291,2.3171,2.3742,2.4278,2.4486,2.4145,2.3955,2.4312,2.4712,2.4728,2.4074,2.3694,2.3363,2.3024,2.2678,2.2417,2.2324,2.2324,2.2324,2.2324,2.2324,2.2324,2.2324,2.2324,2.237,2.2463,2.2586,0.0,0.0,0.0,0.0,0.0,2.4389,2.4873,2.5677,2.5898,2.6386,2.6965,2.656,2.6036,2.5465,2.5226,2.5068,2.5005,2.51,2.5201,2.5355,2.553,2.5905,2.6298,2.6386,2.6657,2.6888,2.6937,2.6952,2.7,2.7224,2.733,2.7465,2.7886,2.8093,2.8335,2.8869,2.9075,2.9418,3.0271,3.0485,3.0699,3.1262,3.1379,3.1568,3.2057,3.3538,3.4689,0.0,3.6975,3.8469,3.8571,3.9114,3.9164,3.83,3.8507,3.8064,3.6509,3.6634,3.6541,3.5962,3.6801,3.7502,3.7947,3.7646,3.7231,3.6685,3.498,3.3698,3.2893,3.1341,3.0456,3.0176,2.9638,2.9415,2.9415,2.9415,2.9375,2.9293,2.916,2.9067,2.8994,2.8994,2.8929,2.8858,2.8743,2.8662,2.8562,2.2149,2.3117,2.3864,2.3626,2.4221,2.4777,2.4687,2.4317,2.4042,2.413,2.4422,2.4348,2.3721,2.3333,2.3009,2.2678,2.2449,2.2278,2.2231,2.2184,2.2184,2.2184,2.2184,2.2184,2.2184,2.2184,2.2231,2.2324,2.2324,2.2495,0.0,0.0,0.0,0.0,2.3933,2.446,2.5274,2.5873,2.6513,2.7063,2.6461,2.5963,2.5548,2.4979,2.4831,2.495,2.4886,2.4926,2.5084,2.5162,2.5513,2.5888,2.5888,2.6139,2.6437,2.6471,2.6454,2.6539,2.674,2.6822,2.6967,2.7409,2.756,2.7736,2.8101,2.847,2.8802,2.9179,2.9529,2.9835,3.0106,3.0448,3.0826,3.1336,3.2783,3.4138,0.0,3.6088,3.6971,3.7294,3.8459,3.8883,3.8018,3.8249,3.7556,3.5425,3.6073,3.6184,3.5295,3.6679,3.7683,3.8141,3.8116,3.7704,3.6906,3.5416,3.412,3.3045,3.1825,3.1085,3.0812,3.0276,2.9887,2.961,2.961,2.9462,2.9185,2.9044,2.8994,2.8994,2.8994,2.8952,2.8905,2.8791,2.8644,2.8422,2.2757,2.36,2.4203,2.3811,2.453,2.5146,2.4997,2.491,2.4879,2.491,2.4583,2.4307,2.4307,2.3492,2.2995,2.3038,2.254,2.2184,2.2184,2.2184,2.2184,2.2184,2.2184,2.2184,2.2184,2.2184,2.2184,2.2184,2.2184,2.2184,0.0,0.0,0.0,0.0,2.3127,2.3494,2.3915,2.5617,2.6364,2.638,2.638,2.6409,2.6224,2.4825,2.4533,2.4863,2.4655,2.4589,2.463,2.4886,2.5123,2.5294,2.5294,2.5464,2.56,2.568,2.5701,2.5811,2.6243,2.6383,2.647,2.6855,2.7014,2.7172,2.7654,2.8394,2.8905,2.8443,2.9026,2.9368,2.8637,2.9228,3.0111,3.0893,3.242,3.4126,3.5736,3.5345,3.5209,3.6083,3.7569,3.8248,3.7551,3.812,3.7569,3.5229,3.5789,3.5862,3.4972,3.6065,3.7058,3.7792,3.7848,3.7503,3.6694,3.5597,3.4238,3.2669,3.2632,3.221,3.1458,3.1403,3.0962,3.021,3.021,2.9751,2.8994,2.8994,2.8994,2.8994,2.8994,2.8929,2.8863,2.8863,2.8583,2.8183,2.2359,2.2937,2.3641,2.4173,2.4071,2.4098,2.474,2.3994,2.3412,2.3563,2.3508,2.3275,2.2815,2.2572,2.2388,2.2449,2.2278,2.2184,2.2184,2.2184,2.2184,2.2184,2.1793,2.1616,2.1616,2.1616,2.1616,2.1616,2.1996,2.2184,2.2184,0.0,0.0,0.0,2.3127,2.3494,2.3885,2.5096,2.5903,2.638,2.6349,2.6202,2.5884,2.4751,2.4533,2.4863,2.4492,2.4467,2.4589,2.467,2.4966,2.5294,2.5294,2.5464,2.5616,2.5637,2.5637,2.5659,2.5848,2.5885,2.6013,2.6488,2.6657,2.679,2.7258,2.7552,2.7822,2.794,2.8159,2.8388,2.8476,2.8699,2.9148,2.9979,3.1547,3.3002,3.4022,3.4553,3.4702,3.4403,3.5264,3.6318,3.7386,3.656,3.5954,3.5973,3.5587,3.4981,3.4156,3.6131,3.7127,3.6711,3.7282,3.7237,3.6426,3.6093,3.5128,3.3476,3.2908,3.2504,3.2284,3.1659,3.0962,3.021,3.021,2.9751,2.8994,2.8994,2.8994,2.8994,2.8767,2.8533,2.8316,2.836,2.8264,2.7986,2.2578,2.2772,2.3183,2.4024,2.354,2.3351,2.4043,2.3618,2.3245,2.3216,2.3172,2.2994,2.248,2.231,2.2184,2.2184,2.2184,2.2184,2.2184,2.2184,2.2091,2.1841,2.1568,2.1277,2.1068,2.1264,2.1423,2.1423,2.1949,2.2184,2.2184,0.0,0.0,0.0,2.2799,2.3172,2.3495,2.5072,2.6164,2.6795,2.6457,2.6236,0.0,2.4755,2.4451,2.4614,2.4385,2.4385,2.4467,2.4467,2.471,2.5005,2.5005,2.5162,2.5333,2.5448,2.5448,2.5486,2.5621,2.5659,2.5754,2.6068,2.6158,2.6264,2.6791,2.7211,2.7478,2.7513,2.7887,2.8112,2.7996,2.8294,2.8938,3.0118,3.144,3.2486,3.2965,3.3427,3.3659,3.3481,3.3826,3.4725,3.6208,3.521,3.4835,3.5679,3.5265,3.4789,3.4357,3.6009,3.6578,3.5771,3.6872,3.6927,3.5752,3.6101,3.5459,3.3788,3.3348,3.3128,3.3109,3.2284,3.1494,3.0705,3.0356,2.9751,2.8994,2.8994,2.8929,2.881,2.8507,2.8228,2.7992,2.7908,2.7823,2.7613,2.3322,2.2975,2.2893,2.364,2.3152,2.2754,2.3083,2.3392,2.348,2.3172,2.3142,2.2994,2.2603,2.231,2.2137,2.2091,2.2091,2.2137,2.2137,2.2137,2.1949,2.152,2.1361,2.1068,2.061,2.097,2.1256,2.1434,2.1787,2.2072,0.0,0.0,0.0,2.1746,2.2388,2.2754,2.3097,2.5379,2.6641,2.7088,2.6549,2.6303,2.6103,2.4795,2.4302,2.4302,2.4302,2.4302,2.4302,2.4302,2.4426,2.4589,2.4589,2.4791,2.5045,2.5256,2.5294,2.5333,2.554,2.5616,2.56,2.5663,2.5701,2.5832,2.6333,2.6992,2.7418,2.719,2.7762,2.8068,2.7425,2.8018,2.9054,3.0464,3.1494,3.2124,3.2086,3.2174,3.2323,3.254,3.2552,0.0,3.4178,3.3909,3.4064,3.5082,3.5155,3.5119,3.5009,3.5936,3.6009,3.5027,3.6413,3.6468,3.5009,3.5752,3.5349,3.3807,3.3807,3.3807,3.377,3.3091,3.232,3.1513,3.0766,2.9972,2.924,2.9106,2.8809,2.8456,2.8156,2.8007,2.7895,2.7596,2.749,2.7338,2.4545,2.3357,2.2677,2.3851,2.3039,2.231,2.2356,2.2449,2.2449,2.2402,2.2402,2.2263,2.1983,2.1902,2.1793,2.1568,2.1568,2.1616,2.1841,2.1841,2.1949,2.2044,2.1202,2.0709,2.061,2.0258,2.054,2.147,2.1096,2.1444,0.0,0.0,2.152,2.152,2.2095,2.2725,2.3451,2.5499,2.6103,2.5718,2.6195,2.6026,2.5426,2.461,2.4302,2.4302,2.4302,2.4302,2.4302,2.4302,2.4426,2.4589,2.4589,2.4791,2.5045,2.5256,2.5294,2.5333,2.554,2.5616,2.56,2.5663,2.5701,2.5775,2.603,2.6217,2.641,2.6725,2.6927,2.706,2.7258,2.8018,2.8673,2.8984,3.0254,3.1038,3.0407,3.0964,3.1009,2.9857,2.9715,3.0059,3.0932,3.2073,3.3661,3.5899,3.6064,3.5771,3.5027,3.645,3.6597,3.5045,3.5265,3.5284,3.499,3.5137,3.4761,3.3807,3.3807,3.3807,3.3807,3.3642,3.3146,3.2368,3.1947,3.1311,3.0504,2.9611,2.8699,2.7858,2.78,2.7919,2.8111,2.8029,2.7929,2.7674,2.4011,2.328,2.2746,2.309,2.2845,2.255,2.2226,2.2184,2.2184,2.2184,2.2217,2.2156,2.1841,2.1664,2.1568,2.1423,2.1423,2.1471,2.1568,2.1616,2.1458,2.1153,2.0673,2.022,1.9798,1.9708,2.0143,2.1015,2.0875,2.1268,2.2235,2.1745,2.1462,2.1423,2.1921,2.2698,2.3761,2.5258,2.5879,2.5903,2.6257,2.5964,2.5241,2.4564,2.4302,2.4302,2.4302,2.4302,2.4302,2.4302,2.4261,2.4219,2.4385,2.4426,2.4426,2.463,2.467,2.4695,2.4791,2.4831,2.4871,2.4974,2.5153,2.5346,2.5513,2.5701,2.5921,2.6279,2.6349,2.6418,2.6691,2.7743,2.8424,2.8032,2.9349,3.0103,2.9385,2.9678,2.9782,2.9253,2.8882,2.9187,3.0631,3.1058,3.2133,3.4225,3.4981,3.5009,3.416,3.5868,3.6101,3.4431,3.477,3.4789,3.4394,3.477,3.4614,3.3807,3.3606,3.3522,3.3504,3.2944,3.2459,3.205,3.1474,3.0991,3.055,2.9473,2.8735,2.8215,2.7696,2.7535,2.7588,2.769,2.7649,2.7375,2.349,2.3231,2.2943,2.2418,2.2566,2.2636,2.2113,2.1932,2.1937,2.2109,2.2044,2.1923,2.1636,2.1349,2.1191,2.1264,2.1229,2.1277,2.1326,2.1326,2.1019,2.0372,2.022,1.9811,1.9146,1.9408,1.9913,2.0705,2.0733,2.1132,2.1839,2.1592,2.1446,2.1423,2.1931,2.2715,2.3721,2.4882,2.5573,2.597,2.6104,2.5733,2.5041,2.4502,2.4302,2.4302,2.4302,2.4302,2.4287,2.4148,2.3971,2.3839,2.4094,2.3952,2.3739,2.3952,2.3979,2.3979,2.4036,2.4063,2.412,2.4219,2.4533,2.4799,2.4918,2.5192,2.5492,2.5805,2.5929,2.5982,2.611,2.7027,2.7663,2.7474,2.8323,2.8865,2.836,2.8336,2.8437,2.8488,2.8305,2.8749,3.0244,3.0221,3.06,3.1753,3.3234,3.3833,3.322,3.4836,3.5111,3.3633,3.4381,3.4491,3.3852,3.4308,3.4217,3.3578,3.3302,3.3184,3.3166,3.2263,3.1872,3.1836,3.112,3.0654,3.038,2.9372,2.8858,2.86,2.7572,2.7175,2.7199,2.7456,2.735,2.7019,2.439,2.3668,2.3035,2.2734,2.2256,2.1815,2.152,2.1056,2.1,2.1724,2.1444,2.1134,2.1077,2.0615,2.0412,2.0759,2.0749,2.0848,2.1033,2.1033,2.0934,2.0759,2.0295,1.985,1.9565,1.9344,1.984,2.1041,2.0527,2.0901,2.2031,2.14,2.1207,2.145,2.2346,2.2791,2.2986,2.463,2.501,2.4566,2.5177,2.501,2.4394,2.4333,2.4302,2.4302,2.4302,2.4302,2.421,2.3594,2.359,2.3797,2.3839,2.3625,2.3407,2.361,2.3638,2.3681,2.3879,2.4021,2.412,2.412,2.4245,2.4369,2.4446,2.4511,2.4723,2.5404,2.5628,2.5768,2.5891,2.556,2.5767,2.7348,2.7001,2.6663,2.6928,2.7049,2.6733,2.5707,2.6869,2.7698,2.7507,2.9124,2.9941,2.9394,3.1478,3.2752,3.2759,3.3648,3.3752,3.2925,3.3677,3.4056,3.3967,3.3337,3.2961,3.289,3.2858,3.2827,3.2827,3.2723,3.2688,3.2656,3.2276,3.1585,3.0612,2.9782,2.904,2.8349,2.7263,2.7216,2.7737,2.7964,2.7602,2.7011,2.3482,2.3013,2.2448,2.1779,2.1643,2.1322,2.0506,2.0207,2.0139,2.0278,2.0116,1.997,1.9967,1.9972,2.0035,2.0126,2.0502,2.0749,2.0799,2.0799,2.0686,2.0472,2.0003,1.9656,1.9344,1.9331,1.9691,2.0437,2.0382,2.081,2.1661,2.1287,2.1438,2.2043,2.241,2.2998,2.3745,2.4431,2.4666,2.4627,2.4909,2.4732,2.4302,2.4302,2.4302,2.4302,2.4302,2.404,2.3615,2.3178,2.2968,2.2852,2.2727,2.2304,2.1885,2.197,2.1955,2.1955,2.197,2.2291,2.2642,2.2814,2.3368,2.3909,2.3921,2.4131,2.4431,2.4746,2.5217,2.5722,2.6186,2.6157,2.6141,2.6408,2.6259,2.5966,2.571,2.5731,2.558,2.5137,2.5745,2.633,2.6578,2.815,2.9006,2.8565,3.1699,3.3195,3.2283,3.3721,3.439,3.4052,3.3532,3.3526,3.3993,3.3205,3.2795,3.2795,3.2586,3.2504,3.2504,3.23,3.2197,3.2197,3.2055,3.1756,3.1248,2.9831,2.9092,2.8664,2.7165,2.6637,2.6809,2.7418,2.7397,2.7038,2.2606,2.2446,2.2078,2.0959,2.0941,2.0718,1.9615,1.9452,1.9331,1.9154,1.9124,1.9213,1.9436,1.9659,1.9865,2.0035,2.0463,2.0699,2.0699,2.0699,2.0549,2.0169,1.9862,1.9552,1.9239,1.9384,1.9643,2.0055,2.0371,2.0901,2.1603,2.1655,2.197,2.241,2.2522,2.3018,2.3744,2.3992,2.4254,2.4477,2.4609,2.4506,2.4302,2.4302,2.4302,2.4271,2.4087,2.3702,2.32,2.251,2.2039,2.1736,2.1724,2.1315,2.0864,2.0864,2.0864,2.0864,2.0684,2.1012,2.147,2.1845,2.2527,2.317,2.3348,2.3653,2.397,2.4249,2.4872,2.5526,2.603,2.6212,2.6207,2.5874,2.561,2.5357,2.5039,2.4829,2.4688,2.4592,2.514,2.5575,2.5743,2.7214,2.8052,2.7699,3.0774,3.2094,3.0834,3.3,3.4074,3.36,3.3089,3.307,3.3635,3.2892,3.2519,3.2519,3.2283,3.2144,3.2144,3.1893,3.18,3.18,3.18,3.1746,3.1531,3.0046,2.9319,2.8966,2.7197,2.6458,2.6472,2.6999,2.7063,2.6957,2.2018,2.218,2.1916,2.0475,2.0227,1.9934,1.9035,1.8812,1.8723,1.8694,1.8694,1.8967,1.9716,1.9799,2.0035,2.0646,2.0699,2.0699,2.0699,2.0699,2.0485,2.0042,1.9991,1.9734,1.9239,1.9448,1.9772,2.0182,2.0472,2.1095,2.1995,2.2618,2.2679,2.2423,2.2877,2.281,2.2355,2.3311,2.3692,2.3728,2.4139,2.4317,2.4302,2.4302,2.4302,2.421,2.3548,2.3302,2.3047,2.1364,2.0662,2.0552,2.1133,2.1056,2.0822,2.0822,2.0864,2.0822,2.0557,2.0641,2.0953,2.1643,2.1903,2.2178,2.2743,2.2888,2.3122,2.3946,2.4575,2.5077,2.5191,2.5221,2.5411,2.5925,2.5001,2.4447,2.5114,2.4575,2.3979,2.3638,2.5134,2.5726,2.4549,2.6259,2.717,2.655,2.7906,2.8549,2.8065,3.0891,3.1866,3.0495,3.1974,3.2823,3.2784,3.2142,3.18,3.18,3.18,3.18,3.18,3.18,3.18,3.18,3.18,3.1634,3.1244,3.0496,2.9854,2.9145,2.747,2.7025,2.7336,2.6879,2.6691,2.6691,2.1352,2.0625,1.9827,1.9159,1.8906,1.8605,1.8198,1.8111,1.8344,1.9072,1.9531,2.0057,2.074,2.0201,1.9878,2.0061,2.0476,2.0699,2.0699,2.0699,2.0649,2.0485,2.0156,2.0003,2.0016,2.0258,2.0459,2.061,2.097,2.1305,2.1592,2.2022,2.2362,2.2647,2.2981,2.2964,2.2605,2.3387,2.3601,2.3451,2.3829,2.4094,2.4302,2.4302,2.4302,2.4271,2.4071,2.3394,2.2455,2.1534,2.0669,2.0004,2.0019,1.9633,1.9239,1.9239,1.9333,1.9412,1.9358,1.9738,2.0373,2.1064,2.1613,2.2164,2.2743,2.2888,2.3207,2.436,2.4752,2.5159,2.6097,2.5643,2.5286,2.5893,2.4619,2.3822,2.4432,2.3644,2.2995,2.2965,2.3141,2.3304,2.3363,2.4882,2.5786,2.5743,2.8553,2.9769,2.8669,3.0312,3.1335,3.1426,3.1764,3.2252,3.2784,3.2142,3.18,3.18,3.18,3.18,3.1783,3.1282,3.119,3.1432,3.0919,3.053,3.0191,2.9015,2.8168,2.7519,2.6599,2.6259,2.6277,2.6608,2.6898,2.7118,2.0713,1.974,1.8773,1.8398,1.8218,1.8021,1.7842,1.7948,1.8365,1.9194,2.003,2.0571,2.0756,2.0708,2.0582,2.0404,2.0735,2.0898,2.0699,2.0699,2.0699,2.0699,2.0435,2.0308,2.0472,2.066,2.0809,2.1006,2.1591,2.1909,2.1909,2.2207,2.2471,2.2719,2.2787,2.2775,2.2588,2.3173,2.3403,2.3538,2.3839,2.4135,2.4302,2.4302,2.4302,2.4271,2.401,2.3225,2.2164,2.1413,2.0565,1.9752,1.9398,1.904,1.8736,1.8851,1.8927,1.8941,1.8889,1.9238,1.9821,2.0785,2.1307,2.1859,2.27,2.2888,2.3192,2.4268,2.4471,2.4733,2.5546,2.5127,2.4659,2.4572,2.364,2.3005,2.3224,2.2615,2.2221,2.23,2.2021,2.2021,2.2466,2.3367,2.3985,2.4193,2.6825,2.8078,2.7273,2.974,3.1004,3.0716,3.078,3.1189,3.2049,3.1271,3.1039,3.1386,3.1386,3.1332,3.1188,3.1016,3.0793,3.0566,3.0116,2.9683,2.927,2.8152,2.7357,2.6679,2.6129,2.6088,2.6295,2.6055,2.6474,2.7054,2.0094,1.9416,1.8668,1.8201,1.8122,1.8097,1.7923,1.8266,1.8683,1.9159,2.0233,2.0715,2.0092,2.134,2.1988,2.15,2.1444,2.1229,2.0749,2.0749,2.0749,2.0749,2.0749,2.0736,2.066,2.066,2.0908,2.1423,2.2254,2.2614,2.2649,2.2899,2.291,2.2636,2.2442,2.2297,2.2267,2.274,2.3246,2.3797,2.4177,2.4302,2.4302,2.4302,2.4302,2.421,2.3533,2.2871,2.214,2.1122,2.0382,1.9752,1.9273,1.9139,1.9213,1.9384,1.9398,1.9317,1.9069,1.9055,1.9406,2.0683,2.1061,2.1452,2.2613,2.2888,2.3076,2.376,2.3891,2.3905,2.3902,2.3997,2.3639,2.2479,2.2242,2.2106,2.1698,2.1589,2.1547,2.1615,2.1602,2.1663,2.1846,2.1846,2.2002,2.2338,2.3496,2.4261,2.452,2.9076,3.0706,2.8666,2.9156,2.9826,3.0597,2.9802,2.9764,3.061,3.061,3.0432,3.0142,3.087,3.0549,2.9367,2.9324,2.8985,2.8442,2.7734,2.7079,2.6442,2.5851,2.628,2.6995,2.5379,2.559,2.6462,1.923,1.8627,1.8125,1.8356,1.8408,1.8486,1.876,1.8898,1.9275,2.0205,2.103,2.1461,2.1297,2.2461,2.2908,2.2032,2.1797,2.1471,2.0947,2.1131,2.1229,2.1229,2.1229,2.1326,2.1506,2.1506,2.1554,2.1712,2.1897,2.2014,2.2028,2.2337,2.2346,2.2042,2.2427,2.2338,2.1969,2.2859,2.3304,2.3494,2.4051,2.4302,2.4302,2.4302,2.4302,2.421,2.3533,2.2871,2.214,2.1122,2.0599,2.0239,1.9588,1.9515,1.9551,1.9109,1.904,1.9069,1.9031,1.9055,1.9406,2.0683,2.1743,2.2511,2.2815,2.2888,2.3076,2.376,2.3891,2.3941,2.4013,2.3681,2.3266,2.3096,2.2251,2.1743,2.2106,2.1372,2.0894,2.0979,2.0646,2.0646,2.1321,2.1369,2.1801,2.2836,2.41,2.5096,2.5658,2.7862,2.8592,2.7503,2.8501,2.8951,2.8804,2.8912,2.9225,2.9782,2.9782,2.9643,2.9394,3.0122,2.9945,2.8985,2.8469,2.794,2.7322,2.6504,2.5555,2.4725,2.4948,2.5017,2.5,2.4581,2.4936,2.55,1.9183,1.8575,1.8082,1.8475,1.8553,1.8693,1.9072,1.9161,1.9405,2.0198,2.0827,2.1126,2.0812,2.2218,2.278,2.1737,2.2087,2.2203,2.1732,2.1698,2.1664,2.1664,2.152,2.152,2.1793,2.1793,2.1841,2.1996,2.1996,2.1996,2.1996,2.2187,2.2159,2.201,2.2214,2.2255,2.2249,2.2663,2.3113,2.3581,2.3909,2.4177,2.4302,2.4302,2.4302,2.4256,2.3887,2.3172,2.2331,2.1576,2.091,2.0258,1.9603,1.9493,1.953,1.9026,1.8941,1.8993,1.8993,1.9272,1.987,2.1133,2.2193,2.2888,2.2888,2.2888,2.2989,2.3383,2.3256,2.3169,2.3223,2.2547,2.1979,2.2052,2.1305,2.0788,2.1103,2.0641,2.0258,2.0346,2.0067,2.0118,2.061,2.0709,2.1076,2.1844,2.3126,2.4141,2.4818,2.6411,2.7387,2.7579,2.7858,2.8107,2.8208,2.813,2.8275,2.8646,2.8646,2.8488,2.8216,2.8824,2.8586,2.7531,2.7105,2.6656,2.6143,2.5234,2.4472,2.3982,2.4058,2.4194,2.425,2.3758,2.4005,2.4411,1.945,1.892,1.845,1.8784,1.8769,1.8884,1.9258,1.9281,1.9406,1.9762,2.0362,2.049,1.9837,2.1549,2.2357,2.1348,2.2466,2.3024,2.2498,2.2249,2.2077,2.2044,2.1712,2.1616,2.1841,2.1841,2.1996,2.2184,2.2184,2.2184,2.2184,2.2184,2.2184,2.2184,2.1949,2.2156,2.2603,2.242,2.2875,2.3754,2.3782,2.4009,2.4302,2.4302,2.4241,2.4148,2.4189,2.3482,2.2468,2.2148,2.1316,2.0355,1.9768,1.9618,1.9633,1.9344,1.9281,1.9238,1.9075,1.9604,2.0524,2.1699,2.2468,2.2888,2.2888,2.2843,2.2797,2.2797,2.2417,2.203,2.1983,2.1188,2.056,2.051,2.0105,1.9747,1.9708,1.9708,1.9643,1.954,1.9643,1.9708,1.9888,2.008,2.0284,2.0577,2.1589,2.2555,2.3313,2.4905,2.6381,2.7689,2.7207,2.7209,2.7758,2.7228,2.7141,2.7425,2.7542,2.7381,2.6949,2.7601,2.7203,2.6009,2.5801,2.5551,2.5264,2.4243,2.3799,2.3759,2.3452,2.3612,2.389,2.3057,2.308,2.3335,1.9531,1.9406,1.9332,1.9726,1.969,1.969,1.9848,1.9762,1.9762,1.9955,2.0546,2.0712,2.0046,2.1743,2.2682,2.2093,2.3264,2.3566,2.242,2.2466,2.248,2.2184,2.2137,2.2091,2.2137,2.2137,2.2184,2.2184,2.2184,2.2184,2.2184,2.2184,2.2184,2.2184,2.2184,2.217,2.231,2.2526,2.2934,2.3407,2.3711,2.4009,2.4302,2.4302,2.3948,2.3496,2.3654,2.2971,2.2026,2.221,2.1904,2.1413,2.1074,2.098,2.0885,2.066,2.0633,2.0388,1.9368,1.9957,2.1032,2.1801,2.2468,2.2888,2.2888,2.2615,2.2324,2.2324,2.1874,2.1382,2.0944,2.0709,2.0459,2.0003,1.985,1.9656,1.9198,1.9146,1.8922,1.8417,1.8804,1.9198,1.9291,1.9772,2.0348,2.1147,2.1329,2.1943,2.3182,2.3561,2.4351,2.5634,2.6214,2.6275,2.5844,2.5924,2.6142,2.6602,2.7291,2.7078,2.6224,2.7388,2.7203,2.6009,2.5801,2.5685,2.5561,2.4294,2.3763,2.3731,2.3685,2.3177,2.2555,2.2884,2.2771,2.2405,1.966,1.9639,1.9675,1.9975,2.001,1.9975,2.0045,2.001,1.9975,2.0061,2.0618,2.0886,2.0567,2.2009,2.2915,2.2729,2.3641,2.3897,2.3143,2.3068,2.2949,2.2814,2.2402,2.2184,2.2184,2.2184,2.2184,2.2184,2.2184,2.2184,2.2184,2.2184,2.2184,2.2184,2.2184,2.2184,2.2231,2.2356,2.2768,2.3319,2.3494,2.3839,2.4302,2.4302,2.4117,2.384,2.3962,2.3339,2.248,2.243,2.2029,2.1475,2.1099,2.1044,2.107,2.0949,2.0922,2.0864,2.0686,2.109,2.1685,2.2338,2.2671,2.2888,2.2888,2.2555,2.2184,2.2184,2.1527,2.0894,2.066,2.0359,2.0105,1.985,1.9552,1.9291,1.904,1.8709,1.8429,1.8147,1.8375,1.8536,1.859,1.8898,1.9312,1.9834,2.0169,2.0797,2.1904,2.2551,2.3216,2.3889,2.5122,2.5532,2.4974,2.5036,2.5362,2.5828,2.608,2.62,2.615,2.6134,2.5914,2.5486,2.4918,2.4589,2.4328,2.3541,2.3418,2.3659,2.3126,2.2824,2.2704,2.2818,2.27,2.2401,1.9874,1.9889,1.9904,2.0115,2.0115,2.0161,2.0365,2.0207,2.0222,2.0579,2.0874,2.1127,2.1279,2.2361,2.3117,2.3197,2.3825,2.4166,2.3925,2.3625,2.3348,2.3172,2.254,2.2184,2.2184,2.2184,2.2184,2.2184,2.2184,2.2184,2.2184,2.2184,2.2184,2.2184,2.2184,2.2184,2.2184,2.2184,2.2646,2.3319,2.3319,2.3711,2.4302,2.4302,2.4168,2.3963,2.4158,2.3594,2.2761,2.2733,2.2226,2.1633,2.1297,2.1297,2.1425,2.1397,2.1354,2.1469,2.1902,2.1989,2.2149,2.2743,2.2797,2.2752,2.2752,2.2278,2.1841,2.1841,2.1042,2.0409,2.0409,2.0055,1.9759,1.9643,1.9291,1.8881,1.8602,1.8201,1.782,1.7722,1.782,1.7875,1.7875,1.8135,1.8398,1.8785,1.9158,1.9815,2.0709,2.1572,2.2196,2.2603,2.4149,2.4783,2.4467,2.4549,2.4791,2.5217,2.5084,2.533,2.5942,2.4961,2.4606,2.4811,2.4051,2.3569,2.3347,2.2902,2.3037,2.3488,2.2625,2.2496,2.277,2.2779,2.2624,2.2369,2.0185,2.027,2.027,2.027,2.0185,2.0365,2.1101,2.0584,2.0594,2.1978,2.1639,2.1516,2.2147,2.2871,2.3262,2.3302,2.3917,2.4261,2.4261,2.3967,2.348,2.2785,2.2402,2.2184,2.2184,2.2184,2.2184,2.2184,2.2184,2.2184,2.2184,2.2184,2.2184,2.2184,2.2184,2.2184,2.2184,2.2184,2.2646,2.3319,2.3319,2.3711,2.4302,2.4302,2.3697,2.3035,2.3808,2.3218,2.2119,2.3009,2.2981,2.2563,2.2698,2.2727,2.2696,2.2727,2.2757,2.2642,2.2149,2.1989,2.2149,2.2743,2.2555,2.2231,2.2231,2.1444,2.0709,2.0709,2.0258,1.985,1.985,1.985,1.9656,1.9146,1.904,1.8602,1.7479,1.7313,1.7112,1.6591,1.6944,1.7257,1.7257,1.7754,1.8398,1.9095,1.8946,1.9262,2.0349,2.0269,2.0749,2.2005,2.3275,2.397,2.412,2.4451,2.4751,2.5005,2.5005,2.5037,2.5084,2.4441,2.4135,2.4139,2.3581,2.3479,2.362,2.2953,2.2898,2.3097,2.2797,2.2367,2.2,2.2879,2.2478,2.1542,2.0808,2.0936,2.0936,2.0936,2.1239,2.1434,2.1301,2.1372,2.1664,2.2224,2.2424,2.2624,2.2886,2.3517,2.3933,2.3933,2.4148,2.4302,2.4302,2.4177,2.3696,2.274,2.2572,2.2388,2.2217,2.2184,2.2184,2.2184,2.2184,2.2184,2.2184,2.2184,2.2184,2.2184,2.2184,2.2184,2.2217,2.2434,2.2814,2.3319,2.3538,2.3882,2.4261,2.4051,2.3758,2.345,2.3591,2.3156,2.2614,2.3084,2.3023,2.2735,2.2826,2.2872,2.2872,2.2888,2.2888,2.2799,2.2283,2.2347,2.2539,2.2498,2.2324,2.2123,2.1779,2.114,2.061,2.061,2.0156,1.9798,1.9798,1.9552,1.9251,1.904,1.8375,1.7699,1.7257,1.6888,1.6637,1.6431,1.6591,1.6684,1.6684,1.6909,1.721,1.7666,1.7999,1.8619,1.9466,2.022,2.0921,2.1616,2.242,2.3098,2.361,2.3739,2.3994,2.4451,2.412,2.4334,2.5029,2.4048,2.3688,2.3806,2.3199,2.2853,2.2757,2.2502,2.2583,2.2811,2.2339,2.2138,2.2196,2.2329,2.2105,2.1683,2.1501,2.1593,2.1593,2.1593,2.1978,2.2209,2.1947,2.2132,2.2516,2.3033,2.3211,2.3418,2.3778,2.4107,2.4302,2.4302,2.4302,2.4302,2.4302,2.4302,2.3909,2.3054,2.2934,2.2709,2.2356,2.2356,2.231,2.2184,2.2184,2.2184,2.2184,2.2184,2.2184,2.2184,2.2184,2.2184,2.2217,2.2572,2.2979,2.3436,2.3739,2.4051,2.4261,2.4051,2.3782,2.3566,2.3377,2.3113,2.2814,2.2963,2.2902,2.2795,2.2841,2.2857,2.2888,2.2888,2.2797,2.2615,2.2278,2.231,2.2356,2.203,2.1827,2.1589,2.1237,2.0746,2.0359,2.0359,2.0055,1.9798,1.9798,1.9344,1.8934,1.8762,1.7875,1.7146,1.6944,1.6637,1.6384,1.6384,1.6384,1.6384,1.6384,1.6384,1.6488,1.6648,1.7312,1.8073,1.8893,2.0067,2.0822,2.1068,2.167,2.2282,2.2814,2.3127,2.348,2.3867,2.3494,2.3718,2.4489,2.3555,2.3182,2.322,2.2651,2.2249,2.1949,2.1949,2.209,2.2226,2.1718,2.173,2.1938,2.1794,2.1574,2.1263,2.2301,2.2301,2.2301,2.2301,2.2301,2.2532,2.3194,2.2732,2.2971,2.4689,2.3982,2.3708,2.48,2.4533,2.4302,2.4302,2.4302,2.4302,2.4302,2.4302,2.4135,2.3839,2.3494,2.3127,2.2694,2.2694,2.2526,2.2184,2.2184,2.2184,2.2184,2.2184,2.2184,2.2184,2.2184,2.2184,2.2217,2.2572,2.3054,2.3638,2.3937,2.4162,2.4302,2.4302,2.3782,2.3083,2.3083,2.2859,2.2615,2.2749,2.2809,2.2795,2.2857,2.2888,2.2888,2.2888,2.2555,2.2184,2.2184,2.1827,2.1369,2.1369,2.0993,2.061,2.061,2.0156,1.9798,1.9798,1.9798,1.9798,1.9798,1.9344,1.8827,1.8201,1.7589,1.7,1.6477,1.6384,1.6384,1.6384,1.6384,1.6384,1.6384,1.6384,1.6384,1.6384,1.6941,1.7711,1.8744,1.954,2.0105,2.0372,2.1019,2.152,2.1793,2.2768,2.3275,2.3319,2.3275,2.3275,2.3275,2.2889,2.2558,2.2267,2.1921,2.1664,2.1423,2.1423,2.1423,2.1375,2.1082,2.0997,2.1014,2.1341,2.0862,2.0104,2.2902,2.325,2.3425,2.3425,2.4046,2.4441,2.4191,2.4361,2.4734,2.5249,2.5061,2.4974,2.5297,2.4981,2.4719,2.4719,2.4451,2.4302,2.4302,2.4302,2.4261,2.4177,2.3824,2.348,2.3127,2.2844,2.2663,2.2572,2.231,2.2184,2.2184,2.2184,2.2184,2.2184,2.2184,2.2184,2.2217,2.2572,2.2584,2.2425,2.3271,2.3396,2.3092,2.3344,2.3304,2.3083,2.2947,2.2826,2.2735,2.2826,2.2857,2.2857,2.2888,2.2661,2.2417,2.2417,2.2016,2.1575,2.1202,2.0944,2.0845,2.0845,2.0709,2.051,2.0105,1.9901,1.9798,1.9798,1.9798,1.9708,1.9291,1.875,1.8147,1.7589,1.7011,1.6591,1.6431,1.6384,1.6384,1.6384,1.6384,1.6384,1.6384,1.6384,1.6384,1.6384,1.72,1.803,1.8744,1.9316,1.9708,1.9952,2.0156,2.0446,2.0832,2.1955,2.2632,2.2889,2.2632,2.2526,2.2603,2.2249,2.1921,2.1636,2.1554,2.1471,2.1423,2.1423,2.1277,2.1082,2.1033,2.0723,2.0321,2.0399,2.0104,1.9559,2.3625,2.403,2.4286,2.4286,2.4965,2.5357,2.4972,2.5227,2.5577,2.5726,2.5615,2.5577,2.5726,2.5389,2.5082,2.4902,2.4533,2.4302,2.4302,2.4302,2.4302,2.4302,2.4094,2.3839,2.3494,2.3246,2.2965,2.2694,2.248,2.231,2.2184,2.2184,2.2184,2.2184,2.2184,2.2184,2.2217,2.2572,2.2568,2.2425,2.3171,2.327,2.2957,2.3142,2.3127,2.2979,2.2627,2.2624,2.2783,2.2613,2.2536,2.2555,2.2615,2.2217,2.1732,2.1827,2.1417,2.0881,2.0646,2.0409,2.0207,2.0258,2.0258,2.0207,1.985,1.9798,1.9798,1.9759,1.9592,1.9396,1.8975,1.8267,1.7644,1.7257,1.674,1.6384,1.6384,1.6384,1.6384,1.6384,1.6384,1.6384,1.6384,1.6384,1.6431,1.6545,1.719,1.7854,1.8356,1.8893,1.9263,1.9396,1.9643,1.9901,2.0181,2.114,2.1766,2.2035,2.1921,2.1874,2.1955,2.1746,2.152,2.1242,2.1471,2.1529,2.1442,2.1683,2.1725,2.1521,2.1302,2.0926,2.0439,2.0225,1.9794,1.9294,2.4385,2.4679,2.4981,2.502,2.5351,2.5615,2.5615,2.5615,2.5726,2.6104,2.5835,2.5726,2.6052,2.5726,2.5351,2.4942,2.4533,2.4302,2.4302,2.4302,2.4302,2.4302,2.4302,2.4177,2.3839,2.3839,2.3465,2.2785,2.274,2.2572,2.2263,2.2231,2.2231,2.2217,2.2175,2.21,2.2146,2.2455,2.2759,2.3025,2.3376,2.3448,2.3344,2.3317,2.3054,2.2642,2.212,2.228,2.2642,2.212,2.1908,2.1913,2.2063,2.1589,2.0993,2.1272,2.0782,2.0181,2.0459,2.0055,1.9604,1.9747,1.9798,1.9798,1.9798,1.9798,1.9759,1.9552,1.9251,1.8934,1.8697,1.7863,1.7202,1.7157,1.674,1.6384,1.6384,1.6384,1.6384,1.6384,1.6384,1.6384,1.6384,1.6374,1.6431,1.6705,1.6976,1.7256,1.7656,1.8367,1.8691,1.8744,1.9344,1.9643,1.9643,2.0295,2.0772,2.101,2.1277,2.1402,2.1394,2.134,2.1207,2.1053,2.157,2.1732,2.1629,2.2139,2.2307,2.2239,2.172,2.1263,2.0856,2.0469,1.982,1.9171,2.4918,2.5214,2.5465,2.5799,2.6175,2.6436,2.6436,2.6436,2.647,2.6539,2.6505,2.635,2.6123,2.5726,2.5351,2.4942,2.4533,2.4302,2.4302,2.4302,2.4302,2.4302,2.4302,2.4261,2.4177,2.3925,2.3696,2.3566,2.2965,2.2709,2.2754,2.2356,2.2278,2.2356,2.177,2.1513,2.1603,2.1707,2.1555,2.1341,2.2511,2.2396,2.1538,2.2076,2.1945,2.1394,2.1264,2.1307,2.1425,2.1382,2.1147,2.0986,2.1438,2.1188,2.0709,2.0746,2.0308,1.9759,1.9952,1.9811,1.9604,1.9747,1.9708,1.9656,1.9798,1.9798,1.9643,1.9198,1.904,1.8709,1.7754,1.7368,1.7045,1.6637,1.6488,1.6384,1.6384,1.6384,1.6384,1.6384,1.6384,1.6384,1.6384,1.6087,1.5961,1.6228,1.6285,1.674,1.7656,1.7877,1.803,1.8259,1.8398,1.856,1.8679,1.904,1.9803,2.0901,2.1269,2.1358,2.1225,2.0819,2.0884,2.138,2.1185,2.1548,2.2178,2.1902,2.1597,2.1319,2.088,2.0226,1.9632,1.9515,1.9123,1.8742,2.5427,2.5705,2.5941,2.6156,2.6487,2.6691,2.6691,2.6691,2.6691,2.6691,2.6691,2.6624,2.6401,2.621,2.5872,2.5351,2.4895,2.463,2.463,2.4508,2.4508,2.4645,2.4426,2.4385,2.4645,2.4343,2.4078,2.3952,2.3421,2.3098,2.3054,2.254,2.237,2.2434,2.1733,2.1575,2.1875,2.1605,2.1338,2.1226,2.2288,2.219,2.1455,2.1773,2.1917,2.1801,2.0968,2.0684,2.0778,2.1167,2.0921,2.0558,2.0899,2.0547,2.0067,2.0156,1.9862,1.9565,1.9759,1.95,1.9291,1.9695,1.9331,1.8963,1.9344,1.9384,1.9174,1.8602,1.8321,1.7929,1.7213,1.6955,1.674,1.6431,1.6384,1.6384,1.6384,1.6384,1.6384,1.6384,1.6384,1.6316,1.6087,1.5856,1.573,1.5894,1.6056,1.6457,1.72,1.7534,1.7767,1.7931,1.8269,1.855,1.8617,1.9238,1.9885,2.0637,2.0777,2.0912,2.1058,2.0769,2.086,2.1205,2.1058,2.1331,2.1832,2.1633,2.152,2.1272,2.0805,2.0247,1.9683,1.9456,1.9165,1.8839,2.5928,2.6156,2.633,2.64,2.6607,2.6742,2.6742,2.6742,2.6742,2.6742,2.6742,2.6742,2.6624,2.6505,2.621,2.5721,2.5262,2.5005,2.5005,2.4791,2.4766,2.5005,2.4645,2.4589,2.5005,2.4806,2.4589,2.4245,2.3867,2.3551,2.3304,2.2709,2.2523,2.2586,2.1851,2.1806,2.2232,2.1735,2.1567,2.1683,2.2357,2.2305,2.183,2.1715,2.1945,2.2088,2.0667,2.0168,2.0247,2.0887,2.0699,2.0192,2.0383,1.9965,1.9368,1.9604,1.9396,1.9198,1.9436,1.9121,1.8804,1.9371,1.8792,1.8159,1.8548,1.8655,1.8483,1.7886,1.7435,1.7101,1.6899,1.6524,1.6316,1.6316,1.6316,1.6374,1.6374,1.6374,1.6374,1.6384,1.6316,1.6087,1.5614,1.5498,1.5439,1.5439,1.571,1.6114,1.6637,1.72,1.7579,1.7723,1.8453,1.8874,1.8908,1.9773,2.0252,2.04,2.0237,2.0431,2.09,2.0803,2.0872,2.0982,2.1044,2.1164,2.1272,2.1428,2.1428,2.1365,2.0858,2.0473,2.0085,1.966,1.9341,1.9075,2.647,2.6487,2.6469,2.6775,2.6909,2.6942,2.6876,2.6909,2.6975,2.6975,2.6975,2.6792,2.64,2.5779,2.5307,2.5107,2.5045,2.5005,2.5005,2.4966,2.4966,2.5005,2.4926,2.4926,2.5005,2.5123,2.5084,2.4886,2.412,2.3767,2.3794,2.2949,2.2629,2.2721,2.1926,2.1639,2.1696,2.1757,2.1772,2.183,2.2552,2.2164,2.115,2.1238,2.0654,1.9768,1.9658,1.9346,1.9107,1.9716,1.96,1.9258,1.9762,1.95,1.904,1.9093,1.8602,1.8116,1.8309,1.8159,1.8061,1.8255,1.8104,1.7788,1.739,1.7776,1.8038,1.7424,1.7157,1.6832,1.6332,1.6066,1.5972,1.5972,1.6066,1.6114,1.6114,1.6114,1.6181,1.6374,1.6029,1.5614,1.5069,1.4666,1.4428,1.4428,1.4834,1.541,1.6171,1.6637,1.7226,1.7868,1.8291,1.8699,1.9056,1.9572,1.9989,2.0412,2.0068,2.0326,2.0986,2.058,2.0662,2.1128,2.0817,2.0988,2.151,2.1141,2.0782,2.0398,1.9977,1.9594,1.9253,1.9198,1.9142,1.9075,2.699,2.6908,2.6825,2.699,2.7007,2.6975,2.6959,2.6992,2.7007,2.7007,2.7007,2.6876,2.6521,2.5937,2.5567,2.5508,2.541,2.5333,2.5333,2.5217,2.5217,2.5333,2.5123,2.51,2.5333,2.5068,2.4934,2.4934,2.4287,2.3909,2.3724,2.3023,2.2781,2.2843,2.206,2.1929,2.2245,2.1828,2.1728,2.1815,2.2221,2.1863,2.1111,2.0834,2.0639,2.0456,2.0221,1.9804,1.9417,1.9659,1.9396,1.9049,1.9282,1.8975,1.8494,1.8494,1.8267,1.7995,1.8093,1.782,1.76,1.7984,1.749,1.6899,1.7011,1.6955,1.6786,1.6503,1.64,1.6296,1.6019,1.5972,1.5914,1.5914,1.5961,1.6019,1.6019,1.6019,1.6077,1.6181,1.5836,1.5371,1.4951,1.468,1.4423,1.4207,1.4861,1.5427,1.5846,1.6717,1.7237,1.7288,1.8419,1.8994,1.8868,1.9594,2.0035,2.0236,2.0109,2.0299,2.0728,2.0375,2.0313,2.0569,2.0225,2.0231,2.042,2.0031,1.977,1.9639,1.9396,1.9208,1.9075,1.8998,1.8942,1.8942]},{"header":{"parameterUnit":"m.s-1","parameterCategory":1,"la1":30.6,"la2":28.766,"lo1":-90.7593,"lo2":-88.6598,"dy":0.0162,"dx":0.0183,"nx":116,"ny":114,"refTime":"2023-05-19T12:00:00:Z","depth":0,"parameterNumber":3,"parameterNumberName":"V-component_of_WINDS"},"data":[0.0,0.0,0.0,0.0,0.0,0.0,0.0,0.0,0.0,0.0,0.0,0.0,0.0,0.0,0.0,0.0,0.0,0.0,0.0,0.0,0.0,0.0,0.0,0.0,0.0,0.0,0.0,0.0,0.0,0.0,0.0,0.0,0.0,0.0,0.0,0.0,0.0,0.0,0.0,0.0,0.0,0.0,0.0,0.0,0.0,0.0,0.0,0.0,0.0,0.0,0.0,0.0,0.0,0.0,0.0,0.0,0.0,0.0,0.0,0.0,0.0,0.0,0.0,0.0,0.0,0.0,0.0,0.0,0.0,0.0,0.0,0.0,0.0,0.0,0.0,0.0,0.0,0.0,0.0,0.0,0.0,0.0,0.0,0.0,0.0,0.0,0.0,0.0,0.0,0.0,0.0,0.0,0.0,0.0,0.0,0.0,0.0,0.0,0.0,0.0,0.0,0.0,0.0,0.0,0.0,0.0,0.0,0.0,0.0,0.0,0.0,0.0,0.0,0.0,0.0,0.0,0.0,0.0,0.0,0.0,0.0,0.0,0.0,0.0,0.0,0.0,0.0,0.0,0.0,0.0,0.0,0.0,0.0,0.0,0.0,0.0,0.0,0.0,0.0,0.0,0.0,0.0,0.0,0.0,0.0,0.0,0.0,0.0,0.0,0.0,0.0,0.0,0.0,0.0,0.0,0.0,0.0,0.0,0.0,0.0,0.0,0.0,0.0,0.0,0.0,0.0,0.0,0.0,0.0,0.0,0.0,0.0,0.0,0.0,0.0,0.0,0.0,0.0,0.0,0.0,0.0,0.0,0.0,0.0,0.0,0.0,0.0,0.0,0.0,0.0,0.0,0.0,0.0,0.0,0.0,0.0,0.0,0.0,0.0,0.0,0.0,0.0,0.0,0.0,0.0,0.0,0.0,0.0,0.0,0.0,0.0,0.0,0.0,0.0,0.0,0.0,0.0,0.0,0.0,0.0,0.0,0.0,0.0,0.0,0.0,0.0,0.0,0.0,0.0,0.0,0.0,0.0,0.0,0.0,0.0,0.0,0.0,0.0,0.0,0.0,0.0,0.0,0.0,0.0,0.0,0.0,0.0,0.0,0.0,0.0,0.0,0.0,0.0,0.0,0.0,0.0,0.0,0.0,0.0,0.0,0.0,0.0,0.0,0.0,0.0,0.0,0.0,0.0,0.0,0.0,0.0,0.0,0.0,0.0,0.0,0.0,0.0,0.0,0.0,0.0,0.0,0.0,0.0,0.0,0.0,0.0,0.0,0.0,0.0,0.0,0.0,0.0,0.0,0.0,0.0,0.0,0.0,0.0,0.0,0.0,0.0,0.0,0.0,0.0,0.0,0.0,0.0,0.0,0.0,0.0,0.0,0.0,0.0,0.0,0.0,0.0,0.0,0.0,0.0,0.0,0.0,0.0,0.0,0.0,0.0,0.0,0.0,0.0,0.0,0.0,0.0,0.0,0.0,0.0,0.0,0.0,0.0,0.0,0.0,0.0,0.0,0.0,0.0,0.0,0.0,0.0,0.0,0.0,0.0,0.0,0.0,0.0,0.0,0.0,0.0,0.0,0.0,0.0,0.0,0.0,0.0,0.0,0.0,0.0,0.0,0.0,0.0,0.0,0.0,0.0,0.0,0.0,0.0,0.0,0.0,0.0,0.0,0.0,0.0,0.0,0.0,0.0,0.0,0.0,0.0,0.0,0.0,0.0,0.0,0.0,0.0,0.0,0.0,0.0,0.0,0.0,0.0,0.0,0.0,0.0,0.0,0.0,0.0,0.0,0.0,0.0,0.0,0.0,0.0,0.0,0.0,0.0,0.0,0.0,0.0,0.0,0.0,0.0,0.0,0.0,0.0,0.0,0.0,0.0,0.0,0.0,0.0,0.0,0.0,0.0,0.0,0.0,0.0,0.0,0.0,0.0,0.0,0.0,0.0,0.0,0.0,0.0,0.0,0.0,0.0,0.0,0.0,0.0,0.0,0.0,0.0,0.0,0.0,0.0,0.0,0.0,0.0,0.0,0.0,0.0,0.0,0.0,0.0,0.0,0.0,0.0,0.0,0.0,0.0,0.0,0.0,0.0,0.0,0.0,0.0,0.0,0.0,0.0,0.0,0.0,0.0,0.0,0.0,0.0,0.0,0.0,0.0,0.0,0.0,0.0,0.0,0.0,0.0,0.0,0.0,0.0,0.0,0.0,0.0,0.0,0.0,0.0,0.0,0.0,0.0,0.0,0.0,0.0,0.0,0.0,0.0,0.0,0.0,0.0,0.0,0.0,0.0,0.0,0.0,0.0,0.0,0.0,0.0,0.0,0.0,0.0,0.0,0.0,0.0,0.0,0.0,0.0,0.0,0.0,0.0,0.0,0.0,0.0,0.0,0.0,0.0,0.0,0.0,0.0,0.0,0.0,0.0,0.0,0.0,0.0,0.0,0.0,0.0,0.0,0.0,0.0,0.0,0.0,0.0,0.0,0.0,0.0,0.0,0.0,0.0,0.0,0.0,0.0,0.0,0.0,0.0,0.0,0.0,0.0,0.0,0.0,0.0,0.0,0.0,0.0,0.0,0.0,0.0,0.0,0.0,0.0,0.0,0.0,0.0,0.0,0.0,0.0,0.0,0.0,0.0,0.0,0.0,0.0,0.0,0.0,0.0,0.0,0.0,0.0,0.0,0.0,0.0,0.0,0.0,0.0,0.0,0.0,0.0,0.0,0.0,0.0,0.0,0.0,0.0,0.0,0.0,0.0,0.0,0.0,0.0,0.0,0.0,0.0,0.0,0.0,0.0,0.0,0.0,0.0,0.0,0.0,0.0,0.0,0.0,0.0,0.0,0.0,0.0,0.0,0.0,0.0,0.0,0.0,0.0,0.0,0.0,0.0,0.0,0.0,0.0,0.0,0.0,0.0,0.0,0.0,0.0,0.0,0.0,0.0,0.0,0.0,0.0,0.0,0.0,0.0,0.0,0.0,0.0,0.0,0.0,0.0,0.0,0.0,0.0,0.0,0.0,0.0,0.0,0.0,0.0,0.0,0.0,0.0,0.0,0.0,0.0,0.0,0.0,0.0,0.0,0.0,0.0,0.0,0.0,0.0,0.0,0.0,0.0,0.0,0.0,0.0,0.0,0.0,0.0,0.0,0.0,0.0,0.0,0.0,0.0,0.0,0.0,0.0,0.0,0.0,0.0,0.0,0.0,0.0,0.0,0.0,0.0,0.0,0.0,0.0,0.0,0.0,0.0,0.0,0.0,0.0,0.0,0.0,0.0,0.0,0.0,0.0,0.0,0.0,0.0,0.0,0.0,0.0,0.0,0.0,0.0,0.0,0.0,0.0,0.0,0.0,0.0,0.0,0.0,0.0,0.0,0.0,0.0,0.0,0.0,0.0,0.0,0.0,0.0,0.0,0.0,0.0,0.0,0.0,0.0,0.0,0.0,0.0,0.0,0.0,0.0,0.0,0.0,0.0,0.0,0.0,0.0,0.0,0.0,0.0,0.0,0.0,0.0,0.0,0.0,0.0,0.0,0.0,0.0,0.0,0.0,0.0,0.0,0.0,0.0,0.0,0.0,0.0,0.0,0.0,0.0,0.0,0.0,0.0,0.0,0.0,0.0,0.0,0.0,0.0,0.0,0.0,0.0,0.0,0.0,0.0,0.0,0.0,0.0,0.0,0.0,0.0,0.0,0.0,0.0,0.0,0.0,0.0,0.0,0.0,0.0,0.0,0.0,0.0,0.0,0.0,0.0,0.0,0.0,0.0,0.0,0.0,0.0,0.0,0.0,0.0,0.0,0.0,0.0,0.0,0.0,0.0,0.0,0.0,0.0,0.0,0.0,0.0,0.0,0.0,0.0,0.0,0.0,0.0,0.0,0.0,0.0,0.0,0.0,0.0,0.0,0.0,0.0,0.0,0.0,0.0,0.0,0.0,0.0,0.0,0.0,0.0,0.0,0.0,0.0,0.0,0.0,0.0,0.0,0.0,0.0,0.0,0.0,0.0,0.0,0.0,0.0,0.0,0.0,0.0,0.0,0.0,0.0,0.0,0.0,0.0,0.0,0.0,0.0,0.0,0.0,0.0,0.0,0.0,0.0,0.0,0.0,0.0,0.0,0.0,0.0,0.0,0.0,0.0,0.0,0.0,0.0,0.0,0.0,0.0,0.0,0.0,0.0,0.0,0.0,0.0,0.0,0.0,0.0,0.0,0.0,0.0,0.0,0.0,0.0,0.0,0.0,0.0,0.0,0.0,0.0,0.0,0.0,0.0,0.0,0.0,0.0,0.0,0.0,0.0,0.0,0.0,0.0,0.0,0.0,0.0,0.0,0.0,0.0,0.0,0.0,0.0,0.0,0.0,0.0,0.0,0.0,0.0,0.0,0.0,0.0,0.0,0.0,0.0,0.0,0.0,0.0,0.0,0.0,0.0,0.0,0.0,0.0,0.0,0.0,0.0,0.0,0.0,0.0,0.0,0.0,0.0,0.0,0.0,0.0,0.0,0.0,0.0,0.0,0.0,0.0,0.0,0.0,0.0,0.0,0.0,0.0,0.0,0.0,0.0,0.0,0.0,0.0,0.0,0.0,0.0,0.0,0.0,0.0,0.0,0.0,0.0,0.0,0.0,0.0,0.0,0.0,0.0,0.0,0.0,0.0,0.0,0.0,0.0,0.0,0.0,0.0,0.0,0.0,0.0,0.0,0.0,0.0,0.0,0.0,0.0,0.0,0.0,0.0,0.0,0.0,0.0,0.0,0.0,0.0,0.0,0.0,0.0,0.0,0.0,0.0,0.0,0.0,0.0,0.0,0.0,0.0,0.0,0.0,0.0,0.0,0.0,0.0,0.0,0.0,0.0,0.0,0.0,0.0,0.0,0.0,0.0,0.0,0.0,0.0,0.0,0.0,0.0,0.0,0.0,0.0,0.0,0.0,0.0,0.0,0.0,0.0,0.0,0.0,0.0,0.0,0.0,0.0,0.0,0.0,0.0,0.0,0.0,0.0,0.0,0.0,0.0,0.0,0.0,0.0,0.0,0.0,0.0,0.0,0.0,0.0,0.0,0.0,0.0,0.0,0.0,0.0,0.0,0.0,0.0,0.0,0.0,0.0,0.0,0.0,0.0,0.0,0.0,0.0,0.0,0.0,0.0,0.0,0.0,0.0,0.0,0.0,0.0,0.0,0.0,0.0,0.0,0.0,0.0,0.0,0.0,0.0,0.0,0.0,0.0,0.0,0.0,0.0,0.0,0.0,0.0,0.0,0.0,0.0,0.0,0.0,0.0,0.0,0.0,0.0,0.0,0.0,0.0,0.0,0.0,0.0,0.0,0.0,0.0,0.0,0.0,0.0,0.0,0.0,0.0,0.0,0.0,0.0,0.0,0.0,0.0,0.0,0.0,0.0,0.0,0.0,0.0,0.0,0.0,0.0,0.0,0.0,0.0,0.0,0.0,0.0,0.0,0.0,0.0,0.0,0.0,0.0,0.0,0.0,0.0,0.0,0.0,0.0,0.0,0.0,0.0,0.0,0.0,0.0,0.0,0.0,0.0,0.0,0.0,0.0,0.0,0.0,0.0,0.0,0.0,0.0,0.0,0.0,0.0,0.0,0.0,0.0,0.0,0.0,0.0,0.0,0.0,0.0,0.0,0.0,0.0,0.0,0.0,0.0,0.0,0.0,0.0,0.0,0.0,0.0,0.0,0.0,0.0,0.0,0.0,0.0,0.0,0.0,0.0,0.0,0.0,0.0,0.0,0.0,0.0,0.0,0.0,0.0,0.0,0.0,0.0,0.0,0.0,0.0,0.0,0.0,0.0,0.0,0.0,0.0,0.0,0.0,0.0,0.0,0.0,0.0,0.0,0.0,0.0,0.0,0.0,0.0,0.0,0.0,0.0,0.0,0.0,0.0,0.0,0.0,0.0,0.0,0.0,0.0,0.0,0.0,0.0,0.0,0.0,0.0,0.0,0.0,0.0,0.0,0.0,0.0,0.0,0.0,0.0,0.0,0.0,0.0,0.0,0.0,0.0,0.0,0.0,0.0,0.0,0.0,0.0,0.0,0.0,0.0,0.0,0.0,0.0,0.0,0.0,0.0,0.0,0.0,0.0,0.0,0.0,-1.9031,-1.8626,0.0,0.0,0.0,0.0,0.0,0.0,0.0,0.0,0.0,0.0,0.0,0.0,0.0,0.0,0.0,0.0,0.0,0.0,0.0,0.0,0.0,0.0,0.0,0.0,0.0,0.0,0.0,0.0,0.0,0.0,0.0,0.0,0.0,0.0,0.0,0.0,0.0,0.0,0.0,0.0,0.0,0.0,0.0,0.0,0.0,0.0,0.0,0.0,0.0,0.0,0.0,0.0,0.0,0.0,0.0,0.0,0.0,0.0,0.0,0.0,0.0,0.0,0.0,0.0,0.0,0.0,0.0,0.0,0.0,0.0,0.0,0.0,0.0,0.0,0.0,0.0,0.0,0.0,0.0,0.0,0.0,0.0,0.0,0.0,0.0,0.0,0.0,0.0,0.0,0.0,0.0,0.0,0.0,0.0,0.0,0.0,0.0,0.0,0.0,0.0,0.0,0.0,0.0,0.0,0.0,0.0,0.0,0.0,0.0,0.0,0.0,0.0,0.0,0.0,-2.0822,-2.0251,0.0,0.0,0.0,0.0,0.0,0.0,0.0,0.0,0.0,0.0,0.0,0.0,0.0,0.0,0.0,0.0,0.0,0.0,0.0,0.0,0.0,0.0,0.0,0.0,0.0,0.0,0.0,0.0,0.0,0.0,0.0,0.0,0.0,0.0,0.0,0.0,0.0,0.0,0.0,0.0,0.0,0.0,0.0,0.0,0.0,0.0,0.0,0.0,0.0,0.0,0.0,0.0,0.0,0.0,0.0,0.0,0.0,0.0,0.0,0.0,0.0,0.0,0.0,0.0,0.0,0.0,0.0,0.0,0.0,0.0,0.0,0.0,0.0,0.0,0.0,0.0,0.0,0.0,0.0,0.0,0.0,0.0,0.0,0.0,0.0,0.0,0.0,0.0,0.0,0.0,0.0,0.0,0.0,0.0,0.0,0.0,0.0,0.0,0.0,0.0,0.0,0.0,0.0,0.0,0.0,0.0,0.0,0.0,-2.2528,-2.2807,-2.2424,-2.3367,-2.3593,-2.3241,-2.2717,-2.2099,-2.1556,-2.1642,0.0,0.0,0.0,0.0,0.0,0.0,0.0,0.0,0.0,0.0,0.0,0.0,0.0,0.0,0.0,0.0,0.0,0.0,0.0,0.0,0.0,0.0,0.0,0.0,0.0,0.0,0.0,0.0,0.0,0.0,0.0,0.0,0.0,0.0,0.0,0.0,0.0,0.0,-1.1908,-1.2197,-1.227,-1.23,-1.2264,0.0,0.0,0.0,0.0,0.0,0.0,0.0,0.0,0.0,0.0,0.0,0.0,0.0,0.0,0.0,0.0,0.0,0.0,0.0,0.0,0.0,0.0,0.0,0.0,0.0,0.0,0.0,0.0,0.0,0.0,0.0,0.0,0.0,0.0,0.0,0.0,0.0,0.0,0.0,0.0,0.0,0.0,0.0,-1.703,-1.7417,0.0,0.0,0.0,0.0,0.0,0.0,0.0,0.0,0.0,0.0,0.0,0.0,0.0,-1.9656,-2.0814,-2.1642,-2.2286,-2.2768,-2.3534,-2.3942,-2.401,-2.4168,-2.4266,-2.4385,-2.4306,0.0,-2.3214,-2.3664,0.0,0.0,0.0,0.0,0.0,0.0,0.0,0.0,0.0,0.0,0.0,0.0,0.0,0.0,0.0,0.0,0.0,0.0,0.0,0.0,0.0,0.0,0.0,0.0,0.0,0.0,0.0,0.0,0.0,0.0,0.0,0.0,0.0,0.0,0.0,0.0,-1.0885,-1.1468,-1.2283,-1.2291,-1.2667,-1.3335,-1.3299,-1.2893,-1.2368,-1.2987,0.0,0.0,0.0,0.0,0.0,0.0,0.0,0.0,0.0,0.0,0.0,0.0,0.0,0.0,0.0,0.0,0.0,0.0,0.0,0.0,0.0,0.0,0.0,0.0,0.0,0.0,0.0,0.0,0.0,0.0,0.0,0.0,0.0,0.0,0.0,0.0,0.0,0.0,0.0,-1.6609,-1.7129,-1.7566,-1.7356,-1.7121,0.0,0.0,0.0,0.0,0.0,0.0,0.0,0.0,0.0,-2.057,-2.0712,-2.1338,-2.2629,-2.3,-2.336,-2.3764,-2.4413,-2.4648,-2.4505,-2.5097,-2.5289,-2.5069,-2.5402,-2.5202,-2.4629,-2.4173,-2.3692,-2.3282,0.0,0.0,0.0,0.0,-2.1875,-2.1954,0.0,0.0,0.0,0.0,0.0,0.0,0.0,0.0,0.0,0.0,0.0,0.0,0.0,0.0,0.0,-0.73,0.0,0.0,0.0,0.0,0.0,0.0,0.0,0.0,0.0,0.0,0.0,-1.101,-1.1462,-1.1847,-1.2305,-1.2297,-1.2784,-1.362,-1.3951,-1.3578,-1.2771,-1.3425,-1.3579,0.0,0.0,0.0,0.0,0.0,0.0,0.0,0.0,0.0,0.0,0.0,0.0,0.0,0.0,0.0,0.0,0.0,0.0,0.0,0.0,0.0,0.0,0.0,0.0,0.0,0.0,0.0,0.0,0.0,0.0,0.0,0.0,0.0,0.0,0.0,0.0,0.0,0.0,-1.7105,-1.7531,-1.7969,-1.7926,-1.7681,0.0,0.0,0.0,0.0,0.0,0.0,-2.0182,-2.013,-2.0677,-2.207,-2.2167,-2.2791,-2.3982,-2.3995,-2.4157,-2.4363,-2.4813,-2.493,-2.4704,-2.5368,-2.5448,-2.5061,-2.54,-2.5418,-2.5168,-2.449,-2.4179,-2.4129,-2.3178,-2.2377,-2.1752,-2.239,-2.2417,-2.231,0.0,0.0,0.0,0.0,0.0,0.0,0.0,0.0,0.0,0.0,0.0,0.0,0.0,0.0,-0.7571,-0.6738,-0.7304,-0.771,0.0,0.0,0.0,0.0,0.0,0.0,0.0,0.0,0.0,-1.1385,-1.1979,-1.2285,-1.2311,-1.2326,-1.2298,-1.242,-1.3573,-1.4082,-1.3945,-1.2876,-1.2798,-1.3729,0.0,0.0,0.0,0.0,0.0,0.0,0.0,0.0,0.0,0.0,0.0,0.0,0.0,0.0,0.0,0.0,0.0,0.0,0.0,0.0,0.0,0.0,0.0,0.0,0.0,0.0,0.0,0.0,0.0,0.0,0.0,0.0,0.0,0.0,0.0,0.0,0.0,0.0,0.0,-1.9093,-1.9261,0.0,0.0,0.0,0.0,-1.8851,-1.9433,-2.0064,-2.083,-2.1496,-2.2167,-2.2772,-2.2917,-2.342,-2.4292,-2.4292,-2.4363,-2.462,-2.4647,-2.4704,-2.4765,-2.4267,-2.4067,-2.4136,-2.3595,-2.3662,-2.4231,-2.5141,-2.4533,-2.3071,-2.3003,-2.2175,-2.1153,-2.1891,-2.2479,-2.295,0.0,0.0,0.0,0.0,0.0,0.0,0.0,0.0,0.0,0.0,0.0,0.0,0.0,-0.7372,-0.7392,-0.721,-0.7443,-0.7461,-0.7223,0.0,0.0,0.0,0.0,0.0,0.0,0.0,-1.1779,-1.1979,-1.2171,-1.2305,-1.2305,-1.2324,-1.2293,-1.2298,-1.2751,-1.3687,-1.4933,-1.4467,-1.5095,-1.6461,-1.7562,-1.8036,0.0,0.0,0.0,0.0,0.0,0.0,0.0,0.0,0.0,0.0,0.0,0.0,0.0,0.0,0.0,0.0,0.0,0.0,0.0,0.0,0.0,0.0,0.0,0.0,0.0,0.0,0.0,0.0,0.0,0.0,0.0,0.0,0.0,0.0,0.0,0.0,0.0,-1.8568,-1.9327,0.0,-1.9297,-1.9445,-1.9909,-2.0677,-2.1031,-2.1697,-2.2739,-2.2776,-2.3013,-2.3649,-2.3767,-2.3989,-2.4292,-2.4421,-2.4549,-2.4734,-2.4734,-2.4778,-2.4935,-2.4284,-2.4068,-2.4096,-2.3446,-2.3297,-2.3527,-2.3906,-2.3919,-2.3649,-2.3271,-2.2609,-2.1911,-2.2582,-2.269,-2.2671,0.0,0.0,0.0,0.0,0.0,0.0,0.0,0.0,0.0,0.0,0.0,-0.8213,-0.6909,-0.7025,-0.7179,-0.7218,-0.723,-0.7253,-0.7232,0.0,0.0,0.0,0.0,0.0,0.0,-1.1764,-1.2004,-1.2305,-1.2305,-1.2305,-1.2305,-1.2305,-1.2311,-1.23,-1.2605,-1.3481,-1.4859,-1.6496,-1.7817,-1.8858,-1.8275,-1.7976,-1.7997,0.0,0.0,0.0,0.0,0.0,0.0,0.0,0.0,0.0,0.0,0.0,0.0,0.0,0.0,0.0,0.0,0.0,0.0,0.0,0.0,0.0,0.0,0.0,0.0,0.0,0.0,0.0,0.0,0.0,0.0,0.0,0.0,0.0,0.0,-1.8554,-1.934,-1.8749,-1.9661,-2.0281,-2.0102,-2.063,-2.1233,-2.2004,-2.2182,-2.2783,-2.3923,-2.3733,-2.3738,-2.4144,-2.4319,-2.4328,-2.4186,-2.4313,-2.4332,-2.4242,-2.4242,-2.4297,-2.4381,-2.3784,-2.3513,-2.3472,-2.2823,-2.2617,-2.2719,-2.2719,-2.3016,-2.3447,-2.3049,-2.26,-2.2174,-2.2801,-2.2824,-2.2752,0.0,0.0,0.0,0.0,0.0,0.0,0.0,0.0,0.0,0.0,-0.8281,-0.7997,-0.6591,-0.6776,-0.6885,-0.667,-0.6674,-0.702,-0.765,-0.8027,0.0,0.0,0.0,0.0,-1.1857,-1.1793,-1.1932,-1.2305,-1.2305,-1.2305,-1.2305,-1.2305,-1.2291,-1.2352,-1.317,-1.3543,-1.3975,-1.8605,-2.0602,-2.0426,-1.8745,-1.8024,-1.8037,0.0,0.0,0.0,0.0,0.0,0.0,0.0,0.0,0.0,0.0,0.0,0.0,0.0,0.0,0.0,0.0,0.0,0.0,0.0,0.0,0.0,0.0,0.0,0.0,0.0,0.0,0.0,0.0,0.0,0.0,0.0,0.0,0.0,-1.9057,-1.8987,-1.9254,-1.9771,-2.0445,-2.0952,-2.1371,-2.1451,-2.1803,-2.2761,-2.2822,-2.3207,-2.4054,-2.4261,-2.4292,-2.4292,-2.4465,-2.4369,-2.3918,-2.3891,-2.3649,-2.3189,-2.3189,-2.3189,-2.3162,-2.259,-2.2305,-2.2264,-2.1681,-2.1568,-2.1793,-2.1793,-2.1996,-2.2194,-2.2246,-2.2122,-2.1876,-2.2456,-2.2825,-2.3265,0.0,0.0,0.0,0.0,0.0,0.0,0.0,0.0,0.0,0.0,-0.8329,-0.8178,-0.6753,-0.6846,-0.6952,-0.6885,-0.6885,-0.7157,-0.765,0.0,0.0,0.0,0.0,0.0,-1.1864,-1.2071,-1.2218,-1.2305,-1.2305,-1.2305,-1.2305,-1.2285,-1.2265,-1.2325,-1.3103,-1.4746,-1.6919,-1.9531,-2.0561,-2.0526,-2.0093,-1.9107,-1.7986,0.0,0.0,0.0,0.0,0.0,0.0,0.0,0.0,0.0,0.0,0.0,0.0,0.0,0.0,0.0,0.0,0.0,0.0,0.0,0.0,0.0,0.0,0.0,0.0,0.0,0.0,0.0,0.0,0.0,0.0,0.0,-2.0528,-2.0637,-1.8985,-2.0194,-2.1063,-2.0534,-2.0905,-2.1527,-2.2187,-2.2433,-2.2811,-2.3556,-2.3767,-2.3943,-2.4112,-2.439,-2.4421,-2.4292,-2.4193,-2.4023,-2.3904,-2.3541,-2.3351,-2.3189,-2.3189,-2.3189,-2.3162,-2.2793,-2.2605,-2.2564,-2.2166,-2.2044,-2.2091,-2.2091,-2.2137,-2.2198,-2.2225,-2.2183,-2.2105,-2.2272,-2.2296,-2.2318,0.0,0.0,0.0,0.0,0.0,0.0,0.0,0.0,0.0,0.0,-0.8006,-0.7841,-0.6713,-0.6733,-0.6806,-0.6733,-0.6802,-0.7177,-0.7984,0.0,0.0,0.0,0.0,-1.1924,-1.2051,-1.2218,-1.2305,-1.2305,-1.2305,-1.2305,-1.2305,-1.2291,-1.2505,-1.2813,-1.3324,-1.4501,-1.6276,-1.8528,-1.9541,-1.9574,-2.0337,-2.0014,-1.8976,-1.8309,-1.801,-1.797,-1.7996,-1.8027,-1.7938,-1.7695,0.0,0.0,0.0,0.0,0.0,0.0,0.0,0.0,0.0,0.0,0.0,0.0,0.0,0.0,0.0,0.0,0.0,0.0,0.0,0.0,0.0,0.0,0.0,0.0,-2.1188,-2.1219,-2.0418,-2.1187,-2.1619,-2.107,-2.1265,-2.169,-2.2237,-2.2677,-2.3113,-2.3556,-2.3839,-2.3956,-2.3865,-2.4041,-2.4028,-2.3956,-2.3751,-2.3564,-2.331,-2.2989,-2.2726,-2.2431,-2.2431,-2.2481,-2.262,-2.2385,-2.2367,-2.2484,-2.1965,-2.1992,-2.2356,-2.2041,-2.2175,-2.2463,0.0,0.0,0.0,0.0,-2.2162,-2.2118,0.0,0.0,0.0,0.0,0.0,0.0,0.0,0.0,0.0,0.0,0.0,-0.7237,-0.6482,-0.6554,-0.6587,-0.6432,-0.657,-0.714,0.0,0.0,0.0,-1.0551,-1.1397,-1.1893,-1.215,-1.2231,-1.2305,-1.2305,-1.2305,-1.2305,-1.2305,-1.2298,-1.2686,-1.3396,-1.3433,-1.3476,-1.3688,-1.6687,-1.7993,-1.8108,-1.9713,-2.0392,-2.0446,-1.8877,-1.8328,-1.8272,-1.83,-1.8303,-1.8508,-2.0082,0.0,0.0,0.0,0.0,0.0,0.0,0.0,0.0,0.0,0.0,0.0,0.0,0.0,0.0,0.0,0.0,0.0,0.0,0.0,0.0,0.0,0.0,0.0,0.0,-2.1543,-2.1838,-2.2463,-2.2021,-2.1632,-2.1581,-2.1565,-2.1628,-2.1877,-2.2372,-2.2786,-2.3027,-2.3365,-2.3497,-2.3569,-2.345,0.0,0.0,0.0,-2.2942,-2.2431,-2.2201,-2.1839,-2.1313,-2.1313,-2.1458,-2.1746,-2.1793,-2.1996,-2.2203,-2.1654,-2.186,-2.2572,-2.2014,-2.2203,-2.2843,-2.2417,-2.2374,-2.2489,-2.2105,-2.2116,-2.2147,0.0,0.0,0.0,0.0,0.0,0.0,0.0,0.0,0.0,-0.7699,-0.7782,-0.7521,-0.6531,-0.6448,-0.6457,-0.642,-0.6448,-0.6852,0.0,0.0,-0.9606,-0.9752,-1.0698,-1.1279,-1.1335,-1.2003,-1.2305,-1.2305,-1.2305,-1.2305,-1.2305,-1.2265,-1.2398,-1.2558,-1.3201,-1.3479,-1.3704,-1.6711,-1.8008,-1.8029,-1.8385,-1.9372,-2.0534,-2.0256,-2.0066,-2.0073,-2.0133,-2.0136,-2.0128,-2.0471,-2.038,-2.0042,-1.9687,-1.9576,0.0,0.0,0.0,0.0,0.0,0.0,0.0,0.0,0.0,0.0,0.0,0.0,0.0,0.0,0.0,0.0,0.0,0.0,0.0,-2.1481,-2.1983,-2.2417,-2.2432,-2.2541,-2.2614,-2.2604,-2.169,-2.1325,-2.199,-2.1678,-2.1803,-2.2652,-2.2919,-2.3053,-2.3198,-2.3424,-2.3326,-2.2763,-2.2373,-2.2068,-2.1877,-2.1029,-2.0727,-2.0908,-2.0908,0.0,-2.1334,-2.1888,-2.2278,-2.2509,-2.2577,-2.2682,-2.2843,-2.2712,-2.2741,-2.2888,-2.2797,-2.2494,-2.212,-2.2048,-2.1393,-2.0571,0.0,0.0,0.0,0.0,0.0,0.0,0.0,0.0,0.0,0.0,-0.7491,-0.7182,-0.6398,-0.6363,-0.642,-0.642,-0.6745,0.0,0.0,-0.8509,-0.9148,-0.9119,-0.9985,-1.0651,-1.1111,-1.1484,-1.1784,-1.1998,-1.2225,-1.2304,-1.2328,-1.2284,-1.2538,-1.2889,-1.3331,-1.4316,-1.5861,-1.7372,-1.7963,-1.7985,-1.8008,-1.8525,-1.9273,-1.9287,-1.9855,-2.0595,-2.0622,-2.0587,-2.0609,-2.0601,-2.0617,-2.0597,-2.0575,-2.0628,-2.024,0.0,0.0,0.0,0.0,0.0,0.0,0.0,0.0,0.0,0.0,0.0,0.0,0.0,0.0,-2.3,-2.2642,0.0,-2.1951,-2.2362,-2.2623,-2.2698,-2.2628,-2.2506,-2.2249,-2.1939,-2.1388,-2.1008,-2.106,-2.1123,-2.1376,-2.2039,-2.2116,-2.2235,-2.2499,-2.2486,-2.2362,-2.203,-2.17,-2.1496,-2.1434,-2.0872,-2.0553,-2.051,-2.0758,-2.0884,-2.0944,-2.1589,-2.2044,-2.231,-2.2421,-2.2598,-2.2888,-2.2888,-2.2888,-2.2888,-2.2888,-2.2556,-2.196,-2.1612,-2.0901,-2.0059,0.0,0.0,0.0,0.0,0.0,0.0,0.0,0.0,0.0,0.0,-0.7106,-0.6794,-0.6154,-0.6161,-0.6201,0.0,0.0,0.0,0.0,-0.8127,-0.8677,-0.8401,-0.92,-0.9976,-1.0582,-1.0962,-1.1224,-1.1494,-1.1945,-1.2184,-1.2285,-1.2324,-1.2698,-1.3506,-1.4133,-1.5383,-1.7181,-1.7773,-1.7995,-1.8027,-1.8014,-1.8035,-1.7998,-1.8019,-1.8864,-2.0118,-2.0486,-2.0609,-2.0633,-2.0624,-2.0595,-2.0633,-2.0624,-2.0596,-2.0594,-2.0582,-1.8478,0.0,0.0,0.0,0.0,0.0,0.0,0.0,0.0,-2.3234,-2.5923,-2.6129,-2.4523,-2.3234,-2.3769,-2.27,-2.199,-2.2968,-2.2728,-2.2498,-2.2482,-2.198,-2.1362,-2.0692,-2.076,-2.07,-2.014,-2.0635,-2.1089,-2.1362,-2.1437,-2.1536,-2.1761,-2.162,-2.1512,-2.1404,-2.1308,-2.1243,-2.1188,-2.1029,-2.0749,-2.0411,-2.0856,-2.0872,-2.0666,-2.1327,-2.1712,-2.186,-2.1877,-2.2232,-2.2752,-2.2752,-2.2797,-2.2888,-2.2888,-2.2556,-2.1917,-2.1249,-2.0538,-1.9827,0.0,0.0,0.0,0.0,0.0,0.0,0.0,0.0,0.0,0.0,0.0,0.0,0.0,0.0,0.0,0.0,0.0,0.0,-0.6692,-0.707,-0.7258,-0.7393,-0.8303,-0.8851,-0.9003,-1.0357,-1.1013,-1.081,-1.1255,-1.1784,-1.2331,-1.2318,-1.2725,-1.3623,-1.6309,-1.6191,-1.4175,-1.6866,-1.8027,-1.8018,-1.7979,-1.7969,-1.8018,-1.8018,-1.8104,-1.8488,-2.0013,-2.0582,-2.0566,-2.0623,-2.0602,-2.0576,-2.0633,-2.0595,-2.0579,-2.0564,-1.9715,-1.901,-2.0658,-1.989,-1.9089,-2.0782,-1.932,-1.844,0.0,-2.3138,-2.3755,-2.4767,-2.3966,-2.2997,-2.2845,-2.216,-2.1687,-2.1916,-2.1571,-2.1222,-2.1129,-2.0807,-2.0335,-1.9684,-1.9942,-2.0205,-2.0074,-2.0453,-2.0647,-2.0515,-2.1222,-2.1628,-2.1488,-2.1849,-2.1897,-2.1416,-2.1403,-2.1302,-2.1188,-2.0811,-2.0807,-2.1113,-2.1176,-2.1011,-2.0792,-2.1355,-2.1486,-2.1286,-2.1397,-2.1758,-2.2278,-2.2278,-2.2509,-2.2888,-2.2888,-2.2556,-2.1917,-2.1249,-2.0233,-1.9203,0.0,0.0,0.0,0.0,0.0,0.0,0.0,0.0,0.0,0.0,0.0,0.0,0.0,0.0,0.0,0.0,0.0,0.0,-0.6676,-0.6761,-0.6928,-0.7212,-0.7592,-0.8129,-0.8699,-0.9825,-1.0347,-1.0323,-1.1439,-1.1719,-1.1323,-1.2022,-1.2716,-1.3572,-1.4843,-1.4718,-1.3716,-1.6741,-1.7986,-1.8,-1.8,-1.8,-1.8029,-1.7993,-1.7999,-1.8267,-1.9989,-2.0592,0.0,0.0,-1.9781,-2.0619,-2.0566,-2.0599,-2.0621,-2.0565,-1.9869,-1.9243,-1.9998,-1.8927,-1.7985,-1.977,-1.9879,-1.9759,-2.0566,-2.1993,-2.3205,-2.3631,-2.3413,-2.3195,-2.346,-2.276,-2.2224,-2.2416,-2.2031,-2.1448,-2.0699,-2.0694,-2.0461,-1.9514,-1.9962,-2.0278,-1.999,-2.0339,-2.0737,-2.1109,-2.119,-2.1305,-2.1416,-2.162,-2.1632,-2.1416,-2.1404,-2.1343,-2.1348,-2.1126,-2.0969,-2.0872,-2.1189,-2.0941,-2.0382,-2.0881,-2.1132,-2.1224,-2.1321,-2.1527,-2.1779,-2.2077,-2.2324,-2.2509,-2.2797,-2.2556,-2.1917,-2.1249,-2.0436,-1.9624,0.0,0.0,0.0,0.0,0.0,0.0,0.0,0.0,0.0,0.0,0.0,0.0,0.0,0.0,0.0,0.0,0.0,0.0,0.0,-0.6708,-0.6879,-0.7139,-0.7244,-0.7656,-0.8318,-0.9145,-0.9761,-1.007,-1.1571,-1.188,-1.1095,-1.1879,-1.2755,-1.3659,-1.3327,-1.3257,-1.3763,-1.7258,-1.8746,-1.8708,-1.8724,-1.8705,-1.8734,-1.8741,-1.8751,-1.889,-2.0153,-2.0309,0.0,0.0,-1.8471,-1.9981,-2.0441,-2.0584,-2.0512,-2.0032,-1.9474,-1.8983,-1.8516,-1.7764,-1.7453,-1.8747,-2.0114,-2.0712,-1.9375,-2.0859,-2.2492,-2.243,-2.2609,-2.2877,-2.3453,-2.2712,-2.2113,-2.231,-2.1865,-2.1237,-2.0444,-2.0466,-2.0344,-1.9712,-2.0039,-2.0289,-2.0131,-2.0628,-2.1089,-2.1451,-2.1351,-2.1234,-2.1092,-2.1416,-2.156,-2.1293,-2.1487,-2.162,-2.162,-2.162,-2.1428,-2.1055,-2.144,-2.1114,-2.0244,-2.0378,-2.0579,-2.0795,-2.0881,-2.1028,-2.1224,-2.1589,-2.1841,-2.2016,-2.2356,-2.2224,-2.1739,-2.1098,-2.0509,-2.003,0.0,0.0,0.0,0.0,0.0,0.0,0.0,0.0,0.0,0.0,0.0,0.0,0.0,0.0,0.0,0.0,0.0,0.0,0.0,-0.668,-0.7023,-0.7032,-0.7293,-0.7476,-0.7561,-0.8318,-0.9086,-0.988,-1.1516,-1.2272,-1.228,-1.2255,-1.2942,-1.4009,-1.289,-1.2797,-1.381,-1.8495,-2.0527,-2.0505,-2.0553,-2.0554,-2.0554,-2.0492,-2.0492,-2.0543,-2.0551,0.0,0.0,-1.6043,-1.6611,-1.84,-2.008,-2.0608,-2.0296,-1.8592,-1.858,-1.8747,-1.6973,-1.7714,-1.9044,-1.9121,-1.9128,-1.9152,-1.9101,-2.0191,-2.1139,-2.1151,-2.1527,-2.1858,-2.1897,-2.1229,-2.07,-2.0955,-2.0518,-2.014,-2.0118,-1.9725,-1.9604,-2.0009,-1.9781,-1.9886,-2.0673,-2.1282,-2.1451,-2.0946,-2.1689,-2.1614,-2.04,-2.1493,-2.1839,-2.1101,-2.1776,-2.2173,-2.2173,-2.2173,-2.2161,-2.2149,-2.2161,-2.1669,-2.0767,-1.9966,-1.9617,-1.9668,-1.9798,-2.0156,-2.061,-2.066,-2.0944,-2.1417,-2.1417,-2.1403,-2.1322,-2.0677,-2.0269,-2.0103,0.0,0.0,0.0,0.0,0.0,0.0,0.0,0.0,0.0,0.0,0.0,0.0,0.0,0.0,0.0,0.0,-0.5962,0.0,0.0,-0.6511,-0.6834,-0.6809,-0.7114,-0.7423,-0.7663,-0.8516,-0.8742,-0.8332,-1.1403,-1.3067,-1.3506,-1.3523,-1.3749,-1.4047,-1.3718,-1.3966,-1.486,-1.6474,-1.8464,-2.0609,-2.0582,-2.0635,-2.0615,-2.0627,-2.0606,-2.0451,0.0,0.0,-1.7754,-1.6008,-1.5761,-1.6362,-1.6939,-1.7149,-1.7235,-1.7843,-1.8203,-1.8344,-1.8197,-1.8664,-1.9073,-1.9127,-1.9111,-1.9127,-1.9091,-1.9903,-2.0686,-2.0885,-2.1407,-2.1804,-2.1943,-2.1175,-2.0646,-2.0903,-2.073,-2.0511,-2.0129,-2.0555,-2.066,-2.0016,-2.0475,-2.079,-2.0673,-2.095,-2.1195,-2.1219,-2.1195,-2.1027,-2.0587,-2.0702,-2.0688,-2.042,-2.0688,-2.088,-2.1019,-2.0938,-2.1187,-2.1651,-2.1392,-2.087,-2.0133,-1.974,-1.9512,-1.9368,-1.9656,-1.985,-1.9965,-2.0409,-2.0709,-2.0894,-2.1272,-2.1417,-2.139,-2.1152,-2.0767,-2.0293,0.0,0.0,0.0,0.0,0.0,0.0,0.0,0.0,0.0,0.0,0.0,0.0,0.0,0.0,0.0,0.0,0.0,-0.5906,0.0,0.0,-0.6541,-0.651,-0.6803,-0.7104,-0.7328,-0.793,-0.8023,-0.7684,-1.016,-1.2288,-1.4076,-1.451,-1.4692,-1.467,-1.4318,-1.4845,-1.611,-1.6088,-1.7373,-1.9533,-2.0928,-2.1095,-2.0584,-2.0587,-2.0192,0.0,0.0,0.0,-1.775,-1.5972,-1.5383,-1.542,-1.5366,-1.5396,-1.5633,-1.673,-1.7684,-1.8466,-1.8951,-1.9094,-1.9131,-1.9127,-1.9096,-1.9172,-1.9344,-1.9907,-2.052,-2.0813,-2.104,-2.1149,-2.1262,-2.0853,-2.038,-1.9998,-2.0322,-2.039,-1.9844,-2.0339,-2.0681,-2.0524,-2.0897,-2.1104,-2.1148,-2.0961,-2.1032,-2.135,-2.1094,-2.0777,-2.0343,-2.016,-1.9966,-1.9704,-1.9803,-1.9909,-2.0037,-1.9979,-2.0228,-2.066,-2.0134,-1.971,-1.9468,-1.931,-1.9251,-1.9275,-1.9617,-1.9708,-1.9708,-2.0156,-2.0308,-2.0359,-2.0683,-2.0832,-2.0832,-2.0832,-2.0704,-2.0448,0.0,0.0,0.0,0.0,0.0,0.0,0.0,0.0,0.0,0.0,0.0,0.0,0.0,0.0,0.0,0.0,0.0,0.0,0.0,0.0,0.0,-0.6226,-0.6458,-0.6634,-0.6652,-0.6801,-0.725,-0.794,-0.8031,-1.0054,-1.3864,-1.512,-1.5709,-1.5698,-1.4601,-1.5212,-1.7134,-1.7223,-1.7253,-1.7505,-2.1063,-2.1678,-2.0442,-2.0503,0.0,0.0,0.0,0.0,-1.7845,-1.5991,-1.5407,-1.543,-1.543,-1.5453,-1.5515,-1.5559,-1.7282,-1.9199,-1.916,-1.9104,-1.9096,-1.9075,-1.9075,-1.9256,-1.9802,-2.0159,-2.0432,-2.0761,-2.0401,-2.0002,-2.0002,-2.0146,-1.9829,-1.8514,-1.9295,-1.9885,-1.934,-1.9271,-1.9845,-2.143,-2.0879,-2.08,-2.1873,-2.1393,-2.1035,-2.136,-2.1339,-2.0845,-1.972,-1.9905,-1.9639,-1.8977,-1.9201,-1.9345,-1.9345,-1.9386,-1.9342,-1.9288,-1.8548,-1.843,-1.8793,-1.8585,-1.8804,-1.9368,-1.9512,-1.9656,-1.9798,-1.9798,-1.9798,-1.9798,-1.9798,-1.9798,-1.9798,-1.9798,-2.0105,-2.0531,0.0,0.0,0.0,0.0,0.0,0.0,0.0,0.0,0.0,0.0,0.0,0.0,0.0,0.0,0.0,0.0,0.0,0.0,0.0,0.0,0.0,0.0,0.0,0.0,0.0,0.0,0.0,0.0,-0.8171,-0.9,-1.0035,-1.308,-1.4538,-1.4524,-1.4219,-1.4406,-1.5022,-1.6648,-1.6735,-1.5797,0.0,-1.6194,-1.8638,0.0,0.0,0.0,0.0,-1.8831,-1.9444,-1.6402,-1.5395,-1.5387,-1.5387,-1.627,-1.7321,-1.7324,-1.911,-2.0817,-1.9495,-1.9124,-1.9114,-1.9137,-1.9075,-1.9173,-1.9297,-1.9702,-2.0146,-2.018,-2.0006,-1.9833,-1.9833,-2.0107,-2.0117,-1.9636,-2.039,-2.0917,-2.0621,-2.0657,-2.0671,-2.0586,-2.0693,-2.0722,-2.0474,-2.1153,-2.1389,-2.0827,-2.0219,-1.9725,-1.9409,-1.8814,-1.8472,-1.8269,-1.8285,-1.8425,-1.8558,-1.8795,-1.8706,-1.8294,-1.8101,-1.7898,-1.7656,-1.8162,-1.8429,-1.8602,-1.9291,-1.9604,-1.9656,-1.9759,-1.9798,-1.9798,-1.9798,-1.9798,-1.9798,-1.9798,-1.9901,-1.9978,0.0,0.0,0.0,0.0,0.0,0.0,0.0,0.0,0.0,0.0,0.0,0.0,0.0,0.0,0.0,0.0,0.0,0.0,0.0,0.0,0.0,0.0,0.0,0.0,0.0,0.0,0.0,0.0,0.0,0.0,-1.0237,-1.2314,-1.3338,-1.3286,-1.3323,-1.3349,-1.3391,-1.4593,0.0,0.0,0.0,0.0,0.0,0.0,0.0,0.0,0.0,-1.8613,-1.9292,-1.8083,-1.7658,-1.7649,-1.7649,-1.782,-1.8021,-1.8009,-1.8993,-2.0005,-1.9274,-1.9087,-1.9073,-1.9091,-1.9712,-2.0126,-1.964,-1.9986,-2.0404,-2.05,-2.0284,-2.011,-2.0317,-2.081,-2.0885,-1.9836,-2.0747,-2.1328,-2.0486,-2.0514,-2.0659,-2.0627,-2.0666,-2.0719,-2.0756,-2.1115,-2.1225,-2.0898,-2.0234,-1.9678,-1.9307,-1.8477,-1.8008,-1.8008,-1.7832,-1.7801,-1.7935,-1.787,-1.7801,-1.7667,-1.7301,-1.7143,-1.712,-1.7311,-1.76,-1.7941,-1.8536,-1.8792,-1.8845,-1.9004,-1.9162,-1.9384,-1.9384,-1.95,-1.9604,-1.9604,-1.9604,-1.9604,0.0,0.0,0.0,0.0,0.0,0.0,0.0,0.0,0.0,0.0,0.0,0.0,0.0,0.0,0.0,0.0,0.0,0.0,0.0,0.0,0.0,0.0,0.0,0.0,0.0,0.0,0.0,0.0,0.0,0.0,0.0,0.0,0.0,0.0,0.0,0.0,0.0,0.0,0.0,0.0,0.0,0.0,0.0,0.0,0.0,0.0,-1.8366,-1.7989,-1.823,-1.9461,-2.0246,-2.053,-2.032,-1.9214,-1.7992,-1.7978,-1.8017,-1.8154,-1.8775,-1.892,-1.9003,-1.9091,-2.0279,-2.113,-2.0133,-2.031,-2.077,-2.0866,-2.0586,-2.038,-2.072,-2.1416,-2.1353,-1.9573,-2.0664,-2.1221,-1.9797,-1.987,-2.0264,-2.0943,-2.0723,-2.0809,-2.1551,-2.1059,-2.0857,-2.1072,-2.0781,-2.0215,-1.9414,-1.8555,-1.8066,-1.8008,-1.7656,-1.7471,-1.7471,-1.7031,-1.6982,-1.7285,-1.6455,-1.6327,-1.6773,-1.643,-1.6641,-1.7268,-1.7556,-1.7765,-1.7852,-1.7972,-1.8255,-1.8643,-1.8643,-1.8857,-1.9198,-1.9251,-1.9251,-1.9303,0.0,0.0,0.0,0.0,0.0,0.0,0.0,0.0,0.0,0.0,-0.7104,-0.6727,0.0,0.0,0.0,0.0,0.0,0.0,0.0,0.0,0.0,0.0,0.0,0.0,0.0,-0.6295,-0.631,-0.6273,-0.6367,0.0,0.0,0.0,0.0,0.0,0.0,0.0,0.0,0.0,0.0,0.0,0.0,0.0,0.0,0.0,0.0,0.0,-1.7222,-1.8028,-1.7862,-1.6713,-1.8192,-2.033,-1.8934,-1.8206,-1.7995,-1.7966,-1.7988,-1.8007,-1.8163,-1.8182,-1.8345,-1.8926,-1.9153,-1.9261,-1.9277,-1.963,-1.9993,-2.0056,-1.9717,-1.9324,-1.9181,-1.9325,-1.9487,-1.9303,-1.9977,-2.0602,-2.0805,-2.0537,-2.0466,-2.0604,-2.0717,-2.0745,-2.0813,-2.1139,-2.114,-2.0732,-2.0605,-2.0342,-1.9834,-1.8994,-1.8369,-1.8018,-1.7939,-1.79,-1.79,-1.748,-1.7129,-1.6836,-1.6318,-1.5929,-1.5693,-1.6124,-1.6425,-1.6719,-1.7213,-1.7545,-1.7633,-1.7688,-1.7743,-1.7797,-1.7797,-1.7852,-1.7961,-1.8471,-1.8643,-1.875,0.0,0.0,0.0,0.0,0.0,0.0,0.0,-0.8804,-0.8751,-0.8619,-0.7965,-0.7507,-0.7491,-0.7516,0.0,0.0,0.0,0.0,0.0,0.0,0.0,0.0,0.0,0.0,0.0,-0.6162,-0.6165,-0.5858,0.0,-0.6585,-0.697,-1.0014,-1.1726,-1.2281,-1.2332,-1.2324,-1.2305,0.0,0.0,-1.2914,-1.3316,-1.3506,0.0,0.0,0.0,0.0,0.0,-1.569,-1.5561,-1.468,-1.5963,-1.7628,-1.6137,-1.5691,-1.5953,-1.7535,-1.8014,-1.7987,-1.7968,-1.7998,-1.8105,-1.8735,-1.9022,-1.9172,-1.9127,-1.9613,-1.9959,-1.9535,-1.9525,-1.9451,-1.9079,-1.9352,-1.9529,-1.9063,-2.0053,-2.0745,-2.0316,-2.0698,-2.1071,-2.0851,-2.0472,-2.04,-2.0988,-2.0421,-2.0199,-2.0531,-2.0458,-2.0304,-1.9932,-1.9102,-1.8545,-1.834,-1.8125,-1.8008,-1.8008,-1.7812,-1.7607,-1.7393,-1.6953,-1.6641,-1.6426,-1.6496,-1.6437,-1.6333,-1.6684,-1.677,-1.6606,-1.6662,-1.6888,-1.7112,-1.7112,-1.7213,-1.7413,-1.7699,-1.7705,-1.7543,0.0,0.0,0.0,0.0,0.0,0.0,0.0,-0.8858,-0.8978,-0.9157,-0.8783,-0.8465,-0.8303,-0.8375,-0.8431,0.0,0.0,0.0,0.0,0.0,0.0,0.0,0.0,0.0,0.0,0.0,0.0,-0.5405,-0.6257,0.0,0.0,0.0,0.0,0.0,-1.2223,-1.2294,-1.2298,-1.2331,-1.2271,0.0,0.0,-1.3255,0.0,0.0,0.0,0.0,0.0,-1.3484,-1.3525,-1.3525,-1.4171,-1.4839,-1.379,-1.3484,-1.4001,-1.6342,-1.7024,-1.7069,-1.707,-1.7172,-1.7527,-1.8173,-1.8616,-1.8904,-1.8887,-1.9414,-1.976,-1.9174,-1.9287,-1.9343,-1.9012,-1.9217,-1.9309,-1.854,-1.9731,-2.0498,-1.9737,-2.0661,-2.1335,-2.1002,-2.0263,-2.006,-2.0683,-1.9697,-1.9256,-1.9988,-1.9851,-1.9782,-1.973,-1.9141,-1.8691,-1.8506,-1.8184,-1.8008,-1.8008,-1.8008,-1.7969,-1.7871,-1.7539,-1.7334,-1.7227,-1.6885,-1.6543,-1.6262,-1.6235,-1.6059,-1.5801,-1.577,-1.6009,-1.6343,-1.6343,-1.6549,-1.681,-1.6978,-1.6742,-1.646,0.0,0.0,0.0,0.0,0.0,0.0,0.0,-0.9031,-0.9157,-0.9183,-0.9416,-0.9636,-0.9859,-0.8757,-0.819,0.0,0.0,0.0,0.0,0.0,0.0,0.0,0.0,0.0,0.0,0.0,0.0,-0.537,-0.6762,0.0,0.0,0.0,0.0,0.0,0.0,-1.2297,-1.2329,-1.2271,0.0,0.0,0.0,0.0,0.0,0.0,0.0,0.0,0.0,-1.349,-1.3518,-1.3518,-1.3592,-1.3631,-1.3536,-1.3513,-1.3558,-1.3863,-1.3876,-1.3928,-1.3939,-1.4606,-1.5573,-1.6748,-1.6935,-1.7081,-1.8071,-1.8405,-1.8537,-1.8632,-1.8398,-1.8091,-1.7692,-1.7329,-1.7172,-1.7538,-1.7979,-1.8829,-2.0243,-2.0517,-2.051,-2.0344,-2.0288,-1.9889,-1.8823,-1.9143,-1.9024,-1.8079,-1.7958,-1.838,-1.9311,-1.9268,-1.8877,-1.8086,-1.8037,-1.8008,-1.8008,-1.8008,-1.7822,-1.7441,-1.7402,-1.7178,-1.6787,-1.6748,-1.6709,-1.665,-1.624,-1.6105,-1.6037,-1.5635,-1.5468,-1.5526,-1.5526,-1.5526,-1.5633,-1.6197,-1.6133,-1.592,0.0,0.0,0.0,0.0,0.0,0.0,-0.8804,-0.8875,-0.8997,-0.9183,-0.9626,-0.9921,-1.0044,-0.9525,-0.9352,-0.9755,0.0,0.0,0.0,0.0,0.0,0.0,0.0,0.0,0.0,0.0,-0.5949,-0.5964,-0.8907,0.0,0.0,0.0,0.0,0.0,0.0,-1.1663,-1.2297,-1.2331,0.0,0.0,0.0,0.0,0.0,0.0,0.0,0.0,0.0,0.0,-1.3539,-1.3539,-1.351,-1.3404,-1.2949,-1.3112,-1.3518,-1.3517,-1.3472,-1.363,-1.4261,-1.4688,-1.5284,-1.6359,-1.643,-1.6368,-1.7198,-1.7595,-1.7681,-1.7403,-1.7586,-1.7641,-1.7097,-1.6879,-1.6667,-1.6686,-1.7121,-1.7588,-1.823,-1.8625,-1.8832,-1.909,-1.8588,-1.8356,-1.868,-1.7984,-1.7501,-1.7343,-1.7327,-1.7422,-1.7746,-1.844,-1.8984,-1.917,-1.8916,-1.8652,-1.8389,-1.8389,-1.8174,-1.7764,-1.7764,-1.7666,-1.75,-1.75,-1.7363,-1.7109,-1.6934,-1.6553,-1.6115,-1.5879,-1.5644,-1.541,-1.541,-1.541,-1.541,-1.569,-1.5469,-1.524,0.0,0.0,0.0,0.0,0.0,-0.8804,-0.8804,-0.8886,-0.9058,-0.9309,-0.9826,-1.0207,-1.0207,-0.986,-0.9888,-1.0528,-1.0624,0.0,0.0,0.0,0.0,0.0,0.0,0.0,0.0,0.0,-0.8046,-0.8061,-1.0916,-1.2329,0.0,0.0,-1.2311,-1.2267,0.0,0.0,0.0,0.0,0.0,0.0,0.0,0.0,0.0,0.0,0.0,0.0,0.0,0.0,0.0,0.0,0.0,-1.3055,-1.2501,-1.2704,-1.3124,-1.3208,-1.3331,-1.3618,-1.4213,-1.4514,-1.4808,-1.5844,-1.5735,-1.5596,-1.6459,-1.6757,-1.6741,-1.6419,-1.6853,-1.718,-1.6603,-1.6498,-1.6419,-1.6006,-1.6281,-1.6646,-1.6768,-1.7082,-1.7455,-1.7795,-1.7196,-1.6987,-1.7634,-1.6497,-1.5979,-1.6484,-1.6355,-1.6246,-1.6389,-1.735,-1.8279,-1.9193,-1.8941,-1.8788,-1.8828,-1.8408,-1.8197,-1.8193,-1.7918,-1.785,-1.8008,-1.8008,-1.7852,-1.7559,-1.7432,-1.6953,-1.625,-1.6184,-1.5811,-1.541,-1.541,-1.541,-1.541,-1.541,-1.5146,-1.4805,0.0,0.0,0.0,0.0,0.0,0.0,-0.8804,-0.9118,-0.9479,-0.9679,-1.0205,-1.0599,-1.0599,-0.9503,-0.9273,-1.0528,-1.0624,0.0,0.0,0.0,0.0,0.0,0.0,0.0,0.0,0.0,-1.2209,-1.2269,-1.2276,-1.2304,-1.2298,-1.2298,-1.2303,-1.2274,0.0,0.0,0.0,0.0,0.0,0.0,0.0,0.0,0.0,0.0,0.0,0.0,0.0,0.0,0.0,0.0,0.0,0.0,0.0,-1.2283,-1.2375,-1.2438,-1.2985,-1.3404,-1.3106,-1.325,-1.3784,-1.4825,-1.4553,-1.444,-1.6031,-1.588,-1.5499,-1.6011,-1.6237,-1.6293,-1.5973,-1.6063,-1.5967,-1.532,-1.5427,-1.5782,-1.633,-1.6601,-1.674,-1.6497,-1.6539,-1.6147,-1.5133,-1.4685,-1.4733,-1.5333,-1.481,-1.4803,-1.5696,-1.5944,-1.6525,-1.7662,-1.7542,-1.804,-1.9277,-1.804,-1.7834,-1.8553,-1.7763,-1.7619,-1.8008,-1.8008,-1.8008,-1.7978,-1.7568,-1.7139,-1.6626,-1.625,-1.5811,-1.541,-1.541,-1.541,-1.541,-1.541,-1.5146,-1.4844,0.0,0.0,0.0,0.0,0.0,0.0,0.0,-0.8925,-0.9157,-0.9621,-1.0248,-1.0622,-1.062,-1.0232,-1.0171,-1.0548,-1.0624,0.0,0.0,0.0,0.0,0.0,0.0,0.0,0.0,0.0,-1.2312,-1.2294,-1.2331,-1.2325,-1.2305,-1.2305,-1.2331,-1.2324,-1.2324,-1.184,0.0,0.0,0.0,0.0,0.0,0.0,-1.5435,0.0,0.0,0.0,0.0,0.0,0.0,0.0,0.0,0.0,0.0,0.0,0.0,-1.2677,-1.2941,-1.3187,-1.3122,-1.3339,-1.3645,-1.4186,-1.403,-1.3837,-1.4561,-1.4769,-1.4877,-1.5132,-1.5589,-1.5883,-1.5725,-1.5496,-1.532,-1.5072,-1.4423,-1.4273,-1.4994,-1.4658,-1.4514,-1.5093,-1.5344,-1.5291,-1.4734,-1.4542,-1.4482,-1.4517,-1.4328,-1.4328,-1.4573,-1.481,-1.5696,-1.74,-1.7509,-1.7614,-1.7705,-1.7252,-1.7011,-1.6964,-1.7051,-1.713,-1.7295,-1.7647,-1.7862,-1.7988,-1.7302,-1.6944,-1.6636,-1.6127,-1.5691,-1.541,-1.541,-1.541,-1.541,-1.541,-1.5322,-1.5234,0.0,0.0,0.0,0.0,0.0,0.0,0.0,-0.8779,-0.9074,-0.9909,-1.0368,-1.0623,-1.0601,-1.0595,-1.0601,-1.0573,-1.1006,0.0,0.0,0.0,0.0,0.0,0.0,0.0,0.0,-1.127,-1.1891,-1.2281,-1.2318,-1.2271,-1.2303,-1.2303,-1.2303,-1.2297,-1.2274,-1.1926,0.0,0.0,0.0,0.0,0.0,0.0,-1.464,0.0,0.0,0.0,0.0,0.0,0.0,0.0,0.0,0.0,0.0,0.0,0.0,0.0,-1.2699,-1.2942,-1.3078,-1.3324,-1.3572,-1.3901,-1.374,-1.3645,-1.4216,-1.4406,-1.458,-1.4761,-1.5286,-1.5517,-1.4903,-1.475,-1.4581,-1.4095,-1.3536,-1.3334,-1.3888,-1.3576,-1.3483,-1.4093,-1.434,-1.4363,-1.418,-1.4156,-1.4104,-1.3926,-1.3997,-1.4088,-1.4088,-1.4243,-1.4761,-1.5851,-1.6445,-1.6801,-1.6938,-1.6302,-1.6022,-1.6074,-1.599,-1.6228,-1.6655,-1.7001,-1.7432,-1.7794,-1.734,-1.6882,0.0,-1.6114,-1.5655,-1.5245,-1.5313,-1.5313,-1.5303,-1.5362,-1.541,-1.541,0.0,0.0,0.0,0.0,0.0,0.0,0.0,-0.8808,-0.9183,-1.0328,-1.0486,-1.0495,-1.061,-1.0629,-1.0611,-1.062,0.0,0.0,0.0,0.0,0.0,0.0,0.0,0.0,0.0,-1.0651,-1.1272,-1.2439,-1.2368,-1.2311,-1.2274,-1.2246,-1.2168,-1.2175,-1.229,-1.2332,0.0,0.0,0.0,0.0,0.0,0.0,0.0,0.0,0.0,0.0,0.0,0.0,0.0,0.0,0.0,0.0,0.0,0.0,0.0,0.0,0.0,0.0,0.0,-1.3265,-1.3572,-1.3901,-1.3755,-1.377,-1.4699,-1.4699,0.0,-1.4853,-1.5338,-1.5196,-1.365,-1.3767,-1.3716,-1.2574,-1.2649,-1.2851,-1.2967,-1.332,-1.3477,-1.3459,-1.3496,-1.3517,-1.3517,-1.363,-1.3652,-1.3737,-1.3913,-1.4088,-1.4088,-1.4088,-1.3961,-1.3687,-1.4468,-1.542,-1.6653,-1.5187,-1.486,-1.5618,-1.4813,-1.5065,-1.6167,-1.6167,-1.6664,-1.7392,-1.7335,-1.6854,-1.6182,-1.6126,-1.5652,-1.5029,-1.5156,-1.5215,-1.5215,-1.5303,-1.5352,-1.5352,0.0,0.0,0.0,0.0,0.0,0.0,0.0,0.0,0.0,0.0,-0.9227,-0.9551,-1.0502,-1.0616,-1.0613,0.0,0.0,0.0,0.0,0.0,0.0,0.0,0.0,0.0,0.0,-1.1477,-1.2472,-1.3697,-1.2776,-1.2326,-1.2267,-1.1401,-1.102,-1.1062,-1.1874,-1.2291,0.0,0.0,0.0,0.0,0.0,0.0,0.0,0.0,0.0,0.0,-1.2564,-1.2465,0.0,0.0,0.0,0.0,0.0,0.0,0.0,0.0,-1.2826,-1.2879,-1.3107,0.0,-1.3345,-1.3669,-1.3848,-1.3996,0.0,-1.4706,-1.4787,-1.4611,-1.5028,-1.4981,-1.3233,-1.3001,-1.2651,-1.149,-1.1682,-1.2079,-1.2336,-1.3031,-1.3391,-1.3182,-1.336,-1.3408,-1.3408,-1.3436,-1.3568,-1.3652,-1.3737,-1.3906,-1.4088,-1.4088,-1.4055,-1.3981,-1.3716,-1.3852,-1.4288,-1.408,-1.3971,-1.3945,-1.4065,-1.4263,-1.4537,-1.5037,-1.5745,-1.6558,-1.5686,-1.5649,-1.6145,-1.5378,-1.5012,-1.497,-1.5029,-1.5039,-1.5029,-1.5088,-1.5088,-1.5088,0.0,0.0,0.0,0.0,0.0,0.0,0.0,0.0,0.0,0.0,0.0,0.0,0.0,0.0,0.0,0.0,0.0,0.0,0.0,0.0,0.0,0.0,0.0,0.0,-1.1355,-1.1982,-1.2655,-1.3256,-1.2655,-1.2019,-1.1538,-1.0918,-1.0616,-1.0658,-1.1787,0.0,0.0,0.0,0.0,0.0,-1.1636,0.0,0.0,0.0,0.0,0.0,-1.2197,-1.2233,0.0,-1.2187,-1.1817,-1.1411,0.0,0.0,0.0,0.0,-1.1728,-1.1979,-1.2191,-1.2673,-1.3243,-1.3563,-1.3797,-1.4026,-1.4209,-1.4494,-1.4633,-1.4311,-1.4396,-1.3964,-1.246,-1.2213,-1.1873,-1.0772,-1.1316,-1.1951,-1.2345,-1.294,-1.3187,-1.2912,-1.3045,-1.3052,-1.3052,-1.3222,-1.3256,-1.3213,-1.3291,-1.3406,-1.3441,-1.3517,-1.3457,-1.3413,-1.3227,-1.3286,-1.3351,-1.3229,-1.3003,-1.292,-1.3117,-1.339,-1.3753,-1.4106,-1.4744,-1.5492,-1.507,-1.5125,-1.5423,-1.5072,-1.4842,-1.4803,-1.4852,-1.4843,-1.4843,-1.497,-1.497,-1.497,0.0,0.0,0.0,0.0,0.0,0.0,0.0,0.0,0.0,0.0,0.0,0.0,0.0,0.0,0.0,0.0,0.0,0.0,0.0,0.0,0.0,0.0,0.0,-1.1307,-1.2244,-1.2298,-1.2335,-1.2283,-1.2161,-1.1556,-1.062,-1.0574,-1.0657,-1.091,-1.1834,-1.2265,0.0,0.0,0.0,0.0,-1.2444,0.0,0.0,0.0,0.0,0.0,0.0,0.0,0.0,-1.1826,-1.1262,-1.0639,-1.0714,0.0,0.0,0.0,0.0,0.0,-1.0837,-1.1896,-1.306,-1.3411,-1.3703,-1.3996,-1.4048,-1.4275,-1.4377,-1.3896,-1.3529,-1.2857,-1.1468,-1.1416,-1.1239,-1.0262,-1.1122,-1.2072,-1.2667,-1.2934,-1.297,-1.2735,-1.2705,-1.2705,-1.2705,-1.2881,-1.294,-1.2756,-1.282,-1.2864,-1.2584,-1.273,-1.2779,-1.2537,-1.2883,-1.3068,-1.3068,-1.2632,-1.2345,-1.2305,-1.2305,-1.2666,-1.3317,-1.3317,-1.3745,-1.4434,-1.4681,-1.4664,-1.4459,-1.4747,-1.4617,-1.4387,-1.4606,-1.4656,-1.4715,-1.4852,-1.4921,-1.4921,0.0,0.0,0.0,0.0,0.0,0.0,0.0,0.0,0.0,0.0,0.0,0.0,0.0,0.0,0.0,0.0,0.0,0.0,0.0,0.0,0.0,0.0,-1.2036,-1.2122,-1.2283,-1.2289,-1.2276,-1.2282,-1.1296,-1.0749,-1.0613,-1.0593,-1.1132,-1.2067,-1.2191,-1.2315,-1.2305,0.0,0.0,0.0,-1.2928,0.0,0.0,0.0,0.0,0.0,0.0,0.0,0.0,-1.1006,-1.0584,-1.0264,-0.9826,0.0,0.0,0.0,0.0,0.0,-1.0031,-1.1004,-1.2136,-1.3147,-1.3561,-1.3896,-1.4326,-1.4435,-1.4214,-1.3196,-1.3142,-1.27,-1.0774,-1.0641,-1.0589,-0.9615,-1.0383,-1.1601,-1.282,-1.2892,-1.2753,-1.2711,-1.2705,-1.2705,-1.2705,-1.2705,-1.2771,-1.2674,-1.2737,-1.2701,-1.259,-1.2651,-1.2632,-1.2587,-1.2401,-1.2376,-1.2376,-1.2579,-1.2552,-1.2305,-1.2305,-1.2372,-1.2445,-1.2445,-1.2952,-1.3643,-1.3041,-1.3155,-1.3727,-1.3763,-1.3683,-1.3692,-1.4318,-1.4506,-1.4506,-1.4575,-1.4565,-1.4565,0.0,0.0,0.0,0.0,0.0,0.0,0.0,0.0,0.0,0.0,0.0,0.0,0.0,0.0,0.0,0.0,0.0,0.0,0.0,0.0,0.0,-1.2294,-1.2322,-1.2276,-1.2305,-1.172,-1.1408,-1.135,-1.0837,-1.0614,-1.0613,-1.0574,-1.1243,-1.2308,-1.2778,-1.2823,-1.2613,-1.2606,-1.284,-1.3169,0.0,0.0,0.0,0.0,0.0,0.0,0.0,0.0,0.0,0.0,-0.9831,-0.9087,-0.8756,0.0,0.0,0.0,0.0,0.0,-0.9042,-0.9845,-1.0807,-1.159,-1.2845,-1.3899,-1.3945,-1.4077,-1.3877,-1.2791,-1.2309,-1.171,-1.0412,-1.0296,-1.0295,-1.0376,-1.0696,-1.1229,-1.2012,-1.2389,-1.2441,-1.2375,-1.2409,-1.2548,-1.2693,-1.2445,-1.2234,-1.2282,-1.2135,-1.1933,-1.1812,-1.187,-1.1947,-1.1947,-1.1904,-1.1916,-1.1916,-1.2136,-1.2214,-1.215,-1.215,-1.2157,-1.2305,-1.2305,-1.2519,-1.2844,-1.2513,-1.2639,-1.2922,-1.2939,-1.2948,-1.3009,-1.37,-1.395,-1.401,-1.4387,-1.4515,-1.4515,0.0,0.0,0.0,0.0,0.0,0.0,0.0,0.0,0.0,0.0,0.0,0.0,0.0,0.0,0.0,0.0,0.0,0.0,0.0,0.0,-1.2552,-1.2578,-1.212,-1.1864,-1.19,-1.1054,-1.0581,-1.0594,-1.0594,-1.0626,-1.0631,-1.0856,-1.1587,-1.2618,-1.3093,-1.3207,-1.3015,-1.2987,-1.298,-1.306,0.0,0.0,0.0,0.0,0.0,0.0,0.0,0.0,0.0,0.0,0.0,0.0,0.0,0.0,0.0,-0.6903,-0.7223,-0.7692,-0.7941,-0.8635,-0.9419,-0.9829,0.0,-1.3105,-1.2949,-1.3138,-1.3058,-1.1996,-1.1326,-1.0741,-1.0074,-0.9978,-1.0161,-1.0931,-1.1014,-1.102,-1.1262,-1.1756,-1.2046,-1.1792,-1.2015,-1.22,-1.2337,-1.2074,-1.1896,-1.1836,-1.1648,-1.1407,-1.1129,-1.126,-1.1335,-1.1335,-1.1484,-1.1558,-1.1558,-1.1558,-1.1706,-1.1929,-1.1929,-1.2003,-1.215,-1.2084,-1.2058,-1.2091,-1.1992,-1.1992,-1.2016,-1.2145,-1.2266,-1.2328,-1.3199,-1.3571,-1.3821,-1.4327,-1.4515,-1.4515,0.0,0.0,0.0,0.0,0.0,0.0,0.0,0.0,0.0,0.0,0.0,0.0,0.0,0.0,0.0,0.0,0.0,0.0,0.0,0.0,-1.3393,-1.3441,-1.1683,-1.0744,-1.0691,-1.0659,-1.0588,-1.0588,-1.0588,-1.0581,-1.0631,-1.1696,-1.2617,-1.3385,-1.3086,-1.315,-1.3411,-1.3155,-1.3221,-1.3455,-1.328,0.0,0.0,0.0,0.0,0.0,0.0,0.0,0.0,0.0,0.0,0.0,0.0,0.0,-0.6915,-0.6903,-0.6817,-0.6821,-0.679,-0.7674,-0.8529,-0.8417,-0.9559,-1.0812,-1.1186,-1.1462,-1.1331,-1.0545,-1.0486,-1.0321,-0.9538,-0.9478,-0.9798,-1.0333,-1.052,-1.0824,-1.1241,-1.1343,-1.1268,-1.112,-1.1405,-1.1564,-1.1439,-1.1703,-1.1823,-1.1576,-1.154,-1.1407,-1.1129,-1.1111,-1.1111,-1.1111,-1.1111,-1.1111,-1.1111,-1.1111,-1.1335,-1.1706,-1.1706,-1.1706,-1.17,-1.1512,-1.1397,-1.1365,-1.0876,-1.0698,-1.0863,-1.1249,-1.1483,-1.167,-1.3017,-1.3881,-1.4446,-1.4455,-1.4515,-1.4515,0.0,0.0,0.0,0.0,0.0,0.0,0.0,0.0,0.0,0.0,0.0,0.0,0.0,0.0,0.0,0.0,0.0,0.0,0.0,0.0,-1.3502,-1.3494,-1.2819,-1.2052,-1.1252,-1.0788,-1.0571,-1.0604,-1.0618,-1.0944,-1.1646,-1.1952,-1.2409,-1.3035,-1.3171,-1.3165,-1.3014,-1.3273,-1.3317,-1.3221,-1.3346,-1.3222,0.0,0.0,0.0,0.0,0.0,0.0,0.0,0.0,-0.8361,-0.7587,-0.7138,-0.6876,-0.6736,-0.6494,-0.6494,-0.6518,-0.6522,-0.7,-0.7562,-0.7626,-0.8159,-0.9015,-1.0419,-1.0783,-1.0679,-1.0095,-1.0151,-1.0121,-0.9461,-0.9389,-0.9488,-0.9788,-0.9965,-1.0013,-1.0183,-1.0519,-1.0605,-1.0372,-1.0627,-1.0803,-1.0939,-1.0987,-1.1058,-1.1123,-1.1206,-1.1226,-1.1117,-1.1111,-1.1111,-1.1111,-1.1111,-1.1111,-1.1111,-1.1111,-1.1186,-1.1335,-1.1484,-1.1558,-1.1694,-1.142,-1.1293,-1.1261,-1.0708,-1.0539,-1.058,-1.0483,-1.0548,-1.0674,-1.1586,-1.2389,-1.3009,-1.3321,-1.3571,-1.3761,0.0,0.0,0.0,0.0,0.0,0.0,0.0,0.0,0.0,0.0,0.0,0.0,0.0,0.0,0.0,0.0,0.0,0.0,0.0,-1.2763,-1.3484,-1.3527,-1.3477,-1.2878,-1.164,-1.1139,-1.0946,-1.0933,-1.0807,-1.1142,-1.1949,-1.2052,-1.2301,-1.2575,-1.3042,-1.3027,-1.2654,-1.3019,-1.3119,-1.3031,-1.325,-1.3206,0.0,0.0,0.0,0.0,0.0,0.0,0.0,0.0,-0.7972,-0.7265,-0.7138,-0.6942,-0.6719,-0.6459,-0.6387,-0.642,-0.642,-0.6599,-0.6867,-0.7057,0.0,-0.7658,-0.9223,-0.9677,-0.9712,-0.9508,-0.956,-0.9548,-0.9285,-0.9246,-0.9292,-0.9438,-0.9517,-0.9536,-0.9554,-0.979,-0.9878,-0.9737,-0.9894,-1.0147,-1.0232,-1.0259,-1.036,-1.0605,-1.0761,-1.0887,-1.0738,-1.0962,-1.1037,-1.0887,-1.1037,-1.1111,-1.1111,-1.1111,-1.1111,-1.1111,-1.126,-1.1409,-1.1471,-1.1116,-1.0947,-1.0922,-1.0447,-1.0208,-1.0261,-1.0001,-1.011,-1.0351,-1.0836,-1.1392,-1.2074,-1.2573,-1.2956,-1.3208,0.0,0.0,0.0,0.0,0.0,0.0,0.0,0.0,0.0,0.0,0.0,0.0,0.0,0.0,0.0,0.0,0.0,0.0,-1.1574,-1.281,-1.3469,-1.3482,-1.3497,-1.2925,-1.1601,-1.1619,-1.1625,-1.1633,-1.1269,-1.1122,-1.1143,-1.2064,-1.2409,-1.2189,-1.2524,-1.2611,-1.2519,-1.2519,-1.2709,-1.3001,-1.3001,-1.3001,-1.2965,0.0,0.0,0.0,0.0,0.0,0.0,0.0,-0.8037,-0.7521,-0.7521,-0.7199,-0.6881,-0.6881,-0.6679,-0.642,-0.6416,-0.642,-0.6461,-0.6631,-0.6684,-0.6859,-0.7354,-0.7806,-0.8174,-0.8327,-0.8403,-0.852,-0.8964,-0.9,-0.9078,-0.9241,-0.9497,-0.9563,-0.9351,-0.9322,-0.9247,-0.9044,-0.9331,-0.9481,-0.9342,-0.962,-0.9922,-0.9922,-1.0293,-1.0293,-0.9916,-1.0663,-1.0887,-1.0519,-1.0887,-1.1111,-1.1111,-1.1111,-1.1111,-1.1105,-1.1105,-1.1105,-1.1087,-1.0568,-1.0327,-1.0297,-0.9712,-0.9612,-0.9804,-0.9804,-1.0295,-1.1017,-1.1017,-1.1384,-1.2012,-1.2573,-1.2765,-1.2826,0.0,0.0,0.0,0.0,0.0,0.0,0.0,0.0,0.0,0.0,0.0,0.0,0.0,0.0,0.0,0.0,0.0,0.0,-1.1574,-1.1971,-1.2558,-1.3454,-1.2609,-1.1976,-1.1584,-1.1582,-1.1607,-1.1633,-1.1339,-1.1312,-1.1603,-1.1854,-1.2071,-1.2193,-1.2441,-1.2415,-1.2189,-1.2423,-1.2445,-1.2343,-1.2577,-1.2665,-1.2628,0.0,0.0,0.0,0.0,0.0,0.0,0.0,0.0,0.0,-0.7138,-0.7012,-0.6854,-0.6523,-0.6383,-0.6392,-0.6262,-0.6408,-0.6583,-0.6513,-0.6688,-0.6941,-0.7057,-0.7368,-0.7824,-0.8485,-0.8471,-0.8554,-0.8918,-0.8908,-0.8862,-0.9086,-0.9167,-0.9185,-0.9119,-0.9115,-0.9034,-0.8822,-0.887,-0.8923,-0.8861,-0.9241,-0.9473,-0.9473,-0.9846,-0.9992,-0.9922,-1.0143,-1.0218,-1.0067,-1.0218,-1.0293,-1.0293,-1.0293,-1.0278,-1.0402,-1.0402,-1.0548,-1.0828,-1.0484,-1.023,-0.997,-0.9628,-0.9548,-0.9612,-0.9612,-0.9734,-0.9977,-0.9977,-1.0104,-1.0288,-1.0856,-1.1406,-1.195,0.0,0.0,0.0,0.0,0.0,0.0,0.0,0.0,0.0,0.0,0.0,0.0,0.0,0.0,0.0,0.0,0.0,0.0,0.0,0.0,-1.1971,-1.2713,-1.2035,-1.1643,-1.1747,-1.165,-1.1575,-1.1604,-1.1457,-1.1481,-1.1746,-1.1855,-1.1876,-1.1941,-1.2204,-1.2153,-1.186,-1.2058,-1.2102,-1.205,-1.2248,-1.2401,-1.2482,0.0,0.0,0.0,0.0,0.0,0.0,0.0,0.0,0.0,-0.7167,-0.7008,-0.6789,-0.6544,-0.6461,-0.6396,-0.6411,-0.6474,-0.6583,-0.6623,-0.6794,-0.7032,-0.7136,-0.7333,-0.7676,-0.8134,-0.8103,-0.8159,-0.8589,-0.8526,-0.8558,-0.8765,-0.8783,-0.8755,-0.8677,-0.8668,-0.8617,-0.857,-0.8551,-0.8627,-0.8699,-0.8932,-0.9089,-0.9089,-0.9468,-0.962,-0.9463,-0.9675,-0.9745,-0.9695,-0.9665,-0.9728,-0.9916,-0.9733,-0.9756,-0.9924,-0.9973,-1.0018,-1.0189,-1.0173,-1.0018,-0.9856,-0.9598,-0.9484,-0.9484,-0.9484,-0.9484,-0.9484,-0.9484,-0.9484,-0.9548,-1.011,-1.0611,-1.108,0.0,0.0,0.0,0.0,0.0,0.0,0.0,0.0,0.0,0.0,0.0,0.0,0.0,0.0,0.0,0.0,0.0,0.0,0.0,0.0,-1.1617,-1.1617,-1.1588,-1.1689,-1.1934,-1.1706,-1.1622,-1.1622,-1.1622,-1.1622,-1.163,-1.186,-1.1838,-1.1637,-1.186,-1.1831,-1.1622,-1.1622,-1.1728,-1.1992,-1.1992,-1.2182,-1.2438,-1.2116,0.0,0.0,0.0,0.0,0.0,0.0,0.0,0.0,-0.7455,-0.71,-0.6741,-0.6815,-0.6618,-0.642,-0.6609,-0.656,-0.6522,-0.6846,-0.7027,-0.7066,-0.7407,-0.7509,-0.7513,-0.7528,-0.7561,-0.761,-0.8015,-0.8124,-0.8124,-0.8357,-0.8357,-0.8299,-0.8128,-0.8102,-0.8178,-0.8327,-0.8403,-0.8479,-0.8627,-0.8699,-0.8703,-0.8703,-0.9013,-0.9089,-0.8703,-0.9168,-0.9437,-0.921,-0.9238,-0.9344,-0.9697,-0.9355,-0.9303,-0.9486,-0.9639,-0.9542,-0.9354,-0.9722,-0.9862,-0.9826,-0.9586,-0.9466,-0.9448,-0.9472,-0.9454,-0.9418,-0.9466,-0.9466,-0.9512,-1.004,-1.0244,-1.0388,0.0,0.0,0.0,0.0,0.0,0.0,0.0,0.0,0.0,0.0,0.0,0.0,0.0,0.0,0.0,0.0,0.0,0.0,0.0,0.0,-1.1592,-1.1592,-1.158,-1.1658,-1.1663,-1.1659,-1.1622,-1.1622,-1.1622,-1.1622,-1.1622,-1.1633,-1.1626,-1.163,-1.1633,-1.1626,-1.1622,-1.1622,-1.1604,-1.1663,-1.1663,-1.1853,-1.2102,-1.178,-1.1816,0.0,0.0,0.0,0.0,0.0,0.0,0.0,-0.7423,-0.71,-0.6815,-0.6548,-0.6486,-0.642,-0.6482,-0.6518,-0.6639,-0.6729,-0.696,-0.7224,-0.7435,-0.7528,-0.7516,-0.7714,-0.7723,-0.7812,-0.8082,-0.8086,-0.8086,-0.8163,-0.8163,-0.815,-0.8106,-0.8102,-0.8102,-0.8178,-0.8327,-0.8403,-0.8479,-0.8627,-0.8703,-0.8703,-0.878,-0.878,-0.8703,-0.8659,-0.8641,-0.8615,-0.8432,-0.8406,-0.8499,-0.8411,-0.8439,-0.8584,-0.8607,-0.8673,-0.8723,-0.9513,-0.976,-0.9562,-0.9508,-0.9358,-0.9172,-0.9394,-0.9232,-0.8896,-0.9316,-0.9346,-0.9246,-0.9527,-0.9926,-1.0295,0.0,0.0,0.0,0.0,0.0,0.0,0.0,0.0,0.0,0.0,0.0,0.0,0.0,0.0,0.0,0.0,0.0,0.0,0.0,0.0,0.0,-1.1622,-1.1622,-1.1622,-1.1622,-1.1622,-1.1622,-1.1622,-1.1622,-1.1622,-1.1622,-1.1622,-1.1622,-1.1622,-1.1622,-1.1622,-1.1622,-1.1622,-1.1622,-1.1622,-1.1622,-1.1663,-1.1787,-1.1626,-1.1663,-1.166,-1.0404,0.0,0.0,0.0,0.0,0.0,0.0,0.0,-0.6548,-0.6148,-0.6218,-0.635,-0.6083,-0.6344,-0.6729,-0.6907,-0.6853,-0.6836,-0.7383,-0.7484,-0.7561,-0.7642,-0.7642,-0.7718,-0.7791,-0.7795,-0.7795,-0.7795,-0.7795,-0.7795,-0.7795,-0.7795,-0.7872,-0.7953,-0.803,-0.8178,-0.8255,-0.8403,-0.8514,-0.8416,-0.8482,-0.8514,-0.8411,-0.8212,-0.8151,-0.8245,-0.7943,-0.7877,-0.8075,-0.7881,-0.7913,-0.804,-0.8138,-0.8296,-0.8517,-0.9159,-0.9409,-0.9285,-0.9285,-0.9203,-0.9074,-0.9092,-0.8877,-0.8704,-0.8979,-0.9082,-0.9144,-0.9232,-0.9468,-0.9781,0.0,0.0,0.0,0.0,0.0,0.0,0.0,0.0,0.0,0.0,0.0,0.0,0.0,0.0,0.0,0.0,0.0,0.0,0.0,0.0,0.0,-1.1622,-1.1622,-1.1622,-1.1622,-1.1622,-1.1622,-1.1622,-1.1622,-1.1622,-1.1622,-1.1622,-1.1622,-1.1622,-1.1622,-1.1622,-1.1622,-1.1622,-1.1622,-1.1622,-1.1622,-1.1622,-1.1622,-1.1622,-1.1622,-1.1498,-1.0737,-1.0066,-0.9491,-0.8986,0.0,0.0,0.0,0.0,-0.635,-0.5749,-0.5881,-0.6083,-0.5547,-0.5823,-0.6398,-0.6733,-0.6384,-0.6163,-0.6938,-0.7096,-0.7096,-0.7096,-0.7326,-0.7484,-0.7326,-0.7407,-0.7484,-0.7326,-0.7407,-0.7484,-0.7484,-0.7484,-0.7561,-0.7723,-0.7804,-0.788,-0.803,-0.8255,-0.8263,-0.8175,-0.8277,-0.8325,-0.8146,-0.791,-0.7858,-0.8023,-0.7722,-0.7693,-0.7966,-0.7698,-0.7612,-0.7725,-0.7876,-0.8052,-0.8317,-0.87,-0.8888,-0.8888,-0.8888,-0.8843,-0.8747,-0.859,-0.8443,-0.838,-0.8492,-0.8723,-0.8878,-0.892,-0.8998,-0.9059,0.0,0.0,0.0,0.0,0.0,0.0,0.0,0.0,0.0,0.0,0.0,0.0,0.0,0.0,0.0,0.0,0.0,0.0,-1.1624,0.0,0.0,-1.1622,-1.1622,-1.1622,-1.1622,-1.1622,-1.1622,-1.1622,-1.1622,-1.1622,-1.1622,-1.1622,-1.1622,-1.1622,-1.1622,-1.1622,-1.1622,-1.1622,-1.1622,-1.1622,-1.1747,-1.1685,-1.1622,-1.1747,-1.1685,-1.1498,-1.0737,-1.0187,-0.9657,-0.9041,-0.8165,0.0,0.0,0.0,-0.6478,-0.5675,-0.5477,-0.5345,-0.4686,-0.4654,-0.4965,-0.5222,-0.5223,-0.5157,-0.5312,-0.5315,-0.5315,-0.5315,-0.6475,-0.7249,-0.6549,-0.7015,-0.7249,-0.6472,-0.7019,-0.7484,-0.7484,-0.7484,-0.7484,-0.7561,-0.7723,-0.7804,-0.7804,-0.803,-0.8169,-0.8367,-0.8207,-0.8171,-0.8363,-0.799,-0.7792,-0.782,-0.765,-0.755,-0.7607,-0.755,-0.7536,-0.7564,-0.754,-0.7587,-0.7657,-0.7982,-0.8312,-0.8576,-0.8576,-0.8343,-0.7963,-0.8198,-0.7903,-0.7318,-0.783,-0.8044,-0.8069,-0.8346,-0.8545,-0.8788,0.0,0.0,0.0,0.0,0.0,0.0,0.0,0.0,0.0,0.0,0.0,0.0,0.0,0.0,0.0,-1.0485,-1.153,-1.2365,-1.2901,-1.3139,-1.3075,-1.2699,-1.2297,-1.1981,-1.1747,-1.1622,-1.1622,-1.1622,-1.1622,-1.1622,0.0,-1.1622,-1.1622,-1.1622,-1.1622,-1.1622,-1.1622,-1.1685,-1.1677,-1.1747,-1.1872,-1.1934,-1.1872,-1.1809,-1.174,-1.1677,-1.124,-1.0494,-0.9557,-0.9302,-0.8256,-0.714,-0.7074,0.0,0.0,0.0,-0.5411,-0.5233,-0.4642,-0.4232,-0.4028,-0.4629,-0.4414,-0.4224,-0.4611,-0.4686,-0.4686,-0.4686,-0.5229,-0.5848,-0.6163,-0.6549,-0.6784,-0.6938,-0.7249,-0.7484,-0.7484,-0.7484,-0.7484,-0.7484,-0.7565,-0.7642,-0.7642,-0.7799,-0.7862,-0.7712,-0.7838,-0.7842,-0.7545,-0.7499,-0.7469,-0.7469,-0.7381,-0.7396,-0.7521,-0.7521,-0.7521,-0.7521,-0.7521,-0.7521,-0.7521,-0.7657,-0.7917,-0.8242,-0.8116,-0.7949,-0.7746,-0.7584,-0.7339,-0.7072,-0.7375,-0.7526,-0.7672,-0.7834,-0.7994,-0.827,0.0,0.0,0.0,0.0,0.0,0.0,0.0,0.0,0.0,0.0,0.0,0.0,0.0,0.0,0.0,0.0,-1.2372,-1.3762,-1.4203,-1.4436,-1.4219,-1.338,-1.2903,-1.2397,-1.1802,-1.1685,-1.1622,-1.1622,-1.1622,0.0,-1.1622,-1.1622,-1.1622,-1.1622,-1.1622,-1.1622,-1.1685,-1.1809,-1.1864,-1.1872,-1.2058,-1.212,-1.2058,-1.1996,-1.1934,-1.1872,-1.1685,-1.073,-0.9582,-0.9518,-0.8361,-0.6946,-0.6946,-0.6679,0.0,0.0,0.0,-0.4712,-0.4296,-0.3562,-0.3147,-0.3747,-0.3459,-0.3134,-0.3675,-0.3752,-0.3752,-0.3752,-0.3752,-0.4142,-0.5464,-0.5931,-0.624,-0.6942,-0.7253,-0.7407,-0.7484,-0.7484,-0.7484,-0.7484,-0.7484,-0.7484,-0.7484,-0.7642,-0.7585,-0.7322,-0.7472,-0.7438,-0.7034,-0.71,-0.7138,-0.7138,-0.7204,-0.7265,-0.7396,-0.7456,-0.7521,-0.7521,-0.7521,-0.7521,-0.7521,-0.7521,-0.7657,-0.7847,-0.7688,-0.7651,-0.7571,-0.7126,-0.6932,-0.6857,-0.6853,-0.7028,-0.7293,-0.7357,-0.7509,-0.7757,0.0,0.0,0.0,0.0,0.0,0.0,0.0,0.0,0.0,0.0,0.0,0.0,-1.2745,-1.1444,-1.1078,-1.2609,-1.4831,-1.5798,-1.4796,-1.4796,-1.4261,-1.3078,-1.3009,0.0,-1.1802,-1.1802,-1.1747,-1.1622,0.0,0.0,-1.1622,-1.174,-1.1809,-1.1809,-1.1809,-1.1809,-1.1802,-1.1996,-1.2065,-1.2127,-1.2243,-1.2182,-1.212,-1.2243,-1.2182,-1.2058,-1.1872,-1.0919,-0.9773,-0.9582,-0.849,-0.7138,-0.6946,-0.6811,-0.6539,0.0,0.0,0.0,-0.3119,-0.2424,-0.1835,-0.1881,-0.1929,-0.1964,-0.2043,-0.2043,-0.2043,-0.2043,-0.2043,-0.2512,-0.4226,-0.5079,-0.5699,-0.5938,-0.6637,-0.7257,-0.7484,-0.7484,-0.7484,-0.7484,-0.7484,-0.7484,-0.7484,-0.7484,-0.7483,-0.7512,-0.733,-0.7214,-0.7296,-0.7043,-0.6946,-0.6946,-0.7073,-0.7204,-0.7199,-0.7396,-0.7521,-0.7521,-0.7521,-0.7521,-0.7521,-0.7521,-0.7521,-0.7521,-0.7512,-0.7397,-0.7207,-0.6927,-0.6714,-0.6511,-0.6308,-0.6445,-0.6747,-0.6966,-0.7078,-0.7225,0.0,0.0,0.0,0.0,0.0,0.0,0.0,0.0,0.0,0.0,0.0,0.0,0.0,-1.3152,-1.2259,-1.3242,-1.4824,-1.5471,-1.4802,-1.5312,-1.5323,-1.4569,-1.4323,-1.3786,-1.2781,-1.265,-1.2351,0.0,0.0,-1.1934,-1.1934,-1.1996,-1.1996,-1.1996,-1.1996,-1.1996,-1.1996,-1.2182,-1.2243,-1.2243,-1.2428,-1.2436,-1.2436,-1.2305,-1.2243,-1.2182,-1.1926,-1.0912,-0.9773,-0.9582,-0.849,-0.7138,-0.6946,-0.6811,-0.6539,-0.5675,-0.4547,-0.356,-0.3125,-0.2395,-0.1681,-0.1549,-0.1602,-0.165,-0.1572,-0.1493,-0.1493,-0.1493,-0.1493,-0.2041,-0.3679,-0.4457,-0.5237,-0.6321,-0.6945,-0.7257,-0.7334,-0.7407,-0.7484,-0.7484,-0.7484,-0.7484,-0.7484,-0.7484,-0.7411,-0.7311,-0.7266,-0.7144,-0.6894,-0.6843,-0.6745,-0.6745,-0.6872,-0.6937,-0.7007,-0.7204,-0.733,-0.733,-0.733,-0.7396,-0.7521,-0.7521,-0.7521,-0.7521,-0.7521,-0.7407,-0.7207,-0.6936,-0.6749,-0.666,-0.6449,-0.6477,-0.658,-0.6527,-0.6619,-0.6911,0.0,0.0,0.0,0.0,0.0,0.0,0.0,0.0,0.0,0.0,0.0,0.0,0.0,0.0,-1.4037,-1.448,-1.5256,-1.5589,-1.5309,-1.5837,-1.5941,-1.541,-1.5167,-1.451,-1.3329,-1.3199,0.0,0.0,0.0,0.0,0.0,-1.2367,-1.2482,-1.2482,-1.2789,-1.2605,-1.2182,-1.2544,-1.2728,-1.2728,-1.2858,-1.292,-1.2858,-1.2552,-1.2375,-1.2367,-1.1996,-1.1163,-1.0148,-0.9901,-0.8877,-0.7591,-0.7396,-0.7068,-0.6539,-0.5943,-0.508,-0.4284,-0.3823,-0.2865,-0.1964,-0.1802,-0.1656,-0.1487,-0.1309,-0.132,-0.1411,-0.1632,-0.1718,-0.2196,-0.391,-0.4457,-0.5082,-0.6556,-0.6945,-0.703,-0.718,-0.7334,-0.7407,-0.7484,-0.7484,-0.7484,-0.7484,-0.7484,-0.7411,-0.724,-0.7179,-0.7074,-0.6696,-0.6705,-0.6676,-0.6675,-0.6675,-0.6745,-0.6881,-0.7012,-0.7073,-0.7073,-0.7073,-0.7204,-0.7396,-0.7396,-0.7461,-0.7521,-0.7521,-0.7445,-0.7307,-0.704,-0.6955,-0.6936,-0.6665,-0.6538,-0.6468,-0.6407,-0.6457,-0.6589,0.0,0.0,0.0,0.0,0.0,0.0,0.0,0.0,0.0,0.0,0.0,0.0,0.0,0.0,0.0,-1.6343,-1.6398,-1.6401,-1.64,-1.6374,-1.6134,-1.5468,-1.541,-1.4756,-1.339,0.0,0.0,0.0,0.0,0.0,0.0,0.0,-1.3329,-1.339,-1.4172,-1.3692,-1.2428,-1.3208,-1.3511,-1.3511,-1.3511,-1.3502,-1.345,-1.2858,-1.2621,-1.256,-1.2259,-1.1615,-1.0954,-1.0611,-0.9652,-0.849,-0.8236,-0.7521,-0.6675,-0.6482,-0.5818,-0.5087,0.0,0.0,0.0,-0.2538,-0.1932,-0.1396,-0.1256,-0.1291,-0.156,-0.2359,-0.2547,-0.3056,-0.4693,-0.5004,-0.5315,-0.6405,-0.6563,-0.6718,-0.7103,-0.7184,-0.7257,-0.7484,-0.7488,-0.7492,-0.7492,-0.7496,-0.7427,-0.7253,-0.7236,-0.7082,-0.6729,-0.67,-0.6675,-0.6679,-0.6675,-0.6745,-0.6881,-0.6881,-0.6881,-0.6881,-0.6881,-0.7007,-0.7204,-0.7204,-0.733,-0.7521,-0.7521,-0.7521,-0.7507,-0.7312,-0.7231,-0.7212,-0.6941,-0.6674,-0.6515,-0.6712,-0.6529,-0.6239,0.0,0.0,0.0,0.0,0.0,0.0,0.0,0.0,0.0,0.0,0.0,0.0,0.0,-1.5953,-1.5667,-1.5699,-1.5802,-1.5894,-1.5877,-1.6187,-1.6316,-1.6134,-1.6134,-1.572,-1.4815,0.0,0.0,0.0,0.0,0.0,0.0,0.0,0.0,0.0,-1.441,-1.4291,-1.3932,-1.4112,-1.4231,-1.4172,-1.3692,-1.3803,-1.4112,-1.2981,-1.2858,-1.3189,-1.2775,-1.1996,-1.124,-1.129,-1.0116,-0.8479,-0.7717,-0.7199,-0.6811,-0.6675,-0.5943,-0.5213,-0.5153,0.0,0.0,0.0,0.0,0.0,-0.3154,-0.31,-0.3203,-0.3413,-0.3428,-0.3754,-0.4768,-0.5004,-0.5315,-0.6405,-0.6563,-0.6718,-0.6945,-0.7103,-0.7257,-0.7484,-0.7602,-0.7683,-0.7683,-0.7797,-0.7793,-0.7626,-0.7488,-0.7313,-0.709,-0.6826,-0.6599,-0.649,-0.6609,-0.6675,-0.6552,-0.6679,-0.6741,-0.6741,-0.6741,-0.6937,-0.7204,-0.7204,-0.733,-0.7521,-0.7521,-0.7521,-0.7517,-0.7464,-0.744,-0.7421,-0.7154,-0.7036,-0.6955,-0.671,-0.6492,-0.6389,0.0,0.0,0.0,0.0,0.0,0.0,0.0,0.0,0.0,0.0,0.0,0.0,0.0,0.0,-1.5801,-1.5823,-1.6001,-1.6026,-1.598,-1.6275,-1.6488,-1.6384,-1.6384,-1.6077,-1.541,0.0,0.0,0.0,0.0,0.0,0.0,0.0,0.0,0.0,-1.5186,-1.5128,-1.4883,-1.4883,-1.4706,-1.4469,-1.4341,-1.441,-1.441,-1.37,-1.3459,-1.3476,-1.3149,-1.2453,-1.1755,-1.1758,-1.0604,-0.9,-0.8037,-0.7396,-0.7007,-0.6811,-0.6342,-0.5877,-0.5811,-0.5176,-0.449,-0.442,0.0,0.0,-0.39,-0.3867,-0.3989,-0.4327,-0.4429,-0.4706,-0.5613,-0.5777,-0.6012,-0.6633,-0.6714,-0.6791,-0.7022,-0.7022,-0.7176,-0.7484,-0.7564,-0.7676,-0.776,-0.7914,-0.7943,-0.7772,-0.7724,-0.7594,-0.7346,-0.6915,-0.6631,-0.6538,-0.6589,-0.6548,-0.642,-0.6548,-0.6544,-0.6544,-0.6544,-0.6745,-0.7003,-0.7073,-0.7204,-0.7396,-0.7456,-0.7521,-0.7521,-0.7521,-0.7521,-0.7512,-0.7393,-0.7297,-0.7192,-0.6884,-0.6681,-0.6511,0.0,0.0,0.0,-1.6385,-1.6225,-1.5526,-1.3831,0.0,0.0,0.0,0.0,0.0,0.0,0.0,0.0,0.0,-1.6482,-1.6528,-1.6431,-1.6534,-1.6581,-1.6431,-1.6431,-1.6192,-1.5584,0.0,0.0,0.0,0.0,0.0,0.0,0.0,0.0,0.0,0.0,-1.6077,-1.5526,-1.5526,-1.5177,-1.4706,-1.5118,-1.5001,-1.4588,-1.441,-1.4112,-1.3692,-1.3371,-1.2883,-1.2359,-1.212,-1.1101,-0.9831,-0.8941,-0.8037,-0.733,-0.7138,-0.6876,-0.6741,-0.6741,-0.606,-0.5359,-0.5448,-0.4922,0.0,-0.4349,-0.438,-0.4561,-0.5352,-0.5504,-0.5855,-0.6758,-0.6865,-0.6868,-0.6887,-0.6953,-0.7022,-0.718,-0.7022,-0.7096,-0.7484,-0.7497,-0.7537,-0.7784,-0.7963,-0.7996,-0.7801,-0.789,-0.7817,-0.75,-0.7009,-0.6725,-0.6696,-0.6534,-0.644,-0.642,-0.642,-0.642,-0.642,-0.642,-0.6482,-0.6675,-0.6811,-0.7012,-0.7204,-0.733,-0.7456,-0.7456,-0.7456,-0.7461,-0.7521,-0.7521,-0.7412,-0.725,-0.7293,-0.7029,-0.673,-1.4073,0.0,0.0,-1.6392,-1.5171,-1.4032,-1.3681,-1.3585,0.0,0.0,0.0,0.0,-1.5479,-1.576,-1.6192,-1.6673,-1.6411,-1.6348,-1.6684,-1.6761,-1.6761,-1.6705,-1.6705,-1.6648,-1.6524,-1.6524,0.0,0.0,0.0,0.0,0.0,0.0,0.0,0.0,0.0,-1.6363,-1.6343,-1.6343,-1.6104,-1.5584,-1.4932,-1.4883,-1.5118,-1.4103,-1.4222,-1.4862,-1.3613,-1.3165,-1.3078,-1.1903,-1.1274,-1.0836,-0.9831,-0.9,-0.8355,-0.8037,-0.7521,-0.7073,-0.6881,-0.668,-0.6575,-0.6573,-0.6373,0.0,-0.6296,-0.6214,-0.6197,-0.6518,-0.6561,-0.667,-0.6857,-0.6865,-0.6906,-0.7044,-0.7114,-0.718,-0.7184,-0.718,-0.7257,-0.7484,-0.7764,-0.7881,-0.7963,-0.8264,-0.8321,-0.7988,-0.7728,-0.7557,-0.7488,-0.7248,-0.6989,-0.6704,-0.666,-0.657,-0.642,-0.642,-0.642,-0.642,-0.642,-0.6482,-0.6675,-0.6741,-0.6811,-0.6946,-0.7012,-0.7007,-0.7012,-0.7204,-0.733,-0.7521,-0.7521,-0.7497,-0.751,-0.7845,-0.7786,-0.7517,-1.3591,-1.4358,-1.5005,-1.5005,-1.4246,-1.3611,-1.3598,-1.358,-1.3845,-1.4563,-1.5405,-1.5858,-1.5669,-1.6071,-1.6451,-1.6786,-1.6639,-1.6597,-1.6797,-1.6864,-1.6864,-1.6818,-1.6818,-1.6818,-1.6818,-1.6818,-1.6761,0.0,0.0,0.0,0.0,0.0,0.0,0.0,0.0,-1.6477,-1.6228,-1.6228,-1.5921,-1.5449,-1.5575,-1.5642,-1.5584,-1.5284,-1.5342,-1.5546,-1.468,-1.3961,-1.339,-1.2634,-1.1888,-1.1212,-1.071,-0.9952,-0.9192,-0.9064,-0.8613,-0.8161,-0.7657,-0.74,-0.7261,-0.6978,-0.6816,0.0,0.0,-0.6923,-0.6923,-0.6919,-0.699,-0.7048,-0.7048,-0.7188,-0.7332,-0.7422,-0.7446,-0.7497,-0.7581,-0.7438,-0.7383,-0.7622,-0.7857,-0.8034,-0.8024,-0.8349,-0.845,-0.8174,-0.7902,-0.7711,-0.7626,-0.7452,-0.7232,-0.6968,-0.6871,-0.6737,-0.6558,-0.6558,-0.6509,-0.642,-0.642,-0.6482,-0.6548,-0.6675,-0.6741,-0.6811,-0.6881,-0.6881,-0.6881,-0.7007,-0.7396,-0.7847,-0.7587,-0.7717,-0.8027,-0.8233,-0.8409,-0.8526,-1.3738,-1.368,-1.362,-1.362,-1.362,-1.3628,-1.3662,-1.3751,-1.4098,-1.48,-1.569,-1.6211,-1.617,-1.6611,-1.6925,-1.7022,-1.7147,-1.7236,-1.7245,-1.7346,-1.7346,-1.7256,-1.719,-1.719,-1.719,-1.719,-1.719,0.0,0.0,0.0,0.0,0.0,0.0,-1.6818,-1.6818,-1.6513,-1.6104,-1.6104,-1.5796,-1.5439,-1.6457,-1.6457,-1.5816,-1.64,-1.6343,-1.5931,-1.5738,-1.4855,-1.3683,-1.3563,-1.2757,-1.171,-1.1524,-1.0836,-1.0085,-1.0021,-0.9697,-0.925,-0.8678,-0.8291,-0.7887,-0.7513,-0.7315,-0.7223,0.0,0.0,0.0,-0.7146,-0.7249,-0.7277,-0.7277,-0.7512,-0.772,-0.7756,-0.776,-0.7821,-0.7906,-0.7756,-0.7676,-0.7813,-0.7871,-0.7995,-0.8073,-0.8337,-0.8467,-0.8353,-0.8105,-0.7918,-0.7813,-0.7602,-0.7403,-0.7232,-0.7082,-0.6924,-0.6749,-0.6712,-0.6619,-0.6473,-0.6436,-0.642,-0.642,-0.6544,-0.6609,-0.6675,-0.6745,-0.6881,-0.7007,-0.7073,-0.7521,-0.8231,-0.7782,-0.8037,-0.8683,-0.8812,-0.9092,-0.9449,-1.4312,-1.3915,0.0,-1.3594,-1.3604,-1.3672,-1.3842,-1.4327,-1.4811,-1.5275,-1.6148,-1.6629,-1.6364,-1.6835,-1.7356,-1.7895,-1.7996,-1.8251,-1.8738,-1.8774,-1.8774,-1.8774,-1.8774,-1.8774,-1.8774,-1.8774,-1.8643,-1.8501,0.0,0.0,0.0,0.0,0.0,-1.6818,-1.6818,-1.6807,-1.6899,-1.6899,-1.6909,-1.7043,-1.7155,-1.6457,-1.5342,-1.5816,-1.6046,-1.6056,-1.5931,-1.5332,-1.4492,-1.3897,-1.3485,-1.3139,-1.2413,-1.1725,-1.108,-1.0892,-1.0332,-0.9709,-0.9646,-0.9384,-0.9116,-0.9169,-0.8562,-0.7994,-0.8504,0.0,-0.7505,-0.7677,0.0,-0.7693,-0.7532,0.0,0.0,-0.7418,-0.768,-0.7821,-0.7749,-0.7971,-0.8166,-0.8004,-0.7886,-0.7939,-0.8231,-0.8296,-0.8381,-0.8524,-0.8073,-0.7845,-0.7975,-0.7667,-0.7403,-0.7232,-0.7204,-0.7106,-0.6995,-0.6773,-0.6684,-0.666,-0.6497,-0.642,-0.642,-0.6416,-0.6416,-0.6416,-0.642,-0.6811,-0.7461,-0.7582,-0.8032,-0.8608,-0.8231,-0.8619,-0.9454,-1.0034,-1.0174,-1.0107,-1.4168,-1.4121,0.0,-1.3858,-1.4275,-1.45,-1.4095,-1.4729,-1.5217,-1.511,-1.6278,-1.7082,-1.7017,-1.741,-1.7982,-1.8673,-1.8758,-1.8931,-1.9214,-1.9226,-1.9226,-1.9226,-1.9226,-1.9226,-1.9226,-1.9226,-1.9174,-1.9004,-1.875,0.0,0.0,0.0,0.0,-1.7099,-1.7099,-1.7251,-1.7546,-1.7264,-1.7194,-1.7316,-1.7331,-1.6684,-1.5911,-1.6513,-1.6684,-1.6616,-1.6549,-1.6036,-1.5332,-1.5089,-1.4373,-1.3545,-1.3243,-1.252,-1.1849,-1.1787,-1.1483,-1.1038,-1.0584,-1.0262,-0.9907,-0.9568,-0.9111,-0.8831,-0.9066,-0.8884,-0.8685,-0.8877,0.0,0.0,0.0,0.0,0.0,0.0,-0.8475,-0.8457,-0.8066,-0.8066,-0.8142,-0.817,-0.8207,-0.8243,-0.8284,-0.8292,-0.8484,-0.8839,-0.8919,-0.8857,-0.8586,-0.872,-0.8426,-0.7687,-0.7586,-0.7447,-0.7261,-0.6985,-0.6794,-0.6692,-0.6901,-0.7068,-0.7068,-0.7068,-0.7068,-0.7068,-0.7068,-0.7199,-0.7521,-0.7972,-0.8613,-0.932,-0.9198,-0.9448,-1.0028,-1.0351,-1.0725,-1.0958,-1.4307,0.0,-1.4419,-1.4259,-1.4904,-1.5235,-1.4806,-1.5372,-1.578,-1.5564,-1.6558,-1.7302,-1.7368,-1.7993,-1.8632,-1.9121,-1.9488,-1.9747,-1.9837,-1.9837,-1.9837,-1.9837,-1.9837,-1.9837,-1.9837,-1.9837,-1.9798,-1.9695,0.0,0.0,0.0,0.0,0.0,0.0,-1.7689,-1.779,-1.801,-1.7845,-1.7717,-1.7781,-1.792,-1.7562,-1.7059,-1.7244,-1.7312,-1.729,-1.7234,-1.6842,-1.6275,-1.6036,-1.5206,-1.4246,-1.4067,-1.3537,-1.3017,-1.2956,-1.2834,-1.2581,-1.1826,-1.1392,-1.101,-1.0382,-0.9968,-0.9748,-0.9759,-0.9711,-0.9587,-0.9736,-0.982,0.0,0.0,0.0,-0.9981,-0.9279,0.0,-0.9285,-0.8866,-0.8897,-0.8879,-0.8768,-0.9083,-0.9265,-0.9061,-0.9092,-0.9233,-0.9521,-0.9878,-0.9903,-0.9428,-0.9481,-0.9165,-0.8423,-0.8243,-0.8081,-0.794,-0.7785,-0.7571,-0.738,-0.7707,-0.7836,-0.7782,-0.7782,-0.7782,-0.7782,-0.7782,-0.7912,-0.8102,-0.8554,-0.9262,-1.0034,-1.0028,-1.0281,-1.0534,-1.0667,-1.1115,-1.1593,-1.5083,-1.4876,-1.4718,-1.4866,-1.5164,-1.5624,-1.6234,-1.6428,-1.6667,-1.7147,-1.7245,-1.7278,-1.7312,-1.8441,-1.9174,-1.9186,-2.0271,-2.0934,-2.0934,-2.0934,-2.0934,-2.0934,-2.0934,-2.0934,-2.0934,-2.0934,-2.0934,-2.0934,-2.0396,0.0,0.0,0.0,0.0,0.0,-1.8661,-1.8429,-1.8141,-1.8611,-1.8828,-1.8874,-1.9413,-1.9298,-1.8691,-1.7746,-1.7678,-1.803,-1.7755,-1.759,-1.729,-1.6415,-1.5968,-1.569,-1.5089,-1.4845,-1.4787,-1.4669,-1.4483,-1.4177,-1.3433,-1.3078,-1.2765,-1.2174,-1.1358,-1.0798,-1.0974,-1.0375,-0.9787,-0.9771,-0.9834,-0.9765,-0.9539,-0.9416,-0.9433,-0.9668,-0.996,0.0,0.0,-1.0787,-1.0875,-0.9937,-1.0631,-1.1139,-1.0899,-1.1086,-1.1129,-1.0888,-1.0669,-1.0541,-1.0519,-0.9602,-0.911,-0.938,-0.9105,-0.8918,-0.8992,-0.9329,-0.9355,-0.912,-0.8942,-0.8705,-0.849,-0.849,-0.849,-0.849,-0.849,-0.8812,-0.9454,-0.9454,-0.9907,-1.0561,-1.0744,-1.087,-1.1059,-1.124,-1.1428,-1.1622,-1.6955,-1.6749,-1.6384,-1.5629,-1.5864,-1.6222,-1.6438,-1.621,-1.6387,-1.7342,-1.779,-1.8298,-1.915,-1.9619,-2.0042,-2.0459,-2.0871,-2.118,-2.1277,-2.1277,-2.1277,-2.1277,-2.1277,-2.1277,-2.1277,-2.1277,-2.1229,-2.1131,-2.097,0.0,0.0,0.0,0.0,0.0,-1.8715,-1.8658,-1.8655,-1.8816,-1.8908,-1.8969,-1.9033,-1.8657,-1.808,-1.791,-1.7963,-1.8084,-1.7986,-1.781,-1.759,-1.7301,-1.6662,-1.5958,-1.5776,-1.5313,-1.4904,-1.4855,-1.4787,-1.466,-1.4323,-1.4076,-1.3768,-1.3078,-1.2581,-1.2174,-1.1811,-1.1453,-1.1219,-1.1393,-1.1322,-1.1249,-1.1301,-1.1266,-1.1024,-1.0493,-1.0736,-1.0854,0.0,-1.1128,-1.1853,-1.1517,-1.1401,-1.123,-1.0982,-1.1042,-1.1095,-1.1249,-1.1375,-1.1346,-1.1167,-1.1163,-1.0931,-1.0435,-1.0352,-1.0238,-1.0088,-0.9948,-0.9742,-0.9432,-0.9582,-0.9603,-0.9514,-0.9274,-0.9134,-0.9134,-0.9134,-0.9262,-0.9518,-1.004,-1.0364,-1.0624,-1.0624,-1.0744,-1.0933,-1.1178,-1.1435,-1.1685,-1.8177,-1.8061,-1.7659,-1.662,-1.6724,-1.6949,-1.7046,-1.6791,-1.6912,-1.7693,-1.8154,-1.8768,-1.9554,-2.0016,-2.0446,-2.0871,-2.1118,-2.1326,-2.1375,-2.1423,-2.1423,-2.1423,-2.1423,-2.1423,-2.1423,-2.1423,-2.1375,-2.1277,-2.1277,-2.1068,0.0,0.0,0.0,0.0,-1.9294,-1.9197,-1.9132,-1.9409,-1.9529,-1.9572,-1.9402,-1.9124,-1.8732,-1.8484,-1.829,-1.8127,-1.8247,-1.8193,-1.7975,-1.7865,-1.729,-1.6652,-1.6652,-1.6255,-1.5728,-1.5671,-1.5661,-1.5555,-1.5206,-1.5021,-1.4718,-1.3965,-1.3666,-1.3304,-1.2658,-1.2453,-1.2374,-1.2236,-1.2156,-1.213,-1.2087,-1.2071,-1.191,-1.1328,-1.169,-1.1838,0.0,-1.1988,-1.255,-1.2569,-1.2404,-1.2167,-1.1987,-1.1968,-1.2022,-1.1939,-1.2157,-1.2195,-1.1895,-1.2006,-1.1881,-1.1388,-1.1472,-1.1348,-1.102,-1.1082,-1.084,-1.0419,-1.0571,-1.0628,-1.0459,-1.0277,-1.0145,-1.0051,-1.0051,-1.0001,-0.9907,-1.0428,-1.0624,-1.0624,-1.0624,-1.0681,-1.0807,-1.1052,-1.1428,-1.1919,-1.8759,-1.8773,-1.8572,-1.7861,-1.7741,-1.7854,-1.8162,-1.8182,-1.8159,-1.8182,-1.8525,-1.8821,-1.8821,-1.9799,-2.0434,-2.0472,-2.1019,-2.1423,-2.1423,-2.1423,-2.1423,-2.1423,-2.1423,-2.1423,-2.1423,-2.1423,-2.1423,-2.1423,-2.1423,-2.1423,0.0,0.0,0.0,0.0,-2.0372,-1.9978,-1.9626,-2.0285,-2.0598,-2.061,-2.061,-2.0541,-2.0397,-1.9396,-1.8655,-1.8147,-1.8494,-1.8614,-1.856,-1.8247,-1.792,-1.7711,-1.7711,-1.7501,-1.7267,-1.7078,-1.7011,-1.6842,-1.6161,-1.5931,-1.5748,-1.4963,-1.4591,-1.4296,-1.3563,-1.3467,-1.3249,-1.2367,-1.2246,-1.224,-1.1862,-1.1809,-1.1861,-1.2169,-1.2607,-1.3014,-1.345,-1.3215,-1.3076,-1.3133,-1.3674,-1.3921,-1.3667,-1.3874,-1.3674,-1.2909,-1.3026,-1.3053,-1.2815,-1.2242,-1.2041,-1.2371,-1.2389,-1.2186,-1.1834,-1.2518,-1.2546,-1.1891,-1.1877,-1.1724,-1.145,-1.143,-1.1269,-1.0995,-1.0995,-1.0828,-1.0624,-1.0624,-1.0624,-1.0624,-1.0624,-1.0744,-1.0863,-1.0863,-1.1476,-1.2328,-2.0669,-2.0293,-1.9925,-1.9927,-1.8806,-1.8324,-1.9504,-1.9,-1.879,-1.9684,-1.9901,-2.0144,-2.0633,-2.0957,-2.1153,-2.1118,-2.1326,-2.1423,-2.1423,-2.1423,-2.1423,-2.1423,-2.1793,-2.1996,-2.1996,-2.1996,-2.1996,-2.1996,-2.1616,-2.1423,-2.1423,0.0,0.0,0.0,-2.0372,-1.9978,-1.9602,-1.9873,-2.0237,-2.061,-2.0586,-2.0106,-1.9329,-1.9078,-1.8655,-1.8147,-1.8709,-1.8774,-1.8614,-1.8506,-1.8139,-1.7711,-1.7711,-1.7501,-1.7278,-1.7211,-1.7211,-1.7145,-1.6786,-1.6729,-1.6492,-1.5603,-1.5313,-1.508,-1.4341,-1.4114,-1.3796,-1.3103,-1.2907,-1.2639,-1.1941,-1.1814,-1.1851,-1.2036,-1.2427,-1.2834,-1.323,-1.3264,-1.3147,-1.2777,-1.3097,-1.3398,-1.3607,-1.3307,-1.3086,-1.3093,-1.2953,-1.2732,-1.2432,-1.2883,-1.3056,-1.3,-1.3202,-1.3095,-1.281,-1.3048,-1.2786,-1.2184,-1.1977,-1.183,-1.175,-1.1523,-1.1269,-1.0995,-1.0995,-1.0828,-1.0624,-1.0624,-1.0624,-1.0624,-1.1115,-1.16,-1.202,-1.1965,-1.2143,-1.2533,-2.1803,-2.1143,-2.0692,-2.1068,-2.0105,-1.942,-2.0085,-1.9556,-1.9333,-2.0181,-2.0321,-2.0523,-2.1055,-2.1264,-2.1423,-2.1423,-2.1423,-2.1423,-2.1423,-2.1423,-2.152,-2.1746,-2.2044,-2.2324,-2.2495,-2.231,-2.2184,-2.2184,-2.1664,-2.1423,-2.1423,0.0,0.0,0.0,-2.0709,-2.0321,-2.0067,-2.0122,-2.0442,-2.0935,-2.067,-2.0222,0.0,-1.9168,-1.8762,-1.8548,-1.8881,-1.8881,-1.8774,-1.8774,-1.8452,-1.8084,-1.8084,-1.7865,-1.7656,-1.749,-1.749,-1.7434,-1.72,-1.7145,-1.6965,-1.6368,-1.6187,-1.6016,-1.5157,-1.5006,-1.4842,-1.4019,-1.3752,-1.3559,-1.2981,-1.2894,-1.3035,-1.341,-1.3752,-1.4041,-1.4163,-1.4275,-1.4028,-1.3273,-1.341,-1.3417,-1.3358,-1.2903,-1.2679,-1.2986,-1.2923,-1.2748,-1.2505,-1.3106,-1.3313,-1.3019,-1.342,-1.344,-1.3013,-1.314,-1.2906,-1.2298,-1.2138,-1.2058,-1.2051,-1.175,-1.1463,-1.1176,-1.1049,-1.0828,-1.0624,-1.0624,-1.0744,-1.1059,-1.1663,-1.2274,-1.2757,-1.294,-1.3122,-1.3245,-2.2522,-2.1613,-2.107,-2.1758,-2.1308,-2.0759,-2.0422,-2.0067,-1.9965,-2.0321,-2.0385,-2.0523,-2.0894,-2.1264,-2.1471,-2.152,-2.152,-2.1471,-2.1471,-2.1471,-2.1664,-2.2091,-2.2217,-2.2495,-2.2889,-2.2586,-2.2399,-2.239,-2.1882,-2.1595,0.0,0.0,0.0,-2.1841,-2.1153,-2.0759,-2.0524,-2.0551,-2.0815,-2.1163,-2.0742,-2.055,-2.0394,-1.9372,-1.8987,-1.8987,-1.8987,-1.8987,-1.8987,-1.8987,-1.8827,-1.8614,-1.8614,-1.8344,-1.803,-1.7767,-1.7711,-1.7656,-1.739,-1.7278,-1.7267,-1.7067,-1.7011,-1.6775,-1.5901,-1.5979,-1.5909,-1.484,-1.4684,-1.4689,-1.4276,-1.4276,-1.4565,-1.5106,-1.5446,-1.5581,-1.539,-1.5432,-1.5072,-1.4064,-1.3986,0.0,-1.3205,-1.2594,-1.2398,-1.2856,-1.2882,-1.2869,-1.2829,-1.308,-1.3106,-1.2835,-1.3253,-1.3273,-1.2829,-1.3013,-1.2866,-1.2305,-1.2305,-1.2305,-1.2291,-1.2044,-1.1764,-1.147,-1.135,-1.1132,-1.086,-1.0882,-1.1276,-1.1787,-1.2389,-1.2911,-1.338,-1.3985,-1.4234,-1.4231,-2.3702,-2.2458,-2.1614,-2.2733,-2.2055,-2.1264,-2.1215,-2.1118,-2.1118,-2.1166,-2.1166,-2.1313,-2.1602,-2.1712,-2.1793,-2.2044,-2.2044,-2.1996,-2.1746,-2.1746,-2.1664,-2.1568,-2.2342,-2.2799,-2.2889,-2.3201,-2.3422,-2.3533,-2.2922,-2.2597,0.0,0.0,-2.2091,-2.2091,-2.1431,-2.0733,-2.0118,-2.0465,-2.0394,-2.0093,-2.0466,-2.0334,-1.9865,-1.9227,-1.8987,-1.8987,-1.8987,-1.8987,-1.8987,-1.8987,-1.8827,-1.8614,-1.8614,-1.8344,-1.803,-1.7767,-1.7711,-1.7656,-1.739,-1.7278,-1.7267,-1.7067,-1.7011,-1.6899,-1.6503,-1.6462,-1.6263,-1.543,-1.5234,-1.5077,-1.4341,-1.4276,-1.4452,-1.453,-1.5002,-1.5222,-1.4913,-1.5019,-1.479,-1.3843,-1.3778,-1.3778,-1.3934,-1.2796,-1.2418,-1.3066,-1.3126,-1.3019,-1.2835,-1.3267,-1.332,-1.2842,-1.2923,-1.2929,-1.2822,-1.2876,-1.2652,-1.2305,-1.2305,-1.2305,-1.2305,-1.2245,-1.2064,-1.1861,-1.2423,-1.2492,-1.2247,-1.2569,-1.2853,-1.3139,-1.326,-1.3996,-1.5026,-1.5219,-1.5402,-1.5419,-2.3187,-2.2481,-2.1966,-2.22,-2.2061,-2.1776,-2.1464,-2.1423,-2.1423,-2.1423,-2.1361,-2.1396,-2.1746,-2.1949,-2.2044,-2.2184,-2.2184,-2.2137,-2.2044,-2.1996,-2.2123,-2.2388,-2.2859,-2.326,-2.3595,-2.3696,-2.3584,-2.3339,-2.3491,-2.3109,-2.2235,-2.2715,-2.2715,-2.2184,-2.1636,-2.1166,-2.0746,-2.1007,-2.077,-2.0237,-2.0514,-2.0286,-1.972,-1.9191,-1.8987,-1.8987,-1.8987,-1.8987,-1.8987,-1.8987,-1.904,-1.9093,-1.8881,-1.8827,-1.8827,-1.856,-1.8506,-1.8441,-1.8344,-1.829,-1.8236,-1.8061,-1.7776,-1.7501,-1.729,-1.7011,-1.6673,-1.6104,-1.5989,-1.5874,-1.541,-1.5696,-1.5918,-1.5699,-1.6185,-1.6515,-1.6038,-1.603,-1.5752,-1.4905,-1.4558,-1.4473,-1.4447,-1.3747,-1.3474,-1.4089,-1.378,-1.3439,-1.3198,-1.3321,-1.314,-1.2532,-1.2741,-1.2748,-1.2518,-1.2741,-1.2599,-1.2305,-1.2732,-1.2952,-1.2945,-1.3143,-1.3197,-1.3112,-1.3279,-1.3315,-1.3204,-1.3509,-1.3706,-1.3838,-1.396,-1.4487,-1.5292,-1.5906,-1.6287,-1.6367,-2.2883,-2.2532,-2.2156,-2.1743,-2.1983,-2.2051,-2.1636,-2.1459,-2.137,-2.1444,-2.1287,-2.1356,-2.1921,-2.2011,-2.2136,-2.231,-2.237,-2.2324,-2.2278,-2.2278,-2.254,-2.3127,-2.326,-2.361,-2.4177,-2.3967,-2.3626,-2.3198,-2.3746,-2.347,-2.2516,-2.3155,-2.2998,-2.2184,-2.1931,-2.1745,-2.1641,-2.1629,-2.1269,-2.0657,-2.0487,-2.0105,-1.9564,-1.9143,-1.8987,-1.8987,-1.8987,-1.8987,-1.8975,-1.8867,-1.9153,-1.9565,-1.9251,-1.9396,-1.9656,-1.9396,-1.9331,-1.9331,-1.9291,-1.9226,-1.9186,-1.9093,-1.8655,-1.8267,-1.8104,-1.7722,-1.7357,-1.7242,-1.7162,-1.7116,-1.6956,-1.7301,-1.7538,-1.7251,-1.7698,-1.7862,-1.7379,-1.7194,-1.6835,-1.6282,-1.569,-1.5366,-1.5327,-1.5068,-1.5007,-1.5316,-1.4623,-1.4014,-1.376,-1.3722,-1.339,-1.2826,-1.3112,-1.3154,-1.291,-1.3084,-1.3049,-1.2806,-1.3455,-1.3745,-1.3738,-1.4112,-1.4274,-1.4258,-1.4182,-1.4213,-1.4247,-1.4405,-1.4388,-1.4337,-1.4583,-1.4909,-1.5388,-1.6497,-1.7007,-1.713,-2.439,-2.3259,-2.2342,-2.2537,-2.2159,-2.191,-2.2091,-2.1615,-2.137,-2.1724,-2.1258,-2.1319,-2.2406,-2.201,-2.1985,-2.2754,-2.2843,-2.2752,-2.2555,-2.2555,-2.2646,-2.2754,-2.3143,-2.3551,-2.3839,-2.3994,-2.4068,-2.4099,-2.3614,-2.3833,-2.4684,-2.3252,-2.2445,-2.2212,-2.2346,-2.2396,-2.2392,-2.1887,-2.1361,-2.0797,-2.0116,-1.954,-1.9059,-1.9011,-1.8987,-1.8987,-1.8987,-1.8987,-1.8915,-1.8434,-1.8848,-1.9617,-1.9565,-1.9823,-2.008,-1.9811,-1.9747,-1.9695,-1.9423,-1.9279,-1.9186,-1.9186,-1.9028,-1.8869,-1.8673,-1.8555,-1.863,-1.9057,-1.9051,-1.8894,-1.8725,-1.8316,-1.8126,-1.8447,-1.8471,-1.8239,-1.7739,-1.7482,-1.736,-1.7422,-1.6708,-1.6397,-1.6939,-1.6899,-1.6768,-1.6546,-1.5523,-1.484,-1.4585,-1.4893,-1.4851,-1.4402,-1.4731,-1.4985,-1.4946,-1.4582,-1.4418,-1.4386,-1.4458,-1.453,-1.453,-1.4569,-1.4554,-1.4625,-1.5309,-1.5748,-1.6021,-1.5669,-1.536,-1.4994,-1.5112,-1.5476,-1.6176,-1.7389,-1.7669,-1.7541,-2.3585,-2.3114,-2.2547,-2.1779,-2.1833,-2.1792,-2.1142,-2.0834,-2.0764,-2.1091,-2.0922,-2.0953,-2.1412,-2.17,-2.196,-2.2352,-2.2671,-2.2843,-2.2797,-2.2797,-2.2873,-2.3038,-2.3421,-2.3739,-2.3994,-2.3979,-2.3887,-2.3718,-2.3971,-2.3834,-2.3331,-2.3435,-2.3191,-2.2726,-2.2804,-2.2798,-2.2731,-2.2485,-2.1727,-2.0573,-2.0261,-1.9672,-1.8987,-1.8987,-1.8987,-1.8987,-1.8987,-1.8782,-1.8533,-1.8519,-1.8933,-1.9346,-1.8734,-1.8965,-1.9448,-1.9352,-1.9339,-1.9339,-1.9352,-1.9549,-1.977,-1.9571,-1.9521,-1.9448,-1.9371,-1.9109,-1.8917,-1.8988,-1.9175,-1.9383,-1.9643,-1.9355,-1.908,-1.9011,-1.8817,-1.8521,-1.8003,-1.7767,-1.7746,-1.7765,-1.7366,-1.7263,-1.7843,-1.8369,-1.8301,-1.7419,-1.6766,-1.628,-1.5833,-1.5724,-1.5672,-1.5519,-1.5105,-1.4927,-1.5224,-1.4784,-1.4601,-1.4601,-1.5108,-1.533,-1.533,-1.5754,-1.5965,-1.5965,-1.6333,-1.6531,-1.6615,-1.6281,-1.6043,-1.5889,-1.5684,-1.5926,-1.6509,-1.8061,-1.8654,-1.8932,-2.3105,-2.3042,-2.2664,-2.1328,-2.1591,-2.1643,-2.067,-2.0232,-2.0105,-2.0273,-2.0329,-2.0513,-2.1026,-2.1643,-2.2062,-2.2251,-2.2627,-2.2888,-2.2888,-2.2888,-2.3023,-2.3304,-2.3566,-2.3824,-2.4078,-2.3937,-2.3724,-2.3377,-2.3852,-2.3728,-2.3065,-2.4156,-2.4081,-2.3105,-2.3322,-2.322,-2.2929,-2.2669,-2.1838,-2.0721,-2.0196,-1.958,-1.8987,-1.8987,-1.8987,-1.8963,-1.8819,-1.8518,-1.8208,-1.8228,-1.8493,-1.8729,-1.8229,-1.8528,-1.9035,-1.9035,-1.9035,-1.9035,-1.9288,-1.9594,-1.9847,-1.9843,-1.9842,-1.9876,-2.0029,-1.9759,-1.9497,-1.9462,-1.9873,-2.0305,-2.0613,-2.0571,-2.0292,-1.9764,-1.9562,-1.9282,-1.8698,-1.8457,-1.8352,-1.8447,-1.8098,-1.7991,-1.8362,-1.9056,-1.901,-1.7988,-1.7947,-1.7516,-1.6395,-1.6543,-1.6527,-1.6297,-1.5783,-1.5685,-1.5953,-1.5513,-1.5251,-1.5251,-1.5833,-1.6114,-1.6114,-1.6691,-1.6908,-1.6908,-1.6908,-1.6968,-1.712,-1.674,-1.6757,-1.6977,-1.6585,-1.6775,-1.7438,-1.8818,-1.9572,-1.9947,-2.3612,-2.3271,-2.2794,-2.1766,-2.1597,-2.147,-2.1048,-2.0085,-1.9388,-1.9443,-1.9443,-2.0074,-2.1801,-2.1989,-2.2251,-2.283,-2.2888,-2.2888,-2.2888,-2.2888,-2.3053,-2.3363,-2.3406,-2.3623,-2.4078,-2.3909,-2.3668,-2.3319,-2.3038,-2.3635,-2.5081,-2.5678,-2.4968,-2.3119,-2.3794,-2.3723,-2.3049,-2.2025,-2.1615,-2.1459,-1.9723,-1.8999,-1.8987,-1.8987,-1.8987,-1.8915,-1.8398,-1.8205,-1.8087,-1.7378,-1.7338,-1.7709,-1.829,-1.8793,-1.908,-1.908,-1.9035,-1.908,-1.9423,-1.9333,-1.9284,-1.9832,-1.9895,-1.9969,-2.0568,-2.0699,-2.0819,-2.1186,-2.1742,-2.2089,-2.1898,-2.1924,-2.1703,-2.0994,-2.0978,-2.0787,-1.9976,-1.9461,-1.9331,-1.9747,-1.9026,-1.852,-1.8667,-1.8817,-1.8674,-1.8162,-1.8912,-1.8364,-1.5959,-1.7389,-1.7846,-1.6817,-1.7451,-1.7729,-1.78,-1.718,-1.6908,-1.6908,-1.6908,-1.6908,-1.6908,-1.6908,-1.6908,-1.6908,-1.6908,-1.7176,-1.7677,-1.7254,-1.7585,-1.83,-1.7839,-1.8228,-1.9052,-1.9889,-2.0205,-2.0205,-2.2898,-2.2214,-2.1355,-2.0456,-2.0452,-2.0304,-1.943,-1.9002,-1.8831,-1.8907,-1.9277,-1.9883,-2.083,-2.1568,-2.2077,-2.228,-2.2642,-2.2888,-2.2888,-2.2888,-2.2933,-2.3053,-2.329,-2.3421,-2.3436,-2.3201,-2.3024,-2.2889,-2.2586,-2.2648,-2.3155,-2.3928,-2.3772,-2.2845,-2.3694,-2.3574,-2.2804,-2.2001,-2.125,-2.0566,-1.9731,-1.9251,-1.8987,-1.8987,-1.8987,-1.8963,-1.8806,-1.8277,-1.7702,-1.7909,-1.742,-1.6785,-1.725,-1.7833,-1.8257,-1.8257,-1.8187,-1.8102,-1.8131,-1.8326,-1.8587,-1.9134,-1.9546,-1.9956,-2.0568,-2.0699,-2.0987,-2.1837,-2.2189,-2.2554,-2.3293,-2.2687,-2.2176,-2.2311,-2.1307,-2.0526,-2.0683,-2.0553,-2.0434,-2.0497,-2.0563,-2.0437,-2.0042,-2.0603,-2.0511,-1.9223,-2.0745,-2.0651,-1.8176,-1.8304,-1.8458,-1.8419,-1.7789,-1.7511,-1.78,-1.718,-1.6908,-1.6908,-1.6908,-1.6908,-1.6899,-1.6633,-1.6847,-1.7423,-1.7139,-1.7273,-1.7784,-1.7955,-1.7945,-1.7871,-1.8367,-1.8817,-1.9356,-1.9959,-2.0546,-2.1092,-2.2212,-2.1542,-2.0758,-1.999,-1.9969,-1.9753,-1.8638,-1.8344,-1.8205,-1.8135,-1.8842,-1.9436,-1.9525,-2.0889,-2.188,-2.2073,-2.2431,-2.2706,-2.2888,-2.2888,-2.2888,-2.2888,-2.3098,-2.3157,-2.3038,-2.2844,-2.2709,-2.2526,-2.2456,-2.2393,-2.2393,-2.33,-2.3371,-2.2719,-2.3392,-2.3075,-2.2101,-2.1515,-2.0797,-1.9926,-1.9565,-1.9198,-1.8987,-1.8987,-1.8987,-1.8963,-1.8758,-1.8145,-1.7472,-1.7809,-1.718,-1.6355,-1.6863,-1.7295,-1.7625,-1.7502,-1.7419,-1.7432,-1.7461,-1.7629,-1.8004,-1.8715,-1.9185,-1.9682,-2.0529,-2.0699,-2.0974,-2.1851,-2.2034,-2.2269,-2.3001,-2.2824,-2.2497,-2.2418,-2.1758,-2.1266,-2.1374,-2.1368,-2.1272,-2.1161,-2.1452,-2.1452,-2.1042,-2.1506,-2.1407,-2.03,-2.1433,-2.1448,-1.9815,-1.9684,-1.9562,-1.9287,-1.8131,-1.7736,-1.804,-1.7067,-1.6591,-1.6688,-1.6688,-1.6747,-1.6934,-1.684,-1.7245,-1.7915,-1.7563,-1.7835,-1.8468,-1.8545,-1.8539,-1.8594,-1.8897,-1.9481,-2.0177,-2.0265,-2.087,-2.1616,-2.1454,-2.1097,-2.0643,-2.0038,-1.9951,-1.9577,-1.8559,-1.8028,-1.7652,-1.7251,-1.8218,-1.8734,-1.817,-1.9987,-2.1513,-2.1974,-2.2109,-2.237,-2.2843,-2.2843,-2.2843,-2.2843,-2.2843,-2.2828,-2.2844,-2.2844,-2.2618,-2.2184,-2.2547,-2.2713,-2.2649,-2.361,-2.3518,-2.2636,-2.2937,-2.2394,-2.1224,-2.0746,-2.0207,-1.9617,-1.9146,-1.8987,-1.8987,-1.8987,-1.8987,-1.8915,-1.8386,-1.7869,-1.7376,-1.718,-1.6727,-1.6355,-1.6976,-1.7157,-1.7073,-1.685,-1.6863,-1.7015,-1.7321,-1.7308,-1.7473,-1.8623,-1.8963,-1.9316,-2.045,-2.0699,-2.0869,-2.1394,-2.1511,-2.1525,-2.1616,-2.2378,-2.2728,-2.1708,-2.2339,-2.2692,-2.208,-2.1969,-2.1927,-2.1805,-2.1791,-2.1758,-2.1657,-2.1657,-2.1527,-2.1291,-2.1249,-2.1183,-2.0942,-2.1319,-2.0907,-1.9427,-1.8575,-1.8277,-1.8475,-1.6775,-1.6076,-1.6276,-1.6276,-1.6523,-1.6967,-1.7466,-1.7905,-1.835,-1.8235,-1.8733,-1.9548,-1.9061,-1.9315,-2.0016,-1.9568,-2.0165,-2.1281,-2.0643,-2.1095,-2.191,-1.974,-1.9373,-1.8934,-1.8436,-1.8328,-1.8166,-1.757,-1.7393,-1.7356,-1.7333,-1.7961,-1.8329,-1.819,-1.9353,-2.0178,-2.0188,-2.1233,-2.2137,-2.2661,-2.2463,-2.237,-2.237,-2.237,-2.2278,-2.2077,-2.2077,-2.203,-2.1902,-2.1993,-2.2014,-2.2028,-2.293,-2.2839,-2.2042,-2.2623,-2.2436,-2.1589,-2.0673,-2.0169,-1.9978,-1.9303,-1.8987,-1.8987,-1.8987,-1.8987,-1.8915,-1.8386,-1.7869,-1.7376,-1.718,-1.6459,-1.5812,-1.6582,-1.6667,-1.6625,-1.7131,-1.7295,-1.7321,-1.7363,-1.7308,-1.7473,-1.8623,-1.9577,-2.0358,-2.0633,-2.0699,-2.0869,-2.1394,-2.1511,-2.1747,-2.259,-2.2571,-2.2665,-2.3197,-2.2742,-2.2418,-2.2692,-2.2719,-2.2603,-2.2498,-2.283,-2.283,-2.2175,-2.2128,-2.2088,-2.1957,-2.1891,-2.2008,-2.2403,-2.2262,-2.135,-1.9527,-1.9043,-1.8533,-1.7999,-1.703,-1.6367,-1.5835,-1.5835,-1.6095,-1.6546,-1.7042,-1.7815,-1.8913,-1.8488,-1.8757,-1.9579,-1.9345,-1.9344,-1.9492,-1.9934,-2.0531,-2.1071,-2.0901,-2.1297,-2.1779,-1.8934,-1.8575,-1.824,-1.7841,-1.776,-1.7585,-1.7173,-1.7102,-1.7093,-1.6948,-1.7476,-1.7727,-1.7463,-1.8643,-1.937,-1.9231,-2.0417,-2.1348,-2.1827,-2.1888,-2.1949,-2.1949,-2.2091,-2.2091,-2.1793,-2.1793,-2.1746,-2.1616,-2.1616,-2.1616,-2.1616,-2.209,-2.2063,-2.163,-2.2118,-2.1966,-2.1299,-2.0858,-2.0359,-1.9875,-1.9448,-1.9146,-1.8987,-1.8987,-1.8987,-1.8951,-1.8662,-1.8022,-1.729,-1.7394,-1.6633,-1.5756,-1.6595,-1.6723,-1.668,-1.7282,-1.7432,-1.7404,-1.7404,-1.7505,-1.7891,-1.9028,-1.9982,-2.0699,-2.0699,-2.0699,-2.0791,-2.1054,-2.131,-2.1605,-2.2231,-2.2448,-2.276,-2.3339,-2.3048,-2.2886,-2.3233,-2.3228,-2.3201,-2.3098,-2.3392,-2.3348,-2.2889,-2.2799,-2.2701,-2.262,-2.2528,-2.271,-2.3245,-2.2757,-2.1981,-2.0877,-1.9871,-1.9138,-1.8848,-1.7492,-1.6572,-1.6042,-1.6042,-1.6282,-1.6787,-1.7405,-1.8124,-1.901,-1.8803,-1.9101,-1.97,-1.9538,-1.9466,-1.942,-2.0097,-2.0572,-2.0987,-2.0927,-2.1237,-2.1692,-1.8376,-1.8112,-1.7895,-1.7516,-1.7503,-1.738,-1.6964,-1.6909,-1.6795,-1.6436,-1.6935,-1.7117,-1.6498,-1.7922,-1.8843,-1.8639,-1.9615,-2.0459,-2.0979,-2.1299,-2.1506,-2.1568,-2.1902,-2.1996,-2.1746,-2.1746,-2.1616,-2.1423,-2.1423,-2.1423,-2.1423,-2.1423,-2.1423,-2.1423,-2.1664,-2.1396,-2.0894,-2.1091,-2.0597,-1.9668,-1.9604,-1.9356,-1.8987,-1.8987,-1.8939,-1.8867,-1.8814,-1.81,-1.724,-1.7618,-1.7032,-1.6264,-1.7033,-1.7205,-1.7218,-1.7571,-1.7668,-1.7629,-1.7402,-1.7807,-1.8479,-1.9538,-2.0231,-2.0699,-2.0699,-2.0749,-2.0799,-2.0799,-2.118,-2.1554,-2.1602,-2.2328,-2.2934,-2.2979,-2.3334,-2.3638,-2.3696,-2.3696,-2.3724,-2.3809,-2.3724,-2.3696,-2.3596,-2.3407,-2.3334,-2.3259,-2.3051,-2.3154,-2.3724,-2.2921,-2.2432,-2.2322,-2.0689,-1.9769,-1.9708,-1.7852,-1.6714,-1.6397,-1.6467,-1.6697,-1.7168,-1.7924,-1.8522,-1.8896,-1.9179,-1.9606,-2.0006,-1.9719,-1.9706,-1.9936,-2.0297,-2.0708,-2.1043,-2.1036,-2.1242,-2.157,-1.6978,-1.6944,-1.6879,-1.6479,-1.6522,-1.6522,-1.6362,-1.6436,-1.6436,-1.6231,-1.6712,-1.6848,-1.6305,-1.7686,-1.845,-1.7811,-1.8755,-1.9862,-2.1091,-2.1042,-2.1055,-2.1423,-2.1471,-2.152,-2.1471,-2.1471,-2.1423,-2.1423,-2.1423,-2.1423,-2.1423,-2.1423,-2.1423,-2.1423,-2.1423,-2.141,-2.1264,-2.1006,-2.056,-2.008,-1.972,-1.9356,-1.8987,-1.8987,-1.871,-1.8274,-1.8069,-1.7867,-1.7677,-1.7509,-1.758,-1.7809,-1.8239,-1.8318,-1.8396,-1.8766,-1.8824,-1.86,-1.7515,-1.797,-1.8937,-1.963,-2.0231,-2.0699,-2.0699,-2.0997,-2.1277,-2.1277,-2.1684,-2.2142,-2.2558,-2.2799,-2.3024,-2.3421,-2.3551,-2.3739,-2.4135,-2.4177,-2.4328,-2.4664,-2.4395,-2.4135,-2.4036,-2.3668,-2.3615,-2.3902,-2.2973,-2.2822,-2.3797,-2.2753,-2.2022,-2.1893,-2.0945,-1.9621,-1.7845,-1.724,-1.6654,-1.5984,-1.6317,-1.6593,-1.6707,-1.7786,-1.8522,-1.8896,-1.9179,-1.9977,-2.0977,-2.0026,-2.0295,-2.1368,-2.1419,-2.1425,-2.1403,-2.1907,-2.1799,-2.1448,-1.6497,-1.6552,-1.6509,-1.6175,-1.6132,-1.6175,-1.6088,-1.6132,-1.6175,-1.61,-1.6622,-1.6913,-1.6655,-1.7823,-1.8473,-1.808,-1.8721,-1.9525,-2.0295,-2.0409,-2.0573,-2.0723,-2.1166,-2.1423,-2.1423,-2.1423,-2.1423,-2.1423,-2.1423,-2.1423,-2.1423,-2.1423,-2.1423,-2.1423,-2.1423,-2.1423,-2.1375,-2.1215,-2.0772,-2.0182,-1.9978,-1.9565,-1.8987,-1.8987,-1.8843,-1.8626,-1.847,-1.8316,-1.8204,-1.8326,-1.8321,-1.8342,-1.8832,-1.8865,-1.8806,-1.9028,-1.9087,-1.9035,-1.8708,-1.8989,-1.9525,-2.0113,-2.0502,-2.0699,-2.0699,-2.1033,-2.1423,-2.1423,-2.2002,-2.2603,-2.2844,-2.3113,-2.3334,-2.3551,-2.3824,-2.4036,-2.4261,-2.4492,-2.4679,-2.4863,-2.4719,-2.4599,-2.4558,-2.4297,-2.417,-2.4275,-2.3511,-2.3403,-2.4115,-2.3049,-2.2322,-2.2179,-2.0894,-1.9503,-1.8061,-1.7941,-1.7512,-1.6853,-1.718,-1.7424,-1.7639,-1.8215,-1.8827,-1.9468,-1.9468,-1.9912,-2.0686,-2.0374,-2.081,-2.168,-2.1565,-2.1659,-2.1925,-2.2424,-2.2405,-2.2207,-1.6238,-1.625,-1.6262,-1.6001,-1.6001,-1.6037,-1.6126,-1.6073,-1.6086,-1.6296,-1.6678,-1.6956,-1.7078,-1.7946,-1.8471,-1.837,-1.8867,-1.9223,-1.946,-1.9823,-2.0118,-2.0321,-2.1019,-2.1423,-2.1423,-2.1423,-2.1423,-2.1423,-2.1423,-2.1423,-2.1423,-2.1423,-2.1423,-2.1423,-2.1423,-2.1423,-2.1423,-2.1423,-2.0934,-2.0182,-2.0182,-1.972,-1.8987,-1.8987,-1.8967,-1.8976,-1.9044,-1.8937,-1.8846,-1.9245,-1.9236,-1.9055,-1.9516,-1.9516,-1.9376,-1.9436,-1.9482,-1.9501,-1.9721,-1.9799,-1.9943,-2.0568,-2.0799,-2.0848,-2.0848,-2.1326,-2.1746,-2.1746,-2.2466,-2.3068,-2.3068,-2.3377,-2.3653,-2.3724,-2.4036,-2.4385,-2.4574,-2.4823,-2.5098,-2.5192,-2.5098,-2.5059,-2.5059,-2.4847,-2.4751,-2.4704,-2.4193,-2.4038,-2.4462,-2.3439,-2.2686,-2.2309,-2.0625,-1.945,-1.8774,-1.8667,-1.8344,-1.7822,-1.7975,-1.8235,-1.8419,-1.8639,-1.9138,-1.9824,-1.9738,-2.0041,-2.0565,-2.0712,-2.1202,-2.1807,-2.1754,-2.1915,-2.2278,-2.2879,-2.2922,-2.2763,-1.5913,-1.5836,-1.5836,-1.5836,-1.5913,-1.6126,-1.6486,-1.6227,-1.6308,-1.7171,-1.6907,-1.681,-1.7303,-1.7869,-1.8256,-1.8205,-1.8686,-1.904,-1.904,-1.9408,-1.9965,-2.0696,-2.1166,-2.1423,-2.1423,-2.1423,-2.1423,-2.1423,-2.1423,-2.1423,-2.1423,-2.1423,-2.1423,-2.1423,-2.1423,-2.1423,-2.1423,-2.1423,-2.0934,-2.0182,-2.0182,-1.972,-1.8987,-1.8987,-1.8934,-1.882,-1.9108,-1.9396,-1.9742,-1.9913,-2.0332,-2.0766,-2.0617,-2.0644,-2.0706,-2.0644,-2.0581,-2.0476,-1.9943,-1.9799,-1.9943,-2.0568,-2.1033,-2.1375,-2.1375,-2.2109,-2.2799,-2.2799,-2.3201,-2.3551,-2.3551,-2.3551,-2.3739,-2.4177,-2.4261,-2.4574,-2.5313,-2.5427,-2.561,-2.6043,-2.5721,-2.5465,-2.5465,-2.5121,-2.5091,-2.5571,-2.4803,-2.4434,-2.4686,-2.3837,-2.2843,-2.1719,-2.0322,-1.9497,-1.9186,-1.8762,-1.8398,-1.8084,-1.8084,-1.8107,-1.8141,-1.8839,-1.9198,-1.9287,-1.9875,-2.0682,-2.1549,-2.1033,-2.1352,-2.2305,-2.2501,-2.2269,-2.2,-2.3384,-2.3175,-2.2503,-1.6257,-1.6284,-1.6284,-1.6284,-1.6594,-1.6821,-1.6642,-1.6773,-1.7002,-1.7364,-1.752,-1.7676,-1.7881,-1.8374,-1.8698,-1.8698,-1.8867,-1.8987,-1.8987,-1.9146,-1.9708,-2.0746,-2.0957,-2.1153,-2.1361,-2.1423,-2.1423,-2.1423,-2.1423,-2.1423,-2.1423,-2.1423,-2.1423,-2.1423,-2.1423,-2.1423,-2.1361,-2.1104,-2.0723,-2.0182,-1.9926,-1.9512,-1.904,-1.9303,-1.9325,-1.9331,-1.962,-1.9952,-2.0273,-2.0244,-2.0549,-2.0924,-2.0825,-2.0775,-2.0775,-2.0699,-2.0699,-2.0709,-2.078,-2.0567,-2.0473,-2.0979,-2.1277,-2.1458,-2.1779,-2.2374,-2.2889,-2.2889,-2.329,-2.3595,-2.3595,-2.3824,-2.4094,-2.4261,-2.4719,-2.516,-2.5465,-2.5758,-2.599,-2.6168,-2.6043,-2.5937,-2.5937,-2.5791,-2.5756,-2.5825,-2.5234,-2.4708,-2.4472,-2.3467,-2.2632,-2.1996,-2.1091,-2.0346,-1.9811,-1.9656,-1.9344,-1.8762,-1.9186,-1.9356,-1.9292,-1.9648,-2.0142,-2.0694,-2.0615,-2.0941,-2.1502,-2.126,-2.1713,-2.2514,-2.2242,-2.2332,-2.2686,-2.3427,-2.3396,-2.315,-1.6798,-1.6871,-1.6871,-1.6871,-1.7171,-1.7352,-1.7147,-1.7291,-1.7434,-1.7594,-1.7972,-1.8214,-1.8163,-1.8665,-1.8987,-1.8987,-1.8987,-1.8987,-1.8987,-1.8987,-1.9448,-2.0396,-2.056,-2.0809,-2.1215,-2.1215,-2.1264,-2.1423,-2.1423,-2.1423,-2.1423,-2.1423,-2.1423,-2.1423,-2.1423,-2.1423,-2.1361,-2.0957,-2.051,-2.0016,-1.9656,-1.9303,-1.904,-1.9303,-1.9604,-1.9862,-2.0055,-2.0359,-2.0723,-2.0586,-2.0712,-2.0888,-2.0838,-2.0762,-2.0699,-2.0699,-2.0799,-2.0997,-2.1326,-2.1264,-2.1215,-2.1554,-2.1732,-2.1969,-2.2282,-2.274,-2.3113,-2.3113,-2.3377,-2.3595,-2.3595,-2.3994,-2.4343,-2.4451,-2.5059,-2.554,-2.5721,-2.599,-2.622,-2.622,-2.622,-2.622,-2.622,-2.622,-2.6132,-2.6007,-2.5546,-2.4989,-2.44,-2.3392,-2.2723,-2.2495,-2.186,-2.1237,-2.0723,-2.0372,-1.9965,-1.95,-1.9978,-2.0167,-2.0097,-2.0297,-2.0781,-2.1464,-2.1215,-2.1299,-2.1664,-2.1664,-2.1994,-2.2519,-2.2197,-2.2404,-2.3017,-2.3474,-2.3544,-2.3615,-1.7424,-1.7424,-1.7424,-1.7424,-1.7424,-1.7604,-1.8121,-1.776,-1.7547,-1.802,-1.8154,-1.8191,-1.8101,-1.8655,-1.8987,-1.8987,-1.8987,-1.8987,-1.8987,-1.8987,-1.9198,-1.9565,-1.9978,-2.0372,-2.0795,-2.0795,-2.1006,-2.1423,-2.1423,-2.1423,-2.1423,-2.1423,-2.1423,-2.1423,-2.1423,-2.1423,-2.1361,-2.0957,-2.0396,-1.9747,-1.9384,-1.9133,-1.8987,-1.8987,-1.9604,-2.0422,-2.0422,-2.0673,-2.0997,-2.0938,-2.0901,-2.0888,-2.0762,-2.0699,-2.0699,-2.0699,-2.1033,-2.1423,-2.1423,-2.1732,-2.2128,-2.2128,-2.2512,-2.2889,-2.2889,-2.329,-2.3595,-2.3595,-2.3595,-2.3595,-2.3595,-2.3994,-2.4426,-2.4823,-2.5237,-2.5684,-2.6115,-2.622,-2.622,-2.622,-2.622,-2.622,-2.622,-2.622,-2.622,-2.622,-2.584,-2.5294,-2.4539,-2.3809,-2.3334,-2.3127,-2.254,-2.2091,-2.1793,-2.0772,-2.0233,-2.0182,-2.0233,-2.0233,-2.0233,-2.061,-2.0944,-2.1224,-2.1636,-2.1949,-2.2184,-2.2184,-2.2184,-2.2231,-2.2509,-2.2615,-2.2732,-2.3598,-2.3684,-2.3643,-1.7893,-1.76,-1.7333,-1.7333,-1.7311,-1.7193,-1.6938,-1.7137,-1.7319,-1.7434,-1.7466,-1.7487,-1.7468,-1.7984,-1.8375,-1.8375,-1.8762,-1.8987,-1.8987,-1.8987,-1.904,-1.9146,-1.9552,-1.9965,-2.0372,-2.066,-2.0858,-2.0957,-2.1264,-2.1423,-2.1423,-2.1423,-2.1423,-2.1423,-2.1423,-2.1423,-2.1361,-2.0957,-2.0424,-1.984,-1.9788,-1.9458,-1.912,-1.9762,-2.0169,-2.0422,-2.0662,-2.0825,-2.0924,-2.0825,-2.0762,-2.0762,-2.0699,-2.0947,-2.118,-2.118,-2.1541,-2.1955,-2.2342,-2.2558,-2.2649,-2.2649,-2.2799,-2.2979,-2.3334,-2.3508,-2.3595,-2.3595,-2.3595,-2.3696,-2.4036,-2.4436,-2.4863,-2.5237,-2.5701,-2.6043,-2.6168,-2.622,-2.622,-2.622,-2.622,-2.622,-2.622,-2.622,-2.622,-2.622,-2.5621,-2.5045,-2.4539,-2.4067,-2.3696,-2.3465,-2.329,-2.3009,-2.2634,-2.1575,-2.0921,-2.061,-2.0921,-2.1006,-2.0894,-2.1299,-2.1636,-2.1921,-2.203,-2.2137,-2.2184,-2.2184,-2.2324,-2.2509,-2.2555,-2.2814,-2.3172,-2.3467,-2.3643,-2.4046,-1.8458,-1.8026,-1.7645,-1.7645,-1.7399,-1.7103,-1.6765,-1.7016,-1.709,-1.6866,-1.7034,-1.709,-1.6866,-1.7368,-1.7809,-1.8093,-1.8655,-1.8987,-1.8987,-1.8987,-1.8987,-1.8987,-1.9251,-1.9565,-1.9978,-2.0207,-2.0497,-2.0795,-2.1055,-2.1264,-2.1423,-2.1423,-2.1423,-2.1423,-2.1423,-2.1423,-2.1361,-2.0957,-2.0499,-2.0015,-1.9965,-1.9699,-1.9434,-2.0029,-2.0372,-2.051,-2.0463,-2.0641,-2.0785,-2.045,-2.065,-2.1033,-2.0997,-2.1361,-2.1827,-2.1732,-2.2081,-2.2589,-2.283,-2.3068,-2.3246,-2.3201,-2.3201,-2.3246,-2.3551,-2.3595,-2.3595,-2.3653,-2.3767,-2.3952,-2.4287,-2.4799,-2.5198,-2.5465,-2.5901,-2.622,-2.622,-2.622,-2.622,-2.622,-2.622,-2.622,-2.622,-2.622,-2.6168,-2.6096,-2.5605,-2.5146,-2.4806,-2.44,-2.4109,-2.3952,-2.3724,-2.3508,-2.3216,-2.2374,-2.1766,-2.1465,-2.1636,-2.1684,-2.1575,-2.1841,-2.2091,-2.2385,-2.2625,-2.2786,-2.2894,-2.315,-2.3298,-2.3486,-2.3659,-2.3966,-2.4358,-2.4535,-2.4884,-2.5373,-1.8881,-1.8429,-1.7984,-1.7929,-1.7424,-1.7034,-1.7034,-1.7034,-1.6866,-1.6312,-1.6698,-1.6866,-1.6358,-1.6866,-1.7424,-1.8038,-1.8655,-1.8987,-1.8987,-1.8987,-1.8987,-1.8987,-1.8987,-1.9146,-1.9565,-1.9565,-1.9952,-2.0696,-2.0746,-2.0957,-2.1313,-2.1375,-2.1375,-2.1361,-2.1321,-2.1342,-2.1293,-2.0939,-2.0492,-2.0104,-1.9965,-1.9851,-1.9762,-1.9915,-2.0218,-2.0476,-1.9917,-2.0061,-2.0476,-2.0005,-2.0609,-2.1534,-2.1492,-2.1969,-2.2512,-2.2221,-2.268,-2.3216,-2.3024,-2.3377,-2.3782,-2.3638,-2.3595,-2.3595,-2.3595,-2.3595,-2.3653,-2.3824,-2.4094,-2.4343,-2.4477,-2.5044,-2.5503,-2.5556,-2.5901,-2.622,-2.622,-2.622,-2.622,-2.622,-2.622,-2.622,-2.622,-2.6203,-2.6168,-2.597,-2.577,-2.5584,-2.5333,-2.4822,-2.458,-2.4539,-2.3994,-2.3724,-2.3724,-2.3143,-2.2768,-2.2629,-2.2324,-2.2259,-2.2348,-2.2292,-2.2445,-2.2775,-2.3335,-2.3717,-2.4022,-2.4588,-2.4883,-2.4917,-2.5319,-2.5679,-2.5986,-2.6317,-2.6785,-2.7253,-1.8104,-1.7655,-1.7257,-1.6754,-1.6197,-1.5806,-1.5806,-1.5806,-1.5748,-1.5633,-1.569,-1.5911,-1.6244,-1.6866,-1.7424,-1.8038,-1.8655,-1.8987,-1.8987,-1.8987,-1.8987,-1.8987,-1.8987,-1.904,-1.9146,-1.946,-1.9708,-1.9862,-2.0497,-2.0809,-2.0759,-2.1215,-2.1326,-2.1215,-2.084,-2.0684,-2.059,-2.0509,-2.01,-1.9555,-2.0358,-2.0077,-1.9308,-1.9703,-1.9586,-1.9264,-1.9146,-1.9185,-1.9376,-2.0114,-2.0781,-2.1356,-2.1815,-2.2328,-2.2799,-2.274,-2.3157,-2.3653,-2.3465,-2.361,-2.3782,-2.3638,-2.3696,-2.3739,-2.3595,-2.3595,-2.3724,-2.4135,-2.4261,-2.4492,-2.5121,-2.5389,-2.5631,-2.599,-2.6132,-2.622,-2.622,-2.622,-2.622,-2.622,-2.622,-2.622,-2.622,-2.638,-2.6434,-2.6225,-2.6189,-2.5901,-2.5333,-2.5178,-2.5045,-2.4902,-2.4751,-2.463,-2.4564,-2.4261,-2.4023,-2.3833,-2.2708,-2.2705,-2.3676,-2.3122,-2.3194,-2.3641,-2.4051,-2.4356,-2.4631,-2.5085,-2.5399,-2.5633,-2.6016,-2.6479,-2.6898,-2.6983,-2.731,-2.7786,-1.7313,-1.6933,-1.6606,-1.6265,-1.5758,-1.541,-1.541,-1.541,-1.541,-1.541,-1.541,-1.5526,-1.5864,-1.614,-1.6641,-1.7424,-1.817,-1.856,-1.856,-1.8721,-1.8721,-1.8572,-1.8827,-1.8881,-1.8572,-1.8934,-1.9239,-1.9396,-2.0003,-2.0346,-2.0396,-2.1019,-2.1229,-2.1104,-2.0624,-2.0563,-2.0758,-2.0503,-2.016,-1.9794,-2.0603,-2.0334,-1.9488,-1.9777,-1.9821,-1.9716,-1.9383,-1.9629,-2.0152,-2.0983,-2.1664,-2.2143,-2.2412,-2.292,-2.3392,-2.329,-2.3566,-2.3839,-2.3653,-2.3867,-2.4036,-2.3681,-2.3979,-2.4271,-2.3994,-2.3937,-2.4105,-2.4574,-2.4759,-2.502,-2.5519,-2.5738,-2.5901,-2.6168,-2.622,-2.622,-2.622,-2.622,-2.622,-2.622,-2.622,-2.6239,-2.638,-2.652,-2.6572,-2.6452,-2.633,-2.6082,-2.5621,-2.5394,-2.5256,-2.5139,-2.5377,-2.5415,-2.539,-2.5415,-2.5682,-2.6061,-2.4327,-2.4056,-2.4985,-2.4642,-2.4641,-2.4938,-2.5545,-2.5876,-2.6019,-2.6714,-2.7055,-2.7226,-2.7609,-2.7996,-2.8372,-2.8575,-2.8818,-2.9149,-1.6518,-1.6265,-1.6056,-1.5941,-1.5594,-1.5362,-1.5362,-1.5362,-1.5362,-1.5362,-1.5362,-1.5362,-1.5526,-1.569,-1.614,-1.6944,-1.7689,-1.8084,-1.8084,-1.8344,-1.841,-1.8084,-1.8572,-1.8614,-1.8084,-1.8356,-1.8614,-1.9028,-1.95,-1.985,-2.008,-2.0809,-2.1095,-2.097,-2.0555,-2.0603,-2.1005,-2.0536,-2.0288,-2.022,-2.0758,-2.0439,-1.9656,-1.9985,-2.0197,-2.0329,-1.9958,-2.0434,-2.1336,-2.1914,-2.2491,-2.3025,-2.3039,-2.348,-2.4024,-2.3782,-2.3952,-2.4135,-2.3894,-2.4147,-2.4395,-2.3921,-2.4379,-2.4879,-2.4614,-2.4533,-2.4639,-2.5075,-2.5368,-2.5594,-2.5775,-2.6063,-2.6239,-2.6239,-2.6239,-2.6203,-2.6203,-2.6203,-2.6203,-2.622,-2.6239,-2.638,-2.664,-2.6708,-2.6742,-2.6742,-2.6538,-2.6295,-2.599,-2.5621,-2.5458,-2.5548,-2.587,-2.6097,-2.6265,-2.6479,-2.7121,-2.8079,-2.6373,-2.58,-2.6275,-2.6153,-2.6123,-2.626,-2.7057,-2.7458,-2.7597,-2.8436,-2.8826,-2.8873,-2.9241,-2.9512,-2.9777,-3.013,-3.0359,-3.0526,-1.5748,-1.5758,-1.5826,-1.5381,-1.5147,-1.5088,-1.5205,-1.5147,-1.5029,-1.5029,-1.5029,-1.5313,-1.5941,-1.6821,-1.7556,-1.7909,-1.803,-1.8084,-1.8084,-1.8139,-1.8139,-1.8084,-1.8193,-1.8193,-1.8084,-1.792,-1.7975,-1.8247,-1.9186,-1.9592,-1.9527,-2.0573,-2.101,-2.0911,-2.0447,-2.0267,-2.0321,-2.0112,-2.0038,-2.0091,-2.0575,-2.0044,-1.9127,-2.0067,-1.9859,-1.9173,-2.0004,-2.0656,-2.122,-2.1801,-2.235,-2.285,-2.3344,-2.3867,-2.4261,-2.4219,-2.4574,-2.4934,-2.4744,-2.4879,-2.4974,-2.4784,-2.4918,-2.5169,-2.5422,-2.5153,-2.4942,-2.5351,-2.5556,-2.5795,-2.6137,-2.6347,-2.645,-2.645,-2.6347,-2.6295,-2.6295,-2.6295,-2.6277,-2.6203,-2.6415,-2.664,-2.6908,-2.7152,-2.7279,-2.7279,-2.7038,-2.6691,-2.626,-2.599,-2.6026,-2.649,-2.6366,-2.6582,-2.7214,-2.7063,-2.7387,-2.8094,-2.8005,-2.7721,-2.7349,-2.67,-2.6686,-2.7165,-2.7625,-2.8106,-2.8545,-2.8965,-2.9271,-2.954,-2.9897,-3.0172,-3.0368,-3.0426,-3.0485,-3.0526,-1.4961,-1.5069,-1.5177,-1.4961,-1.497,-1.5029,-1.5098,-1.5039,-1.497,-1.497,-1.497,-1.5205,-1.5778,-1.6684,-1.7245,-1.7368,-1.7545,-1.7656,-1.7656,-1.7822,-1.7822,-1.7656,-1.792,-1.7986,-1.7656,-1.7963,-1.8116,-1.8116,-1.8975,-1.9448,-1.9643,-2.0549,-2.0875,-2.0749,-2.0303,-2.0271,-2.0563,-2.0266,-2.0086,-2.0078,-2.0903,-2.0657,-1.986,-2.0653,-2.082,-2.0726,-2.1495,-2.2091,-2.2535,-2.2816,-2.3218,-2.3629,-2.3918,-2.4287,-2.4655,-2.4655,-2.4799,-2.4997,-2.4902,-2.5098,-2.5253,-2.4981,-2.5329,-2.5775,-2.5701,-2.5738,-2.5848,-2.603,-2.6118,-2.6206,-2.6399,-2.645,-2.6485,-2.6485,-2.6434,-2.6399,-2.6399,-2.6399,-2.6364,-2.6277,-2.6486,-2.6759,-2.6973,-2.7609,-2.7855,-2.7438,-2.7513,-2.7267,-2.6503,-2.6495,-2.6417,-2.6243,-2.7179,-2.7637,-2.7582,-2.8244,-2.8746,-2.9034,-2.9122,-2.899,-2.8661,-2.8434,-2.8478,-2.8704,-2.9018,-2.9299,-2.9572,-2.9837,-3.0011,-3.0097,-3.03,-3.0443,-3.0526,-3.0551,-3.0609,-3.0609]}]]